GEFSCGP_850_meantemp_000.txt.gz
Temperature
16 14 13 14 14 15 15 15 14 15 15 13 10 8 8 8 8 8 7 6 6 6 6 6 6 6 6 6 6 6 6 6 6 5 6 6 7 8 8 8 8 9 10 10
13 13 14 14 14 13 14 14 13 14 14 12 8 8 8 8 7 6 5 5 5 5 5 5 5 5 5 5 5 5 5 5 5 5 5 4 5 5 6 6 7 8 8 8
14 14 14 14 13 12 13 13 13 12 12 10 9 8 7 7 6 5 5 5 4 4 4 4 4 4 4 4 4 4 4 4 4 4 4 4 4 4 4 5 6 6 7 7
13 13 13 14 13 13 12 13 12 12 12 10 12 8 7 6 4 4 4 4 3 3 3 3 3 3 3 3 3 3 3 3 3 3 2 2 3 3 3 3 4 5 6 6
13 13 12 13 13 13 12 12 10 11 10 11 11 9 6 6 3 3 3 3 3 2 3 2 2 2 2 2 1 1 1 1 1 1 2 1 1 2 2 2 3 3 4 5
13 14 13 13 13 13 11 10 11 10 9 12 11 10 5 3 3 3 3 2 2 2 2 2 2 1 1 1 0 0 0 -0 -0 -0 -0 0 0 1 1 1 2 2 3 4
12 12 12 13 12 12 10 10 11 12 10 12 9 7 3 3 3 3 3 2 2 1 1 1 0 0 -0 -1 -2 -2 -2 -1 -1 -1 -1 -1 -1 -0 0 0 0 1 1 3
9 11 11 12 12 11 10 9 9 10 10 8 8 5 2 4 4 3 2 2 1 1 0 -0 -1 -1 -1 -2 -3 -3 -3 -3 -2 -1 -1 -1 -1 -1 -1 -1 -1 -1 -1 1
9 10 11 12 12 11 10 9 9 8 8 6 6 4 3 4 3 2 2 1 0 -0 -1 -2 -3 -3 -3 -3 -3 -4 -4 -4 -3 -3 -2 -2 -2 -2 -2 -2 -2 -3 -3 -3
9 9 11 11 12 11 9 10 5 8 6 6 6 4 2 2 1 1 1 0 -1 -1 -2 -3 -4 -4 -4 -5 -5 -5 -6 -6 -5 -5 -5 -5 -4 -4 -4 -4 -4 -5 -5 -4
8 9 9 9 9 9 9 8 8 7 6 5 4 3 4 2 1 0 0 0 -1 -2 -3 -3 -4 -5 -5 -6 -7 -7 -7 -7 -7 -7 -7 -6 -5 -5 -5 -5 -5 -5 -5 -4
7 6 7 8 9 9 9 7 6 5 5 4 3 3 3 2 2 1 1 -0 -2 -3 -4 -5 -6 -6 -7 -7 -7 -8 -8 -8 -8 -8 -8 -7 -7 -6 -6 -5 -5 -5 -5 -4
7 7 7 9 8 8 7 6 6 5 3 3 2 2 2 2 2 2 1 -2 -3 -4 -5 -6 -6 -7 -8 -8 -8 -8 -8 -9 -8 -8 -8 -7 -7 -7 -7 -6 -6 -6 -5 -5
7 6 7 8 8 6 5 5 6 5 2 2 2 2 2 1 1 1 -0 -2 -4 -5 -5 -7 -7 -8 -9 -9 -9 -9 -9 -10 -9 -9 -9 -8 -8 -8 -8 -7 -6 -6 -6 -5
5 5 5 5 5 5 5 4 4 3 2 1 1 1 1 1 1 0 -2 -4 -5 -5 -6 -8 -9 -9 -10 -10 -10 -10 -10 -10 -10 -10 -10 -10 -9 -9 -8 -8 -7 -6 -6 -5
4 4 4 4 4 4 3 3 3 3 2 2 1 0 2 2 1 -1 -3 -5 -6 -6 -7 -8 -9 -10 -11 -11 -11 -11 -11 -11 -10 -10 -10 -10 -10 -9 -9 -9 -8 -7 -7 -6
3 3 3 3 3 3 2 2 2 2 2 1 -0 1 1 0 -1 -2 -5 -6 -7 -7 -8 -9 -10 -11 -11 -12 -12 -12 -12 -11 -11 -11 -11 -11 -11 -10 -10 -10 -9 -8 -8 -7
3 2 2 1 3 4 3 3 3 2 2 2 1 0 0 -1 -2 -4 -6 -6 -7 -8 -9 -10 -10 -11 -12 -12 -12 -12 -12 -12 -11 -11 -11 -11 -11 -11 -10 -10 -10 -9 -9 -8
3 2 2 1 1 2 2 2 2 1 0 1 0 0 -1 -3 -3 -4 -5 -6 -8 -9 -9 -10 -11 -11 -12 -12 -12 -12 -12 -12 -12 -12 -12 -12 -12 -12 -11 -11 -11 -10 -10 -9
2 0 0 -2 0 1 2 3 3 1 -1 1 0 -1 -3 -4 -3 -4 -6 -8 -8 -9 -10 -10 -11 -11 -12 -12 -13 -13 -13 -13 -13 -13 -13 -13 -13 -13 -13 -12 -12 -11 -11 -10
2 1 0 -2 -0 0 2 3 2 -0 0 2 1 -2 -4 -5 -5 -6 -7 -8 -9 -10 -10 -10 -11 -12 -13 -13 -13 -14 -14 -14 -14 -14 -14 -14 -13 -13 -13 -13 -13 -12 -11 -11
2 1 0 -0 -0 -0 3 2 -0 1 2 1 -0 -3 -4 -5 -6 -7 -8 -8 -9 -10 -10 -10 -11 -12 -13 -14 -14 -14 -15 -15 -15 -14 -14 -14 -14 -15 -14 -14 -13 -13 -12 -12
2 2 1 1 1 2 3 2 2 2 1 0 -1 -3 -4 -6 -7 -8 -8 -9 -10 -10 -11 -11 -12 -12 -13 -14 -14 -15 -15 -15 -15 -15 -15 -15 -15 -15 -15 -15 -14 -14 -13 -13
1 2 1 1 1 2 3 2 2 2 1 -1 -2 -4 -5 -7 -8 -8 -9 -9 -10 -11 -11 -12 -12 -13 -14 -14 -14 -15 -15 -15 -15 -15 -15 -15 -15 -15 -15 -15 -15 -15 -14 -14
1 1 -0 -0 1 2 3 2 1 1 -1 -2 -3 -5 -6 -7 -8 -9 -9 -10 -11 -11 -12 -12 -13 -13 -14 -14 -15 -15 -15 -15 -15 -15 -15 -15 -15 -15 -15 -15 -16 -15 -15 -14
1 0 -0 0 1 2 2 1 1 -1 -2 -3 -4 -6 -7 -8 -9 -9 -10 -10 -11 -11 -12 -12 -13 -14 -14 -14 -15 -15 -15 -15 -15 -15 -15 -16 -16 -16 -16 -16 -15 -15 -15 -15

GEFSCGP_850_meantemp_006.txt.gz
Temperature
14 11 10 11 12 13 14 13 12 10 8 6 4 3 3 3 3 2 2 2 3 3 3 3 3 3 3 3 3 3 2 2 2 2 1 2 2 2 2 2 2 3 3 4
11 11 11 12 11 12 13 12 11 8 8 5 3 3 3 3 2 2 2 2 2 2 2 2 2 2 2 2 2 1 1 -0 -1 -1 -1 -1 -1 -0 0 1 1 2 2 2
11 12 12 12 10 11 12 13 12 9 5 5 4 3 3 3 3 2 2 2 1 1 1 0 0 0 0 0 -0 -1 -1 -2 -3 -3 -2 -2 -1 -1 -1 -0 0 1 1 1
11 11 11 11 10 10 11 12 11 10 6 4 5 2 2 2 2 2 2 2 1 1 0 -1 -1 -1 -2 -2 -3 -3 -3 -3 -4 -4 -3 -4 -5 -5 -5 -4 -3 -1 -0 1
11 11 10 11 11 11 10 9 9 9 7 6 5 3 2 2 1 1 2 2 1 0 -1 -2 -2 -3 -4 -4 -4 -4 -4 -4 -4 -5 -4 -5 -6 -6 -5 -5 -5 -4 -3 -2
10 12 10 10 10 10 8 9 9 7 7 8 6 5 2 1 2 1 2 2 1 -0 -1 -3 -3 -4 -5 -5 -5 -5 -5 -6 -6 -5 -5 -6 -6 -6 -6 -6 -6 -6 -6 -5
10 11 10 11 10 9 7 8 8 9 8 8 4 3 1 2 2 2 2 1 0 -1 -3 -4 -4 -5 -5 -6 -6 -6 -6 -7 -7 -6 -6 -6 -7 -7 -7 -7 -7 -6 -6 -6
10 10 9 9 10 10 8 8 8 9 7 6 4 3 1 2 3 3 2 1 -0 -2 -3 -4 -5 -5 -6 -6 -6 -6 -7 -8 -8 -7 -7 -7 -8 -8 -8 -8 -7 -7 -7 -6
9 10 9 9 9 9 9 6 7 6 5 4 4 2 2 2 2 2 2 1 -1 -3 -4 -5 -5 -6 -7 -7 -8 -8 -8 -8 -8 -8 -8 -8 -8 -8 -8 -8 -7 -7 -7 -7
8 8 9 8 9 7 6 5 4 5 6 6 5 3 2 1 0 -0 0 0 -1 -3 -4 -5 -6 -7 -7 -8 -8 -8 -9 -9 -9 -9 -9 -9 -9 -9 -9 -8 -8 -8 -7 -7
7 7 7 7 7 7 7 6 4 3 4 4 3 4 1 2 1 -1 0 -0 -2 -4 -5 -6 -7 -7 -8 -8 -8 -9 -9 -9 -10 -10 -10 -10 -10 -10 -9 -9 -8 -8 -7 -7
5 5 6 7 7 6 6 6 4 4 4 2 2 3 3 2 1 0 0 -1 -3 -5 -6 -7 -7 -8 -8 -8 -9 -9 -10 -10 -10 -10 -10 -10 -10 -10 -10 -9 -9 -9 -8 -7
6 5 7 8 7 6 5 5 5 2 2 1 1 2 2 1 1 1 -0 -2 -4 -5 -6 -7 -8 -9 -9 -9 -9 -10 -10 -11 -11 -11 -11 -11 -11 -11 -11 -10 -10 -9 -9 -8
5 5 6 9 7 5 5 5 4 2 1 1 1 1 0 -1 -1 0 -1 -3 -5 -6 -7 -8 -9 -9 -10 -10 -10 -10 -11 -11 -12 -12 -11 -11 -12 -12 -11 -11 -11 -10 -10 -9
5 5 5 4 4 4 4 4 3 2 1 1 0 0 -0 -1 -1 -1 -2 -4 -5 -7 -8 -9 -10 -10 -10 -10 -10 -11 -11 -12 -12 -12 -12 -12 -12 -13 -12 -12 -11 -11 -10 -9
3 4 4 4 3 2 3 3 2 2 2 1 0 -0 0 1 -0 -1 -3 -5 -7 -8 -9 -9 -10 -10 -10 -11 -11 -12 -12 -12 -13 -13 -13 -13 -13 -13 -13 -13 -12 -12 -11 -10
2 3 4 3 1 3 2 2 2 2 2 1 -0 -0 -0 -1 -1 -2 -4 -6 -7 -8 -9 -10 -10 -10 -11 -11 -12 -12 -13 -13 -13 -13 -14 -14 -14 -14 -14 -14 -13 -13 -12 -11
1 2 1 1 1 4 3 2 2 2 1 0 -0 -1 0 -1 -2 -3 -5 -6 -7 -8 -10 -10 -10 -10 -11 -11 -12 -12 -13 -13 -13 -14 -14 -14 -14 -14 -14 -14 -14 -13 -13 -12
1 1 0 -0 1 1 2 2 2 1 0 0 0 0 0 -1 -3 -4 -6 -7 -8 -9 -10 -10 -10 -11 -11 -12 -12 -13 -13 -13 -14 -14 -14 -14 -15 -14 -15 -15 -14 -14 -13 -13
0 -1 -2 -1 2 3 4 2 2 1 -1 1 1 -0 -1 -3 -4 -5 -6 -7 -8 -9 -9 -10 -10 -11 -11 -12 -12 -13 -13 -14 -14 -14 -14 -14 -15 -15 -15 -15 -15 -14 -14 -14
1 0 -1 -2 -1 1 2 2 1 0 1 1 1 -0 -2 -4 -5 -6 -7 -7 -8 -8 -9 -9 -10 -10 -11 -12 -13 -13 -14 -14 -14 -14 -14 -14 -14 -15 -15 -15 -15 -14 -14 -14
1 -0 -1 -2 -1 0 2 0 -0 1 2 1 -0 -1 -3 -4 -6 -7 -7 -8 -8 -8 -9 -9 -10 -10 -11 -12 -13 -13 -14 -14 -14 -14 -14 -14 -14 -15 -15 -15 -15 -14 -15 -15
-0 1 0 0 1 2 3 3 2 2 1 0 -1 -2 -3 -5 -6 -7 -7 -8 -8 -9 -9 -9 -10 -10 -11 -11 -13 -13 -14 -14 -14 -14 -14 -14 -14 -14 -15 -15 -15 -15 -15 -15
-1 0 -1 -1 -1 2 2 2 2 1 0 -1 -2 -3 -4 -5 -6 -7 -7 -8 -8 -8 -9 -9 -10 -10 -10 -11 -12 -13 -13 -14 -14 -14 -14 -14 -14 -14 -14 -14 -15 -15 -15 -15
-0 -2 -2 -1 -0 1 2 2 1 0 -0 -1 -3 -4 -5 -6 -7 -7 -8 -8 -8 -9 -9 -9 -10 -10 -10 -11 -11 -12 -13 -14 -14 -14 -13 -13 -13 -14 -14 -14 -14 -15 -15 -15
-1 -1 -1 0 1 1 1 1 1 0 -1 -2 -3 -4 -5 -6 -7 -7 -8 -8 -8 -9 -9 -9 -10 -10 -10 -11 -11 -12 -13 -13 -13 -13 -13 -13 -14 -14 -15 -15 -15 -15 -15 -15

GEFSCGP_850_meantemp_012.txt.gz
Temperature
17 19 17 16 15 17 17 17 15 11 8 8 8 6 6 5 5 5 5 4 3 3 2 1 -0 -1 -1 -1 -1 -1 -1 -1 -2 -2 -2 -2 -2 -3 -3 -3 -3 -2 -2 -2
19 16 14 14 14 16 17 16 13 9 8 8 7 6 6 5 5 4 4 3 3 2 2 0 -1 -2 -3 -3 -3 -3 -3 -3 -4 -4 -4 -4 -5 -4 -4 -4 -4 -3 -3 -3
17 15 14 15 16 16 16 16 14 11 7 7 7 7 6 5 5 4 4 3 3 2 1 -0 -1 -2 -3 -4 -4 -4 -4 -4 -5 -6 -6 -6 -5 -5 -5 -5 -5 -5 -4 -4
16 14 14 15 14 15 16 13 13 10 10 10 8 12 7 6 6 5 5 4 3 2 1 -1 -2 -3 -4 -5 -5 -5 -5 -5 -6 -6 -7 -7 -8 -7 -7 -7 -7 -6 -6 -5
14 14 14 14 13 13 14 11 11 11 12 11 9 10 10 6 6 6 5 4 3 2 0 -1 -3 -4 -5 -6 -6 -6 -6 -6 -6 -7 -8 -8 -8 -8 -8 -8 -8 -8 -7 -6
14 12 12 13 12 11 11 12 11 11 12 13 12 11 11 7 6 5 5 4 3 1 -0 -2 -3 -5 -6 -6 -7 -7 -7 -7 -7 -8 -8 -9 -9 -9 -9 -9 -9 -9 -8 -8
15 14 12 12 14 14 14 15 16 16 15 15 10 11 10 6 5 4 4 3 2 1 -1 -3 -4 -5 -6 -7 -8 -8 -8 -8 -8 -8 -9 -9 -10 -10 -10 -10 -10 -10 -9 -9
16 15 12 12 12 12 13 14 15 15 16 15 11 11 8 6 4 4 3 3 2 -0 -2 -3 -5 -6 -7 -8 -8 -8 -8 -9 -9 -9 -10 -10 -10 -11 -11 -11 -11 -11 -10 -10
15 14 12 10 10 11 13 13 12 13 13 12 13 9 5 5 5 4 3 2 1 -1 -3 -4 -5 -6 -7 -8 -8 -9 -9 -9 -10 -10 -10 -11 -11 -11 -11 -11 -11 -11 -11 -10
12 13 12 10 11 10 11 11 12 13 13 14 14 12 10 5 4 4 3 2 0 -2 -3 -4 -5 -7 -7 -8 -8 -9 -9 -10 -10 -11 -11 -11 -12 -12 -12 -12 -12 -12 -11 -11
11 13 13 12 12 12 11 11 11 11 11 12 13 12 6 5 4 3 3 1 -1 -2 -4 -5 -6 -7 -8 -8 -9 -9 -9 -10 -10 -11 -11 -12 -12 -12 -13 -13 -13 -13 -12 -12
9 12 14 12 9 8 10 11 11 12 12 10 11 10 5 4 3 3 2 1 -1 -3 -4 -5 -6 -7 -8 -9 -9 -10 -10 -10 -11 -11 -12 -12 -12 -13 -13 -13 -13 -13 -13 -12
9 12 15 15 11 9 9 9 9 9 10 10 9 10 4 4 4 3 2 -0 -2 -3 -5 -6 -7 -8 -9 -9 -10 -10 -10 -11 -11 -12 -12 -12 -13 -13 -13 -14 -14 -13 -13 -13
8 11 13 15 13 10 9 8 8 8 9 10 9 9 6 5 4 3 1 -1 -2 -4 -5 -6 -7 -8 -9 -10 -10 -10 -10 -11 -12 -12 -12 -13 -13 -14 -14 -14 -14 -14 -14 -13
8 11 10 9 7 7 8 8 7 7 8 8 9 7 6 5 3 2 0 -2 -3 -5 -6 -7 -8 -9 -9 -10 -10 -10 -10 -11 -11 -12 -12 -13 -13 -13 -14 -14 -14 -14 -14 -14
8 9 8 9 6 6 6 7 7 7 7 6 6 6 5 3 3 2 -0 -3 -4 -6 -7 -8 -8 -9 -10 -10 -9 -10 -10 -11 -11 -12 -13 -13 -13 -13 -14 -14 -14 -14 -14 -14
8 9 10 11 8 8 10 9 7 6 6 6 6 6 4 3 2 0 -2 -4 -6 -7 -8 -8 -9 -9 -9 -9 -9 -9 -10 -11 -12 -12 -12 -13 -13 -13 -14 -14 -15 -15 -15 -14
8 8 9 9 10 10 11 5 6 6 6 5 5 4 3 2 0 -2 -4 -6 -7 -8 -8 -8 -8 -8 -9 -9 -9 -10 -10 -11 -12 -12 -13 -13 -13 -14 -14 -14 -15 -15 -15 -15
6 8 9 8 9 11 7 5 5 5 6 4 4 3 2 1 -0 -2 -5 -7 -8 -8 -8 -8 -8 -8 -8 -9 -9 -10 -10 -12 -12 -13 -13 -13 -14 -15 -15 -15 -15 -15 -15 -15
4 6 8 6 8 11 10 5 3 5 5 4 3 3 1 -0 1 -1 -6 -7 -7 -7 -7 -7 -8 -8 -9 -9 -9 -10 -11 -11 -12 -12 -13 -13 -14 -15 -15 -15 -15 -15 -15 -15
6 6 7 6 7 11 6 3 3 5 7 3 2 1 -0 -1 -2 -5 -6 -7 -7 -7 -7 -7 -8 -8 -9 -9 -9 -10 -10 -11 -11 -12 -12 -13 -14 -15 -15 -15 -15 -15 -15 -15
9 8 8 7 7 9 3 3 5 6 2 2 1 -0 -2 -3 -5 -6 -6 -6 -6 -6 -7 -7 -7 -8 -9 -9 -10 -10 -11 -11 -11 -12 -12 -13 -13 -14 -15 -15 -15 -15 -15 -15
8 9 10 9 10 5 3 4 3 3 2 1 -0 -1 -2 -4 -5 -6 -6 -6 -6 -7 -7 -7 -7 -8 -8 -9 -10 -10 -11 -11 -11 -11 -12 -13 -13 -14 -15 -15 -15 -15 -15 -15
6 3 6 6 7 4 2 2 2 2 1 1 -0 -1 -3 -4 -5 -5 -6 -6 -6 -7 -7 -7 -7 -8 -9 -9 -10 -10 -10 -11 -11 -12 -13 -13 -14 -14 -14 -14 -14 -14 -14 -14
9 4 5 6 5 2 1 1 2 2 1 0 -1 -2 -3 -4 -5 -5 -6 -6 -6 -7 -7 -7 -8 -8 -9 -9 -10 -10 -10 -10 -11 -12 -13 -14 -14 -14 -14 -14 -14 -14 -14 -14
5 5 6 8 6 4 3 2 2 1 1 -0 -1 -3 -4 -4 -5 -6 -6 -6 -6 -6 -7 -7 -8 -8 -9 -9 -9 -9 -10 -10 -11 -12 -13 -14 -14 -14 -14 -14 -14 -14 -14 -14

GEFSCGP_850_meantemp_018.txt.gz
Temperature
21 19 17 17 18 18 19 19 17 13 12 12 12 9 8 8 8 8 8 7 6 5 4 3 2 1 -0 -1 -2 -2 -3 -3 -4 -4 -4 -4 -4 -4 -5 -5 -5 -6 -6 -6
19 16 17 18 18 19 19 19 17 12 11 12 11 10 9 8 8 7 7 7 6 5 4 3 2 0 -1 -2 -3 -3 -4 -4 -5 -5 -5 -6 -6 -6 -6 -6 -6 -7 -7 -7
17 16 18 19 18 18 19 17 15 15 11 11 11 10 9 8 8 7 7 7 6 5 4 2 1 -0 -2 -3 -3 -4 -4 -5 -5 -6 -6 -6 -6 -6 -6 -6 -7 -7 -8 -8
17 17 18 18 16 16 17 14 14 14 11 12 10 10 9 7 7 7 7 7 5 4 3 2 1 -1 -2 -3 -4 -4 -5 -5 -6 -6 -7 -7 -8 -8 -8 -8 -8 -8 -8 -9
16 16 16 16 15 15 15 14 14 14 13 12 11 11 10 8 7 7 7 6 5 4 3 1 -0 -1 -3 -4 -4 -5 -5 -6 -6 -7 -7 -8 -8 -9 -9 -9 -9 -9 -9 -10
15 15 15 15 15 15 14 14 14 13 13 13 14 12 10 8 8 7 6 6 5 4 2 1 -1 -2 -3 -4 -5 -5 -6 -6 -7 -7 -8 -8 -9 -9 -9 -9 -9 -10 -10 -10
16 16 15 15 15 16 15 14 14 14 13 14 14 14 8 7 6 6 6 5 4 3 2 0 -1 -2 -3 -4 -5 -5 -6 -6 -7 -8 -8 -9 -9 -10 -10 -10 -11 -11 -11 -11
18 16 14 14 13 13 15 15 13 13 14 14 14 12 6 6 6 6 6 5 4 2 1 -1 -2 -3 -4 -5 -5 -5 -6 -7 -7 -8 -8 -9 -10 -10 -11 -11 -11 -11 -11 -12
16 15 13 13 13 13 14 14 13 12 13 13 14 6 6 6 6 6 6 4 3 2 0 -1 -2 -3 -4 -5 -5 -6 -6 -7 -8 -8 -9 -10 -10 -11 -11 -11 -11 -12 -12 -12
14 16 14 13 12 12 14 13 12 13 12 12 13 12 7 6 6 6 5 4 2 1 -0 -2 -3 -4 -4 -5 -6 -6 -7 -8 -9 -9 -9 -10 -11 -11 -12 -12 -12 -12 -12 -12
14 14 15 14 14 15 14 14 14 13 12 11 10 10 7 5 5 5 5 3 2 0 -1 -2 -3 -4 -5 -5 -6 -7 -8 -8 -9 -9 -10 -11 -11 -12 -12 -12 -12 -12 -13 -13
13 12 15 14 11 12 12 13 13 12 12 12 11 8 7 5 6 5 4 3 1 -0 -2 -3 -4 -4 -5 -6 -6 -7 -8 -9 -9 -10 -10 -11 -12 -12 -12 -13 -13 -13 -13 -13
11 12 14 14 12 11 12 12 12 11 10 10 9 9 6 6 6 5 4 2 1 -1 -2 -3 -4 -5 -5 -6 -7 -8 -8 -9 -10 -10 -11 -11 -12 -12 -13 -13 -13 -13 -14 -14
10 11 13 14 14 11 12 12 11 10 9 10 11 10 5 6 5 5 3 1 -0 -2 -3 -4 -4 -5 -6 -6 -7 -8 -9 -9 -10 -10 -11 -12 -12 -13 -13 -13 -14 -14 -14 -14
10 11 13 13 13 12 11 10 11 10 9 9 10 9 7 5 5 4 2 1 -1 -2 -4 -4 -5 -5 -6 -7 -7 -8 -9 -9 -10 -10 -11 -12 -12 -13 -13 -14 -14 -14 -14 -14
10 10 12 12 13 11 9 9 9 9 9 9 9 8 5 6 5 4 1 -1 -2 -3 -4 -5 -5 -5 -6 -7 -8 -8 -9 -9 -10 -11 -12 -12 -13 -13 -14 -14 -14 -14 -14 -14
11 11 11 10 13 12 10 12 10 9 9 9 9 7 6 5 4 2 0 -2 -3 -4 -4 -5 -5 -6 -7 -7 -8 -9 -9 -9 -10 -11 -12 -12 -13 -13 -14 -14 -14 -14 -14 -14
10 10 10 9 10 10 12 8 10 10 10 10 9 7 6 4 3 1 -1 -2 -3 -4 -4 -5 -5 -6 -7 -8 -8 -8 -9 -10 -11 -11 -12 -12 -13 -13 -14 -14 -14 -14 -14 -14
8 9 10 8 8 9 10 8 8 8 8 9 8 7 5 4 2 -2 -2 -2 -3 -4 -4 -5 -6 -6 -7 -7 -8 -8 -9 -10 -11 -11 -12 -12 -13 -13 -13 -13 -14 -14 -14 -14
7 7 7 7 7 8 11 8 8 8 6 7 7 5 4 2 -0 -2 -2 -3 -3 -4 -4 -5 -6 -6 -7 -7 -8 -8 -9 -10 -11 -11 -12 -12 -13 -13 -13 -13 -13 -14 -14 -14
7 7 6 6 6 8 8 7 7 6 7 6 5 4 3 2 -0 -2 -3 -3 -3 -4 -4 -5 -6 -6 -7 -8 -8 -8 -9 -10 -11 -11 -12 -12 -13 -13 -13 -13 -13 -13 -14 -13
9 8 8 8 7 8 6 5 5 6 6 5 4 3 2 1 -1 -2 -3 -3 -3 -4 -5 -5 -6 -6 -7 -8 -8 -8 -9 -10 -10 -11 -12 -12 -13 -13 -13 -13 -13 -13 -14 -14
11 11 11 10 10 9 7 7 7 6 5 4 3 2 1 -0 -2 -3 -3 -3 -4 -4 -5 -5 -6 -6 -7 -7 -8 -8 -9 -9 -10 -11 -11 -12 -13 -13 -13 -13 -13 -13 -13 -13
11 11 9 8 9 9 8 7 5 5 5 4 3 2 1 -1 -2 -2 -3 -3 -4 -4 -5 -5 -6 -6 -7 -7 -8 -8 -9 -9 -9 -11 -11 -12 -12 -13 -13 -13 -13 -13 -13 -13
12 7 7 7 9 8 7 6 5 4 4 3 2 1 0 -1 -2 -2 -3 -3 -4 -4 -5 -5 -6 -6 -7 -7 -7 -8 -8 -9 -9 -10 -11 -12 -12 -13 -13 -13 -14 -13 -13 -13
10 9 7 9 11 8 7 6 4 4 3 3 2 1 -0 -1 -2 -2 -3 -3 -4 -5 -5 -5 -6 -6 -7 -7 -7 -8 -8 -8 -9 -10 -11 -12 -12 -13 -13 -13 -13 -14 -14 -14

GEFSCGP_850_meantemp_024.txt.gz
Temperature
16 13 13 14 14 15 15 14 12 10 11 10 7 5 5 7 7 6 5 5 4 3 3 3 2 2 1 0 -1 -2 -2 -2 -2 -2 -3 -3 -3 -4 -5 -5 -6 -6 -7 -7
13 13 14 14 14 15 15 14 11 10 10 10 8 5 5 6 6 6 6 5 4 3 3 2 2 2 1 -1 -2 -2 -2 -3 -3 -4 -4 -5 -5 -5 -6 -6 -7 -7 -8 -8
14 14 15 14 12 14 12 13 12 11 9 9 8 7 5 5 6 6 6 5 4 4 3 2 2 1 -0 -2 -2 -3 -3 -4 -4 -4 -5 -5 -5 -6 -6 -7 -8 -8 -9 -9
14 13 14 13 13 13 14 13 13 11 9 8 9 8 5 4 4 5 5 4 4 3 3 2 1 -0 -1 -2 -3 -3 -4 -4 -5 -5 -6 -6 -7 -8 -8 -9 -9 -9 -9 -9
13 13 13 13 13 13 13 13 12 12 11 9 8 7 6 4 4 4 4 4 3 3 2 2 0 -1 -2 -3 -3 -4 -4 -5 -5 -6 -7 -7 -8 -9 -9 -9 -10 -10 -10 -10
13 14 13 13 13 13 13 12 11 9 8 9 9 6 7 3 4 3 3 3 3 2 2 1 -0 -1 -2 -3 -4 -4 -5 -5 -6 -7 -7 -8 -9 -9 -10 -10 -11 -11 -11 -11
14 14 13 13 13 12 11 11 11 11 10 10 10 8 7 4 3 3 3 3 2 2 1 1 -0 -2 -3 -4 -4 -5 -5 -6 -6 -7 -8 -9 -9 -10 -11 -11 -12 -12 -12 -12
14 13 13 12 12 12 12 12 11 12 10 9 10 9 5 4 4 5 4 3 2 2 1 0 -1 -3 -3 -4 -5 -5 -6 -6 -7 -8 -8 -9 -10 -11 -11 -12 -12 -12 -13 -13
13 13 12 12 12 12 12 10 10 9 9 8 8 7 5 4 3 3 2 2 2 1 1 -1 -2 -3 -4 -5 -5 -5 -6 -6 -7 -8 -9 -10 -11 -11 -12 -12 -13 -13 -13 -14
12 12 13 12 12 12 12 10 8 9 10 9 8 8 7 3 3 2 2 2 1 0 -1 -2 -3 -4 -4 -5 -5 -6 -6 -7 -8 -9 -10 -11 -11 -12 -12 -13 -13 -13 -14 -14
11 11 12 11 11 13 12 12 10 8 8 8 7 9 7 4 3 2 2 2 1 -0 -1 -2 -4 -4 -5 -5 -5 -6 -6 -7 -9 -10 -11 -11 -11 -12 -13 -13 -13 -14 -14 -14
9 9 10 11 11 10 11 11 9 9 9 7 6 8 5 3 4 3 2 1 0 -1 -2 -3 -4 -4 -4 -5 -5 -6 -7 -8 -9 -10 -11 -11 -12 -12 -13 -13 -14 -14 -14 -14
9 9 12 13 12 10 10 10 9 8 7 6 6 8 3 3 3 2 1 0 -0 -1 -3 -4 -4 -4 -4 -5 -5 -6 -8 -9 -10 -10 -11 -11 -12 -13 -13 -13 -13 -13 -13 -14
9 9 11 14 13 11 10 10 9 8 7 6 6 7 4 2 1 1 1 0 -1 -2 -3 -3 -3 -4 -4 -5 -6 -7 -8 -9 -10 -10 -11 -11 -12 -13 -13 -13 -13 -13 -13 -13
8 9 9 9 9 9 9 9 8 7 7 7 7 7 6 3 2 1 1 -1 -2 -3 -3 -3 -3 -4 -5 -5 -6 -7 -8 -9 -10 -10 -11 -11 -12 -12 -13 -13 -13 -13 -13 -13
7 8 9 9 9 8 9 8 7 7 7 6 7 7 5 3 2 1 -0 -1 -2 -3 -3 -3 -3 -4 -5 -6 -7 -8 -8 -9 -10 -10 -11 -11 -12 -12 -13 -13 -13 -13 -13 -13
6 8 9 8 7 9 10 10 7 7 6 6 7 6 2 1 0 -0 -0 -1 -2 -2 -2 -3 -4 -4 -5 -6 -7 -8 -8 -9 -9 -10 -11 -11 -12 -13 -13 -13 -13 -13 -13 -13
6 7 6 6 8 12 12 9 8 8 7 6 6 5 3 2 1 1 -0 -1 -1 -2 -2 -3 -4 -5 -5 -6 -7 -8 -8 -8 -9 -10 -10 -11 -12 -12 -13 -13 -13 -13 -13 -13
6 6 6 5 7 8 9 8 8 8 7 7 5 3 1 1 -0 -2 -2 -2 -1 -2 -3 -3 -4 -5 -5 -6 -7 -7 -8 -8 -9 -10 -10 -11 -11 -12 -13 -13 -13 -13 -13 -13
5 4 4 4 8 9 12 8 8 8 7 7 6 2 -1 -2 -1 -1 -1 -2 -2 -2 -3 -4 -4 -5 -5 -6 -7 -7 -7 -8 -9 -9 -10 -11 -11 -12 -12 -13 -13 -13 -13 -13
5 5 4 4 5 8 9 7 8 8 9 8 7 5 2 0 1 2 0 -1 -2 -3 -3 -4 -5 -5 -5 -6 -6 -7 -7 -8 -9 -9 -10 -10 -11 -11 -12 -12 -13 -13 -13 -13
6 4 4 3 4 7 8 5 6 8 9 9 8 7 4 4 2 1 -0 -1 -2 -3 -4 -4 -5 -5 -5 -6 -6 -7 -7 -8 -8 -8 -9 -10 -11 -11 -12 -12 -12 -13 -13 -13
6 7 6 6 10 11 10 11 12 10 9 8 8 6 5 4 2 1 -1 -1 -2 -3 -4 -4 -4 -5 -5 -6 -6 -7 -7 -8 -8 -8 -8 -9 -10 -11 -11 -12 -12 -13 -13 -13
7 7 6 6 8 10 11 11 11 10 9 8 7 6 5 4 2 0 -1 -1 -2 -3 -4 -4 -4 -5 -5 -6 -6 -7 -7 -7 -8 -8 -8 -9 -9 -10 -11 -11 -12 -12 -13 -13
8 5 6 6 7 10 12 13 12 9 8 7 6 5 4 3 2 0 -0 -1 -2 -3 -3 -4 -4 -5 -5 -6 -6 -7 -7 -7 -7 -8 -8 -8 -9 -10 -10 -11 -11 -12 -12 -13
7 7 7 11 13 11 14 14 12 10 8 6 5 4 3 2 2 0 -1 -1 -2 -3 -3 -4 -4 -4 -5 -5 -6 -6 -7 -7 -7 -8 -8 -8 -9 -9 -10 -10 -10 -10 -11 -12

GEFSCGP_850_meantemp_030.txt.gz
Temperature
15 12 11 12 13 14 14 13 12 11 8 7 6 5 5 5 4 4 4 4 4 4 3 2 2 1 -0 -1 -1 -1 -1 -1 -2 -2 -3 -3 -4 -5 -5 -6 -7 -8 -8 -9
12 13 13 12 13 13 13 13 12 10 9 8 7 6 5 4 4 4 4 5 4 4 3 2 1 0 -1 -1 -1 -1 -1 -2 -3 -4 -4 -5 -5 -6 -6 -7 -7 -8 -9 -9
14 13 13 13 12 13 13 13 12 11 9 8 7 7 5 4 4 4 5 5 5 4 3 2 1 -0 -1 -1 -1 -1 -2 -3 -3 -4 -5 -5 -5 -6 -6 -7 -8 -9 -10 -10
12 12 13 13 12 12 13 12 12 10 9 7 8 8 8 4 3 3 4 4 4 4 3 1 0 -1 -1 -1 -1 -2 -2 -3 -4 -5 -5 -6 -7 -7 -8 -9 -9 -9 -10 -11
13 12 13 13 12 12 12 11 11 10 9 8 7 7 7 4 4 3 3 4 4 3 2 1 -0 -1 -1 -1 -2 -2 -3 -4 -4 -5 -6 -6 -7 -8 -9 -9 -9 -10 -11 -11
12 12 12 12 12 11 11 10 9 7 7 9 9 8 9 4 4 4 3 3 4 2 1 1 -0 -1 -1 -2 -2 -2 -3 -4 -4 -5 -6 -7 -8 -8 -9 -9 -10 -11 -11 -12
14 13 12 12 13 11 11 11 11 11 10 11 8 8 8 7 4 4 3 3 3 2 1 0 -0 -1 -1 -2 -2 -3 -3 -4 -5 -6 -7 -8 -8 -9 -9 -10 -11 -12 -12 -12
14 13 12 11 12 11 11 12 12 12 10 9 8 7 7 5 4 4 4 3 2 1 1 0 -0 -1 -2 -2 -2 -3 -4 -5 -5 -6 -7 -8 -8 -9 -10 -11 -12 -12 -12 -13
13 13 12 11 11 11 11 9 10 8 8 8 7 7 7 3 3 2 2 2 2 1 1 0 -1 -2 -2 -2 -3 -4 -4 -5 -6 -6 -7 -7 -8 -9 -10 -11 -12 -12 -12 -13
11 12 12 11 11 10 10 7 7 8 10 9 8 8 8 7 3 1 0 1 1 1 0 -0 -1 -2 -2 -3 -3 -4 -5 -6 -6 -7 -7 -8 -9 -10 -11 -12 -12 -12 -12 -12
10 10 11 11 11 11 9 9 7 6 7 8 8 10 8 8 5 2 1 2 2 1 0 -1 -2 -2 -2 -3 -4 -4 -5 -6 -6 -7 -7 -8 -9 -10 -11 -12 -12 -12 -12 -12
8 8 9 11 10 10 10 9 7 9 8 6 6 9 8 6 5 4 3 2 2 1 -0 -1 -1 -2 -3 -3 -4 -5 -5 -6 -6 -7 -7 -8 -9 -10 -11 -12 -12 -12 -12 -12
8 9 11 13 11 10 10 9 7 7 6 4 5 9 6 3 3 3 2 2 1 0 -1 -1 -2 -2 -3 -4 -4 -5 -5 -6 -6 -6 -7 -8 -9 -10 -11 -12 -12 -12 -12 -12
8 8 10 13 13 10 10 9 7 7 7 6 5 8 9 4 2 1 1 2 1 0 -0 -1 -2 -3 -3 -4 -4 -5 -6 -6 -6 -6 -7 -8 -9 -10 -11 -11 -12 -12 -12 -12
7 8 8 7 8 8 8 8 6 6 6 7 7 7 9 7 4 3 2 1 0 -0 -1 -1 -2 -3 -3 -4 -5 -5 -5 -6 -6 -6 -7 -8 -9 -10 -10 -11 -12 -12 -12 -12
5 8 8 8 8 7 6 6 6 6 6 5 6 8 7 4 4 2 1 1 0 0 -0 -1 -2 -3 -3 -4 -5 -5 -5 -6 -6 -6 -7 -8 -9 -10 -10 -11 -12 -12 -12 -12
5 7 9 8 7 8 10 10 6 6 5 6 7 9 5 3 2 2 2 1 1 1 -0 -1 -2 -3 -3 -4 -4 -5 -5 -5 -6 -6 -7 -8 -9 -9 -10 -11 -12 -12 -12 -13
5 6 6 6 8 13 13 9 8 8 8 5 6 6 5 5 4 4 4 3 2 1 -0 -1 -2 -3 -3 -4 -5 -5 -5 -6 -6 -6 -7 -8 -9 -9 -10 -10 -11 -12 -12 -13
5 5 6 6 8 9 10 9 8 8 9 7 6 6 4 2 2 2 3 3 2 1 -0 -1 -2 -3 -3 -4 -5 -5 -5 -6 -6 -6 -7 -8 -9 -9 -10 -10 -11 -12 -12 -12
3 4 4 5 10 11 13 8 8 9 9 10 8 6 2 -0 1 3 5 3 1 -0 -1 -2 -2 -3 -3 -4 -4 -5 -5 -6 -6 -6 -7 -8 -9 -9 -9 -10 -10 -11 -12 -12
4 4 4 4 6 9 9 7 8 10 11 13 12 10 5 2 5 6 5 3 1 0 -1 -2 -2 -3 -3 -4 -4 -5 -5 -5 -6 -7 -7 -8 -8 -9 -9 -10 -10 -10 -11 -11
5 4 3 3 5 8 9 5 7 12 14 13 12 11 10 9 6 5 5 3 1 0 -1 -1 -2 -3 -3 -4 -4 -5 -5 -5 -6 -6 -7 -8 -8 -9 -9 -10 -10 -10 -10 -11
6 7 6 7 10 12 11 13 16 15 14 13 12 11 10 8 6 5 4 3 1 0 -1 -1 -2 -2 -3 -3 -4 -4 -5 -5 -6 -6 -7 -7 -8 -8 -9 -9 -10 -10 -10 -10
5 6 5 5 7 10 12 14 15 14 14 13 12 10 9 9 7 5 4 2 1 0 -1 -1 -2 -2 -3 -3 -4 -4 -5 -5 -6 -6 -6 -7 -7 -7 -8 -9 -9 -10 -10 -11
8 3 4 5 7 11 15 18 18 17 15 14 12 10 9 8 7 6 4 3 2 0 -0 -1 -2 -2 -3 -3 -4 -4 -5 -5 -5 -6 -6 -6 -7 -7 -7 -7 -8 -9 -10 -11
6 6 7 12 14 12 17 18 17 16 15 14 13 11 8 7 7 5 4 3 2 1 -0 -1 -2 -2 -3 -3 -4 -4 -5 -5 -5 -6 -6 -6 -6 -6 -7 -7 -7 -8 -9 -10

GEFSCGP_850_meantemp_036.txt.gz
Temperature
17 21 19 18 17 17 18 18 18 17 13 12 13 14 14 9 7 8 8 8 7 6 5 3 2 2 1 1 1 0 -0 -1 -1 -1 -1 -2 -3 -4 -5 -6 -7 -7 -8 -9
20 19 16 15 15 16 17 18 18 16 12 12 13 14 14 12 9 8 9 8 7 6 5 2 2 1 1 1 1 0 -1 -1 -2 -2 -2 -3 -4 -5 -6 -7 -7 -8 -9 -9
20 17 14 15 16 17 17 17 17 16 14 12 12 17 14 11 8 8 7 8 8 7 5 3 2 1 1 1 1 -0 -1 -1 -2 -2 -3 -4 -5 -6 -7 -7 -8 -8 -9 -10
17 15 15 16 16 16 18 15 14 14 15 17 14 18 18 13 12 10 8 8 7 6 5 3 2 1 1 1 1 -0 -1 -2 -2 -3 -3 -4 -5 -6 -7 -8 -8 -9 -9 -10
17 15 15 16 15 14 15 13 13 13 14 16 15 17 20 13 15 15 11 9 8 6 5 3 2 1 1 1 0 -1 -1 -2 -3 -3 -4 -4 -6 -6 -7 -8 -9 -9 -10 -10
15 14 14 15 13 13 13 13 13 13 15 18 16 17 19 18 17 16 12 9 7 5 3 2 1 2 2 1 -0 -1 -2 -2 -3 -3 -4 -5 -6 -7 -8 -9 -9 -10 -10 -10
16 15 14 13 15 15 15 18 19 19 19 19 14 15 18 17 15 13 12 9 7 4 3 2 2 2 1 1 -0 -1 -2 -2 -3 -3 -4 -5 -6 -7 -8 -9 -10 -10 -11 -11
19 18 15 14 15 16 15 17 18 18 18 18 15 16 19 15 11 9 8 7 5 3 2 1 2 1 1 0 -1 -1 -2 -3 -3 -4 -4 -5 -7 -7 -8 -9 -10 -11 -11 -11
19 18 13 12 12 14 16 16 15 16 16 15 18 18 18 13 11 9 8 6 5 3 2 1 1 1 1 0 -1 -1 -2 -3 -3 -4 -5 -6 -7 -8 -8 -9 -10 -11 -11 -11
17 17 14 12 12 12 14 15 15 16 16 17 18 18 18 19 18 14 11 8 5 3 1 1 1 1 1 0 -1 -1 -2 -3 -3 -4 -5 -5 -7 -7 -8 -9 -10 -11 -11 -11
14 17 15 14 14 16 13 13 14 15 15 16 17 19 18 18 17 15 13 10 6 3 2 2 1 1 1 -0 -1 -1 -2 -3 -4 -4 -5 -6 -7 -7 -8 -9 -10 -10 -11 -11
13 16 18 16 12 12 14 15 15 16 16 14 15 18 18 15 14 12 11 9 6 4 2 2 1 1 0 -0 -1 -2 -3 -3 -4 -4 -5 -6 -7 -8 -8 -9 -9 -10 -11 -11
11 15 18 17 14 12 12 12 13 14 15 14 15 18 17 13 12 11 9 8 5 3 2 1 1 1 0 -0 -1 -2 -3 -3 -4 -4 -5 -6 -7 -8 -8 -9 -9 -10 -11 -11
10 14 17 19 18 16 14 12 11 13 15 15 14 17 19 18 17 14 11 8 5 3 2 2 1 1 0 -1 -1 -2 -3 -3 -4 -5 -5 -6 -7 -7 -8 -8 -9 -10 -10 -11
10 13 14 14 13 12 13 13 11 12 15 15 17 16 17 18 17 14 10 7 4 2 1 2 2 1 0 -1 -1 -2 -3 -3 -4 -5 -5 -6 -7 -7 -8 -8 -9 -9 -10 -11
9 12 12 13 11 10 10 11 11 11 12 13 14 14 16 16 13 10 8 6 4 3 3 2 2 1 0 -0 -1 -2 -3 -3 -4 -5 -5 -6 -6 -7 -8 -8 -9 -9 -10 -10
9 11 13 15 12 11 14 14 11 10 11 12 13 16 17 13 12 11 9 7 7 6 4 3 3 2 1 -0 -1 -2 -3 -3 -4 -5 -5 -6 -6 -7 -8 -8 -9 -9 -9 -10
10 11 13 13 14 14 19 13 12 11 12 11 12 14 14 13 11 10 10 8 8 7 5 4 3 1 0 -1 -1 -2 -3 -3 -4 -5 -5 -6 -6 -7 -7 -8 -8 -9 -9 -10
8 11 12 11 13 16 17 11 10 11 14 14 12 13 13 9 7 11 13 12 10 8 6 5 3 1 0 -1 -1 -2 -2 -3 -4 -5 -5 -6 -6 -7 -7 -7 -8 -8 -9 -9
6 9 11 9 12 15 18 12 9 12 14 15 12 13 12 6 12 15 12 11 9 7 5 4 2 1 0 -1 -1 -2 -2 -3 -4 -4 -5 -6 -6 -6 -7 -7 -7 -8 -8 -9
7 8 9 9 11 14 15 8 10 15 18 18 15 14 12 9 13 13 11 10 9 7 5 3 2 1 0 -1 -1 -2 -2 -3 -4 -4 -5 -5 -6 -6 -6 -7 -7 -7 -8 -8
10 9 9 10 11 13 11 9 13 18 18 17 17 16 14 14 13 12 11 9 8 7 5 3 2 1 -0 -1 -1 -2 -2 -3 -4 -4 -5 -5 -6 -6 -6 -6 -6 -7 -7 -8
11 12 12 12 15 15 11 14 16 17 17 18 17 16 15 13 13 12 11 9 8 6 5 3 2 1 -0 -1 -1 -2 -2 -3 -3 -4 -5 -5 -5 -5 -5 -6 -6 -6 -7 -8
10 9 10 10 12 12 12 14 16 17 17 18 17 16 15 14 14 12 11 9 8 6 5 3 2 1 0 -1 -1 -2 -2 -3 -3 -4 -4 -5 -5 -5 -5 -5 -5 -6 -6 -8
13 8 9 11 13 12 14 17 19 19 18 18 18 17 16 15 14 13 11 10 8 7 5 3 2 1 1 -0 -1 -2 -2 -3 -3 -4 -4 -4 -5 -4 -5 -5 -5 -6 -6 -7
10 9 11 15 16 14 17 19 18 18 18 18 17 17 16 15 14 13 12 10 8 7 6 4 3 1 0 -1 -1 -2 -2 -3 -3 -4 -4 -4 -4 -4 -4 -4 -5 -5 -6 -6

GEFSCGP_850_meantemp_042.txt.gz
Temperature
22 21 19 19 19 19 20 20 20 19 16 15 15 15 16 13 12 12 12 12 11 11 10 9 8 6 5 4 3 2 2 2 2 2 2 1 1 0 -1 -1 -3 -4 -4 -6
21 20 19 19 19 19 19 19 20 18 15 15 15 15 17 16 12 12 12 13 13 12 11 10 8 7 5 4 3 2 2 2 2 2 1 1 0 -0 -1 -3 -4 -4 -5 -6
21 18 18 18 19 19 20 19 18 17 18 16 15 16 16 16 15 13 13 13 13 13 12 11 9 7 5 4 3 2 1 2 2 2 1 1 -0 -1 -2 -3 -3 -4 -6 -7
20 18 18 18 19 18 19 17 17 16 15 17 17 16 16 15 13 13 13 13 13 13 12 11 10 8 6 4 3 2 2 2 2 1 1 0 -1 -1 -2 -3 -4 -5 -6 -7
19 18 18 18 18 17 18 16 16 16 16 16 17 16 17 16 15 14 14 14 14 13 13 12 10 8 6 4 3 2 2 2 1 1 1 -0 -1 -2 -2 -3 -4 -5 -6 -7
18 17 18 18 17 16 16 16 16 15 15 16 18 18 18 17 18 18 16 16 15 14 13 11 10 8 6 4 3 2 2 1 1 1 0 -0 -1 -2 -3 -4 -5 -5 -6 -7
17 17 17 16 16 16 15 16 16 16 15 18 18 17 17 19 19 19 18 17 15 14 13 11 9 7 5 4 3 2 1 1 1 1 -0 -1 -1 -2 -3 -4 -5 -6 -6 -7
20 18 16 16 17 16 18 17 17 17 18 18 16 16 18 18 19 18 17 16 15 14 12 11 9 7 5 4 3 2 2 1 1 0 -0 -1 -2 -3 -3 -4 -5 -6 -7 -7
19 18 15 16 16 15 17 17 17 16 18 17 17 19 19 17 16 16 15 15 14 13 12 10 8 7 5 3 2 2 1 1 1 0 -0 -1 -2 -3 -3 -4 -5 -6 -7 -8
17 18 16 14 14 14 14 15 15 16 16 15 18 19 18 15 16 15 14 15 15 14 12 10 8 6 4 3 2 1 1 1 1 0 -0 -1 -2 -3 -3 -4 -5 -6 -7 -7
17 17 16 14 14 15 14 15 15 16 16 15 15 17 20 18 19 18 17 17 16 15 13 11 8 6 4 2 1 1 1 1 1 0 -0 -1 -2 -3 -4 -4 -5 -6 -7 -7
16 16 16 16 15 14 16 16 16 15 15 15 13 15 19 19 19 19 18 17 16 15 13 11 8 5 3 2 1 1 1 1 1 0 -1 -1 -2 -3 -3 -4 -5 -6 -7 -7
15 14 16 16 14 13 14 15 16 16 15 14 14 16 19 19 18 18 18 17 15 14 12 10 7 5 3 2 1 1 1 1 1 -0 -1 -1 -2 -3 -4 -4 -5 -6 -6 -7
13 13 14 16 16 15 14 14 14 14 13 13 14 15 18 17 17 18 18 17 15 14 12 10 7 5 3 2 1 1 1 1 0 -0 -1 -1 -2 -3 -3 -4 -5 -5 -6 -7
12 12 14 15 16 16 15 15 14 13 14 14 15 16 17 17 17 18 18 17 15 14 12 10 8 5 3 2 1 1 1 1 1 -0 -1 -1 -2 -3 -3 -4 -4 -5 -6 -7
11 12 14 14 15 15 14 14 14 14 14 14 15 15 16 18 18 18 17 16 15 14 12 11 8 6 4 3 2 1 1 1 1 0 -1 -1 -2 -3 -3 -4 -4 -5 -5 -6
11 11 12 12 15 14 13 14 13 13 13 13 13 14 15 16 16 17 17 16 15 15 13 12 10 8 5 4 3 2 2 1 1 -0 -1 -1 -2 -3 -3 -4 -4 -4 -5 -6
11 12 12 12 14 12 15 16 16 14 14 13 13 14 14 15 17 17 17 16 16 15 14 13 11 9 6 4 3 2 2 1 1 -0 -1 -1 -2 -2 -3 -3 -4 -4 -5 -6
10 11 12 11 11 12 15 15 14 13 13 14 13 14 14 16 14 15 18 17 17 15 14 13 11 9 7 5 3 2 2 1 1 0 -1 -1 -2 -2 -3 -3 -3 -4 -5 -5
8 9 10 10 9 11 15 14 14 14 12 15 15 13 15 14 11 14 18 17 16 15 13 12 11 9 7 5 4 3 2 1 1 0 -0 -1 -2 -2 -3 -3 -3 -4 -4 -5
7 8 8 8 8 11 14 12 12 13 15 19 18 18 17 13 14 17 17 16 15 14 13 11 10 9 8 6 4 3 2 2 1 0 -1 -1 -2 -2 -3 -3 -4 -4 -4 -5
8 7 8 8 8 10 12 11 12 15 18 19 19 19 18 17 17 17 16 16 15 14 12 11 9 8 7 6 4 3 3 2 1 -0 -1 -1 -2 -2 -3 -3 -3 -4 -4 -5
11 12 11 11 12 15 14 14 16 17 16 17 18 18 17 16 17 17 17 16 15 14 12 10 9 7 6 5 5 4 3 2 1 -0 -1 -1 -2 -2 -3 -3 -3 -4 -4 -5
13 13 13 12 12 15 15 16 16 17 17 17 17 17 17 16 17 17 16 16 15 14 12 10 8 7 6 5 5 4 3 2 1 -0 -1 -1 -2 -2 -3 -3 -4 -4 -4 -5
14 11 10 11 12 15 16 17 17 18 18 17 17 17 17 16 16 16 16 15 14 13 12 10 8 7 7 6 5 4 2 2 1 -0 -1 -1 -2 -2 -3 -3 -4 -4 -4 -5
13 12 11 13 14 13 15 17 17 17 17 17 16 16 16 16 15 15 15 14 13 12 11 10 9 7 6 5 5 4 3 2 1 -0 -1 -1 -2 -2 -3 -3 -4 -4 -4 -5

GEFSCGP_850_meantemp_048.txt.gz
Temperature
18 15 14 14 14 16 16 16 16 15 13 11 10 11 12 13 10 10 11 12 12 13 14 12 11 10 9 8 8 7 7 6 5 5 4 4 3 2 1 1 0 -0 -1 -2
15 15 16 16 16 16 16 16 16 15 13 12 11 11 12 12 10 11 11 12 13 14 13 13 12 10 10 9 9 8 7 6 6 5 4 4 3 2 2 1 0 -0 -1 -2
17 16 17 17 17 17 16 16 15 15 14 13 12 12 13 13 12 12 13 14 15 15 15 14 13 12 11 10 10 9 8 7 6 5 4 3 3 2 2 1 0 -1 -1 -2
17 16 16 16 16 16 15 15 15 15 13 11 13 12 13 13 12 11 13 14 15 16 15 15 14 13 13 12 11 10 8 7 6 5 4 3 3 2 2 1 0 -1 -1 -2
16 15 15 15 16 16 15 15 14 14 13 11 11 12 13 13 12 12 13 16 18 18 17 16 16 15 14 13 11 10 9 7 6 5 4 3 3 2 1 1 0 -1 -1 -2
15 16 15 15 15 15 14 14 13 10 10 11 11 11 12 11 12 14 14 18 20 19 18 17 16 15 14 13 12 10 9 7 6 5 4 3 3 2 1 1 -0 -1 -1 -2
16 15 15 15 15 14 14 13 13 13 11 12 12 12 13 13 12 13 16 20 20 20 19 18 17 15 15 14 12 11 9 8 6 5 4 3 3 2 1 1 -0 -1 -1 -2
15 14 14 14 14 13 12 13 13 14 12 12 13 12 14 14 14 16 18 20 20 20 19 18 17 16 15 14 13 11 10 8 7 5 4 3 2 2 1 0 -0 -1 -2 -2
14 14 14 14 14 14 14 12 11 11 12 11 11 11 12 14 14 14 16 17 19 19 19 18 18 16 15 14 13 12 11 9 7 5 4 3 2 2 1 0 -1 -1 -2 -3
15 14 14 13 13 13 13 12 10 11 12 11 11 11 13 15 14 13 12 15 19 19 19 18 17 17 16 14 13 11 10 8 7 5 4 3 2 2 1 -0 -1 -1 -2 -3
14 13 13 12 11 12 11 12 11 10 10 10 11 13 13 14 14 13 14 17 19 20 19 19 18 17 16 14 13 11 10 8 6 5 4 3 2 1 1 -0 -1 -2 -2 -3
13 11 11 12 12 11 11 11 10 11 11 9 8 13 14 12 12 13 15 18 19 20 19 18 18 17 16 14 13 12 10 8 6 5 3 3 2 1 0 -0 -1 -2 -2 -3
12 11 12 13 13 12 12 11 10 11 10 9 9 14 14 13 14 15 16 17 19 19 19 18 17 17 16 15 13 12 10 8 6 5 3 2 2 1 0 -0 -1 -2 -2 -3
12 10 11 13 14 13 12 12 11 11 10 9 10 14 16 15 14 15 18 18 18 18 18 18 17 17 16 15 13 12 10 8 6 4 3 2 2 1 0 -1 -1 -2 -2 -3
10 9 9 10 11 11 11 12 11 11 12 12 14 14 16 17 14 15 17 17 17 17 18 17 17 17 16 15 14 12 10 8 6 4 3 2 2 1 -0 -1 -1 -2 -2 -3
8 9 9 10 11 10 10 11 12 12 12 12 13 14 16 16 15 14 15 16 16 17 17 17 17 16 16 15 14 13 11 9 7 5 4 3 2 1 -0 -1 -2 -2 -2 -3
7 7 8 8 10 10 10 12 13 11 10 11 12 14 14 13 12 13 15 16 16 17 17 17 17 16 16 15 14 13 12 10 7 5 4 2 1 1 -0 -1 -2 -2 -2 -3
7 7 7 7 10 10 13 13 12 12 12 11 12 13 13 12 14 15 16 16 17 17 17 17 16 16 15 15 14 13 11 9 7 6 4 3 2 1 -0 -1 -1 -2 -3 -3
7 8 8 6 7 9 10 12 12 11 12 12 12 13 13 13 12 15 18 18 17 17 17 16 15 15 14 14 13 12 11 9 8 6 4 3 2 1 -0 -1 -1 -2 -3 -3
6 7 7 6 6 8 12 13 13 13 12 14 12 12 12 11 11 14 18 17 17 16 16 15 15 14 14 14 12 11 11 9 8 7 5 4 2 1 -0 -1 -1 -2 -3 -3
6 6 5 6 6 8 10 12 13 13 14 15 15 14 13 11 13 16 16 16 16 15 15 14 14 14 14 13 12 11 10 9 9 7 5 3 2 1 -0 -1 -2 -2 -3 -3
6 5 4 5 5 8 10 10 11 13 15 15 15 15 15 14 15 15 15 15 15 14 14 13 13 13 13 12 11 10 10 9 8 6 4 3 2 0 -0 -1 -2 -2 -2 -3
6 7 7 7 10 12 12 12 14 14 14 15 14 14 14 14 14 14 14 14 13 13 13 13 12 12 12 12 11 10 10 8 6 5 4 3 1 0 -1 -1 -2 -2 -2 -3
7 7 7 7 7 10 12 13 14 14 13 13 13 13 13 13 13 13 13 12 12 12 12 12 12 11 12 11 11 10 8 7 5 4 3 2 1 0 -1 -1 -2 -2 -2 -2
9 9 8 8 8 10 12 13 13 13 12 12 12 12 12 11 11 11 11 11 11 11 11 11 11 11 11 10 10 9 8 6 5 3 2 2 1 0 -1 -1 -1 -2 -2 -2
8 8 8 9 10 10 11 11 11 11 11 10 10 10 10 10 10 10 10 10 9 10 10 10 10 10 10 10 9 8 7 6 4 2 1 1 0 -0 -1 -1 -2 -2 -3 -3

GEFSCGP_850_meantemp_054.txt.gz
Temperature
16 14 13 13 12 14 15 14 13 12 12 9 9 10 12 13 11 10 11 14 15 17 18 16 15 14 13 13 12 11 10 10 8 8 7 6 6 6 5 4 4 3 3 2
14 13 13 14 13 13 14 13 12 12 11 10 9 10 12 11 11 12 12 14 17 18 18 17 16 15 14 14 13 13 12 11 10 9 8 7 6 5 5 4 3 3 3 2
15 15 15 14 14 14 14 13 13 13 13 11 10 11 11 11 11 11 13 15 17 18 19 19 18 17 16 15 15 15 14 13 12 10 8 6 5 5 5 4 4 4 3 2
14 13 15 15 14 14 12 13 13 13 12 10 11 11 13 12 11 11 13 15 19 20 20 20 19 18 17 17 17 16 15 14 13 11 9 8 7 7 7 6 4 3 2 2
14 15 14 14 14 13 13 13 13 12 11 10 9 10 12 11 12 13 14 18 20 21 21 21 20 19 19 18 17 16 15 14 13 12 11 9 8 7 6 5 4 3 3 2
13 14 14 13 13 13 13 12 10 8 8 10 10 9 11 11 13 14 14 18 20 21 21 21 21 20 19 18 18 17 16 15 14 13 12 10 9 8 6 5 4 3 3 2
13 13 14 14 13 13 13 12 11 12 11 11 10 9 11 13 12 12 13 17 18 19 20 21 21 20 20 19 18 18 17 16 15 14 13 12 10 8 7 6 4 3 3 2
13 13 14 13 13 13 12 12 12 13 11 10 10 9 12 13 13 14 15 16 19 20 20 21 21 20 20 19 19 18 17 17 16 15 14 13 11 9 7 6 5 4 3 2
13 13 13 13 12 12 11 10 11 10 10 9 9 10 11 13 14 14 15 17 19 20 20 20 20 20 20 19 19 18 17 17 16 15 14 13 12 10 8 7 5 4 3 2
13 13 13 12 12 12 12 10 8 10 11 10 10 10 12 14 15 14 13 16 18 19 20 20 20 20 19 19 18 18 17 17 16 15 14 13 12 11 9 7 5 4 3 2
12 13 12 12 11 11 10 10 10 8 8 9 9 11 12 13 13 13 13 16 18 19 19 19 19 19 19 18 18 18 17 17 16 15 14 13 12 11 9 7 5 4 3 2
11 9 10 11 11 10 10 10 9 10 10 7 7 11 13 12 12 12 13 16 18 18 18 17 17 17 17 18 18 17 17 17 16 15 14 13 12 10 9 7 5 4 2 1
10 10 11 12 12 10 10 9 8 9 9 7 7 12 13 12 12 15 15 16 16 16 16 16 16 16 16 17 17 17 16 16 15 15 14 13 12 10 9 8 6 4 2 1
10 9 11 12 12 12 11 10 8 9 9 8 9 12 14 14 14 15 15 15 15 15 15 15 15 16 16 16 16 16 16 15 15 14 14 13 12 11 9 7 5 4 2 1
9 9 8 9 10 9 9 10 10 9 10 10 12 13 14 15 14 14 14 14 13 14 14 15 15 15 15 15 15 15 15 15 14 14 14 13 12 10 9 7 5 3 2 1
7 8 8 8 9 8 8 9 10 10 10 10 11 12 13 13 13 12 12 12 12 13 14 14 14 14 15 15 15 15 15 14 14 14 13 13 11 10 8 6 4 3 1 1
6 6 7 7 9 8 8 9 10 10 9 10 11 12 11 11 10 11 12 12 13 13 13 13 13 14 14 14 14 14 14 14 13 13 13 12 11 10 8 6 4 2 1 0
6 5 6 5 8 8 11 11 10 10 10 10 10 10 10 10 11 12 12 12 12 12 12 12 13 13 13 13 13 13 13 13 13 12 12 12 10 9 7 5 3 2 1 0
5 6 6 5 5 7 8 9 10 9 9 10 10 10 10 11 10 12 12 11 11 11 11 11 11 11 12 12 12 12 12 12 12 12 11 10 9 8 6 5 3 2 1 0
4 5 5 4 5 6 9 10 11 10 9 11 11 10 10 9 7 9 11 10 10 10 10 10 11 10 11 11 11 11 11 11 11 10 9 9 8 7 6 4 3 1 1 0
4 4 4 4 4 7 8 9 10 9 10 11 11 10 9 8 8 9 9 9 9 9 10 10 10 10 10 10 10 10 10 10 9 9 9 8 8 6 5 3 1 0 -0 -1
6 5 3 3 4 6 8 8 9 10 11 11 10 10 9 9 9 9 9 9 9 9 9 9 9 9 9 9 9 9 9 8 8 8 8 8 7 5 4 2 0 -1 -1 -1
5 6 6 5 8 9 10 10 11 11 10 10 9 9 9 8 8 8 8 8 8 8 8 8 8 8 8 8 7 7 7 7 7 8 7 7 5 4 3 1 -1 -2 -2 -2
6 6 5 5 6 8 9 10 10 10 10 9 9 8 8 7 7 7 7 7 7 7 7 7 7 7 7 7 7 6 6 6 7 7 7 6 4 3 1 -0 -1 -2 -2 -2
6 6 5 6 7 8 8 9 9 9 8 8 8 7 7 6 6 6 6 6 6 6 6 6 6 6 6 6 6 6 5 5 6 6 6 5 3 2 0 -1 -1 -2 -2 -2
6 6 6 7 8 7 8 8 8 7 7 7 6 6 6 6 5 5 5 5 5 5 5 5 5 5 5 5 5 5 4 4 5 5 5 4 2 1 -1 -2 -3 -3 -4 -3

GEFSCGP_850_meantemp_060.txt.gz
Temperature
17 19 20 20 20 19 19 19 19 20 19 15 17 19 20 21 20 19 18 18 18 17 17 16 16 17 17 16 15 15 14 13 12 11 11 10 10 10 9 8 8 7 7 6
19 19 20 18 16 16 17 18 19 20 16 15 17 18 20 20 19 19 18 18 17 17 16 15 15 16 17 17 16 16 15 14 13 13 13 12 11 10 10 9 9 8 7 6
19 19 16 16 17 17 18 18 19 18 18 16 15 19 21 22 20 18 17 16 16 15 15 15 14 16 17 17 17 17 16 15 15 14 13 11 10 10 10 10 10 9 8 7
18 17 15 16 17 17 18 17 16 15 16 18 16 18 21 22 21 21 20 19 18 16 15 15 15 16 17 18 17 17 16 16 15 14 13 13 13 13 13 12 11 10 9 8
19 17 16 17 17 16 17 15 15 15 16 16 17 17 20 22 22 22 21 20 18 17 16 16 17 17 18 18 18 17 17 16 16 15 15 14 13 14 12 11 11 11 10 9
17 15 16 16 15 14 15 15 14 14 16 17 17 17 20 23 22 21 21 19 18 17 16 17 17 18 18 18 18 17 17 17 16 16 15 15 15 14 13 12 12 11 11 10
18 17 15 14 15 15 15 17 19 19 19 19 15 15 19 22 21 19 18 18 17 17 16 16 16 17 17 18 18 18 18 17 17 16 16 16 16 15 14 13 12 12 11 11
18 19 16 15 16 17 16 17 18 18 19 19 16 16 20 21 19 18 17 17 17 17 16 15 16 16 17 17 17 17 17 17 17 17 16 16 16 15 14 14 12 12 12 11
18 18 15 14 14 15 16 16 16 17 17 16 17 17 18 20 21 20 19 18 17 16 15 15 15 15 16 16 17 17 17 17 17 16 16 16 15 15 15 14 13 12 11 11
17 17 16 14 13 13 14 15 15 16 16 17 18 17 19 21 21 21 19 17 16 15 14 14 14 14 15 15 16 16 16 16 16 15 15 15 15 15 14 14 13 12 11 10
16 17 17 15 15 16 14 14 15 16 16 16 17 18 19 20 20 18 17 16 15 14 13 13 13 14 14 14 15 15 15 15 15 14 14 14 14 14 13 13 13 12 10 9
15 16 17 17 14 13 15 16 16 16 17 15 16 18 20 19 18 16 16 15 14 12 12 12 13 13 13 13 14 14 14 14 14 14 14 14 13 13 13 13 12 11 9 8
14 15 16 17 15 13 13 14 14 15 15 16 15 17 19 18 18 17 15 14 13 12 12 12 12 12 12 12 13 13 13 13 13 13 13 13 13 13 12 12 11 10 9 7
13 15 16 16 17 17 15 14 13 13 14 15 16 17 19 19 18 16 14 13 12 12 11 11 11 11 12 12 12 12 12 12 12 12 12 12 12 12 11 11 10 9 8 7
13 14 15 15 15 15 14 14 14 14 14 15 16 16 17 17 15 13 13 12 11 11 11 10 10 10 11 11 11 11 11 11 11 11 11 11 11 11 10 10 9 8 7 6
12 13 13 13 14 14 13 13 14 14 14 14 15 15 16 14 13 12 12 12 11 11 10 10 10 10 9 9 9 10 10 10 10 10 10 10 10 10 10 9 8 8 7 5
12 12 12 13 13 12 12 14 14 14 14 14 14 15 14 13 12 12 11 11 10 10 10 9 9 9 9 8 8 8 9 9 9 9 9 9 9 9 9 8 8 7 6 5
12 11 11 11 11 10 15 14 13 13 14 14 14 13 12 11 11 11 11 10 10 9 9 8 8 8 8 7 7 7 8 8 8 8 8 8 8 8 8 7 7 6 5 4
9 10 11 10 10 12 14 13 12 12 13 13 12 12 11 10 10 12 11 9 9 8 8 7 7 7 7 7 6 6 7 7 7 7 7 7 7 7 7 6 6 5 4 3
7 9 10 9 8 10 14 12 10 11 12 12 11 11 11 10 10 11 9 8 8 7 7 6 6 6 6 6 6 6 6 5 5 5 6 6 6 6 6 5 5 4 3 2
8 8 8 9 9 12 13 10 10 11 13 11 10 10 10 9 9 8 8 7 7 6 6 6 6 6 6 5 5 5 5 4 4 4 5 5 5 5 5 5 4 3 2 1
10 10 9 9 9 10 12 10 12 13 12 10 10 9 8 8 8 7 6 6 6 5 5 5 5 5 5 5 4 4 3 3 3 4 4 4 4 4 4 4 3 3 1 -0
10 11 12 11 12 13 10 11 11 10 9 9 8 8 7 7 6 6 5 5 5 5 5 5 4 4 4 4 3 2 2 2 2 3 3 3 3 3 3 2 2 1 0 -1
10 9 9 10 11 12 11 10 9 9 8 8 7 7 6 6 5 5 4 5 5 5 4 4 4 3 3 3 3 2 2 1 1 1 1 1 1 2 2 2 1 1 -0 -2
9 9 9 9 10 10 10 9 8 8 7 6 6 5 5 4 4 4 4 4 4 4 4 4 3 2 2 2 2 2 1 1 0 0 0 0 0 0 1 1 1 0 -1 -2
8 8 9 9 10 10 9 8 7 6 6 5 5 4 4 4 4 4 3 4 3 3 3 3 2 2 2 1 1 1 0 -0 -1 -1 -1 -1 -1 -1 -0 -0 -0 -0 -1 -2

GEFSCGP_850_meantemp_066.txt.gz
Temperature
20 19 18 20 20 19 19 18 18 19 20 19 18 18 19 20 21 21 21 20 20 20 20 20 19 18 17 16 15 14 13 12 12 11 11 11 12 12 11 11 11 10 10 10
20 19 20 20 20 19 18 18 18 19 20 19 17 18 19 20 21 21 20 20 19 19 18 19 19 18 17 16 15 14 13 13 12 12 13 13 12 12 12 11 10 10 10 10
19 20 20 20 19 19 18 18 18 18 17 18 18 17 21 20 21 21 20 19 18 18 18 17 17 17 17 16 15 14 13 12 12 12 11 11 10 10 10 10 11 11 10 10
20 20 19 18 18 19 18 18 17 17 16 16 18 15 18 20 19 19 19 19 18 18 17 17 17 16 16 16 15 14 13 12 12 11 11 11 11 11 13 12 12 11 10 10
19 20 18 18 19 18 18 17 16 16 15 15 17 16 18 21 19 19 18 19 18 17 17 17 16 16 15 15 14 14 13 12 11 10 10 10 10 11 11 10 10 10 9 9
18 19 18 18 18 17 17 16 16 16 15 15 18 18 18 20 20 19 18 19 18 17 16 16 15 15 15 14 14 13 12 12 11 10 9 9 9 9 9 8 8 8 8 8
20 18 18 17 17 17 16 16 16 16 15 16 18 18 17 21 20 19 18 18 17 16 15 15 14 14 14 13 13 13 12 12 11 10 9 9 9 8 8 8 7 7 7 7
19 18 17 17 17 17 18 17 16 16 17 17 18 16 18 21 20 20 19 18 16 15 15 14 14 13 13 13 13 13 12 12 11 10 10 9 9 8 8 8 7 7 6 6
19 19 17 17 17 17 17 17 17 16 16 15 17 19 20 21 20 19 18 17 16 15 14 14 13 13 13 13 12 12 12 12 12 11 11 10 10 9 9 8 7 7 7 6
18 18 18 15 15 15 16 15 15 15 15 15 17 18 18 19 19 18 16 16 15 14 14 13 13 13 12 12 12 12 12 12 12 12 11 11 11 10 10 9 8 8 8 7
18 17 17 15 15 16 14 15 15 15 15 14 14 16 19 19 18 17 16 15 14 14 13 13 13 12 12 12 12 12 12 11 11 11 11 11 11 10 10 9 9 9 8 7
18 16 16 17 17 17 17 17 16 14 15 15 14 15 20 19 18 16 16 15 14 13 13 13 12 12 11 11 11 11 11 11 11 10 10 10 10 10 9 9 9 8 8 8
17 15 15 16 15 15 16 16 16 15 14 13 13 14 18 18 17 17 15 14 14 13 13 12 12 11 11 11 10 10 10 10 9 9 9 9 9 9 8 8 8 8 8 7
15 14 14 14 15 15 15 16 16 14 13 13 13 15 16 16 15 14 14 14 13 13 12 12 11 11 10 10 10 9 9 9 8 8 8 8 8 7 7 7 7 7 7 7
14 13 14 14 15 15 15 14 14 14 14 13 14 14 15 15 13 14 13 13 12 12 12 11 10 10 10 9 9 8 8 8 8 7 7 7 7 6 6 6 6 6 6 6
13 13 13 13 14 14 14 14 14 14 14 14 14 14 15 14 14 13 12 12 12 12 11 10 10 9 9 8 8 7 7 7 7 7 7 6 6 6 6 5 5 5 6 5
13 12 12 11 13 12 12 14 14 14 15 14 13 13 13 12 12 12 12 11 11 10 10 9 9 8 8 7 7 7 6 6 6 6 6 5 5 5 5 5 5 5 5 4
12 12 11 10 11 9 12 15 15 14 14 13 13 13 12 12 12 11 11 11 10 9 9 8 8 7 7 7 6 6 6 6 5 5 5 4 4 4 4 4 4 4 3 3
11 11 11 9 9 10 13 14 14 13 13 13 12 12 12 11 11 11 11 10 9 8 8 7 7 7 6 6 5 5 5 5 5 4 4 4 3 3 3 3 2 2 2 2
9 10 9 9 8 8 13 12 12 12 11 12 11 11 11 10 7 8 9 8 8 7 7 7 6 6 6 5 5 4 4 4 4 3 3 3 2 2 1 1 1 1 1 1
8 8 8 8 8 10 13 12 12 11 10 11 11 10 10 8 7 8 8 7 7 6 6 6 6 5 5 5 4 4 3 3 3 2 2 2 1 1 0 0 0 -0 -0 -0
10 9 8 8 8 9 12 12 11 11 11 11 10 9 8 8 7 7 7 6 6 6 5 5 5 5 4 4 3 3 3 2 2 1 1 1 0 -0 -1 -1 -1 -1 -1 -1
11 11 11 11 10 13 13 12 12 11 10 9 8 8 7 7 6 6 5 5 5 5 5 4 4 4 4 3 3 2 2 1 1 0 0 -0 -1 -1 -1 -1 -2 -2 -2 -2
11 12 11 10 11 12 12 11 10 9 8 8 7 7 6 6 5 5 4 4 4 4 4 4 3 3 3 2 2 1 1 0 -0 -0 -1 -1 -1 -2 -2 -2 -2 -2 -2 -2
10 10 9 9 9 11 11 9 8 7 7 6 6 6 5 5 4 4 4 4 4 3 3 3 2 2 2 1 1 1 0 -0 -1 -1 -2 -2 -2 -2 -2 -2 -3 -3 -3 -3
8 8 8 8 9 7 8 7 7 6 6 5 5 5 4 4 4 3 3 3 3 3 2 2 2 1 1 1 0 -0 -1 -1 -2 -2 -2 -3 -3 -3 -3 -3 -3 -3 -3 -3

GEFSCGP_850_meantemp_072.txt.gz
Temperature
16 14 14 14 14 15 16 15 14 14 15 15 14 14 15 16 16 16 16 17 17 18 18 19 19 19 18 18 17 17 16 15 14 13 12 12 11 11 11 10 10 9 9 9
14 14 14 15 15 15 16 15 14 14 15 15 14 13 13 15 16 16 16 16 17 17 18 18 18 18 18 17 17 16 16 15 14 14 13 13 12 11 11 10 9 9 9 8
14 15 16 16 17 16 16 15 14 14 13 13 14 14 14 15 15 16 16 16 16 16 16 17 17 17 17 16 16 15 15 15 14 14 13 12 11 11 10 10 10 10 9 8
14 14 16 16 16 16 15 15 15 15 13 12 13 13 13 15 15 14 15 15 16 16 16 16 16 16 16 15 15 15 14 14 13 13 12 12 11 11 11 11 10 10 9 8
15 16 17 16 16 16 15 15 14 14 13 12 12 12 12 14 14 14 14 14 15 15 15 15 15 15 15 15 15 14 14 13 13 12 12 11 11 11 10 10 9 9 9 8
14 16 17 16 16 16 15 14 13 11 10 12 13 12 13 12 13 13 13 14 14 14 14 14 14 14 14 14 14 13 13 13 12 11 11 11 10 10 9 9 9 9 8 8
15 16 16 16 16 15 14 13 12 13 12 13 13 13 13 14 13 13 13 14 14 14 14 13 13 13 13 13 13 13 12 12 12 11 11 10 10 9 9 9 8 8 8 8
15 15 15 15 15 15 15 13 13 13 12 11 12 13 13 13 13 14 14 14 14 13 13 13 13 12 12 12 12 12 12 11 11 11 10 10 10 9 9 9 8 8 8 8
14 15 15 15 15 15 15 13 12 11 12 11 11 12 13 13 12 12 13 13 13 13 13 13 12 12 12 12 11 11 11 11 10 10 10 9 9 9 9 8 8 8 8 7
15 15 15 14 15 14 14 12 11 12 12 11 11 11 12 14 13 12 12 12 13 13 13 12 12 11 11 11 11 10 10 10 10 9 9 9 8 8 8 8 8 7 7 7
16 14 14 14 13 14 13 13 12 10 10 10 10 11 13 13 12 12 12 13 13 12 12 12 11 11 11 10 10 10 10 9 9 9 8 8 8 7 7 7 7 7 6 6
13 11 12 12 13 13 12 12 11 11 11 9 9 11 12 11 12 12 12 12 12 12 12 11 11 10 10 10 9 9 9 8 8 8 8 7 7 7 7 6 6 6 6 5
13 11 12 12 13 13 13 13 12 11 10 8 9 11 12 11 11 12 12 12 11 11 11 10 10 9 9 9 9 8 8 8 7 7 7 7 7 6 6 6 5 5 5 5
12 11 11 12 12 13 12 12 12 11 9 8 9 11 12 11 11 11 11 11 11 10 10 9 9 9 8 8 8 7 7 7 7 7 6 6 6 6 5 5 5 4 4 4
11 11 11 11 11 11 11 11 11 10 9 9 10 10 11 11 10 10 10 10 10 9 9 8 8 8 8 7 7 7 6 6 6 6 6 5 5 5 5 4 4 4 3 3
10 10 11 11 11 10 10 10 10 10 9 9 10 10 10 10 10 10 10 9 9 8 8 8 7 7 7 6 6 6 6 6 5 5 5 5 4 4 4 4 3 3 3 2
9 9 9 8 9 9 8 9 9 9 9 9 9 9 9 9 9 9 9 8 8 7 7 7 6 6 6 6 5 5 5 5 5 4 4 4 3 3 3 3 2 2 2 1
8 8 7 7 8 8 10 10 10 10 10 9 9 8 8 8 9 9 8 8 7 7 6 6 6 5 5 5 5 4 4 4 4 4 3 3 2 2 2 1 1 1 0 -0
8 8 7 6 7 7 8 10 11 11 9 8 8 8 8 8 7 8 8 7 6 6 6 5 5 5 5 4 4 4 4 4 3 3 2 2 1 1 1 0 -0 -0 -1 -1
6 7 6 6 7 7 9 10 11 10 8 8 7 7 7 6 4 5 7 6 6 5 5 4 4 4 4 4 3 3 3 3 2 2 1 1 0 -0 -0 -1 -1 -1 -2 -2
6 6 5 5 6 7 8 9 10 9 8 7 7 7 6 5 5 6 5 5 5 4 4 4 4 3 3 3 3 2 2 2 1 1 0 0 -0 -1 -1 -2 -2 -2 -2 -2
6 5 4 4 5 6 9 9 8 7 7 7 7 6 6 5 5 5 5 4 4 4 3 3 3 3 3 2 2 1 1 1 0 -0 -1 -1 -1 -2 -2 -2 -3 -3 -3 -3
6 7 6 6 7 8 9 8 7 7 7 6 6 5 5 5 4 4 4 4 4 3 3 3 2 2 2 1 1 0 0 -0 -1 -1 -2 -2 -2 -2 -3 -3 -3 -4 -4 -4
6 6 5 5 6 7 7 7 6 6 6 5 5 5 4 4 4 3 3 3 3 3 2 2 1 1 1 1 0 -0 -1 -1 -2 -2 -3 -3 -3 -3 -4 -4 -4 -5 -5 -5
6 6 5 5 6 6 6 6 5 5 5 5 5 4 4 3 3 3 3 2 2 2 1 1 1 0 0 -0 -1 -1 -2 -2 -3 -3 -4 -4 -4 -4 -5 -5 -5 -5 -5 -5
4 5 5 5 6 5 5 5 5 5 5 5 4 4 4 3 3 2 2 2 2 1 1 0 0 -0 -1 -1 -1 -2 -2 -3 -4 -4 -4 -5 -5 -5 -5 -5 -5 -5 -5 -5

GEFSCGP_850_meantemp_078.txt.gz
Temperature
15 13 13 13 12 14 15 14 13 13 13 13 13 12 12 13 13 14 14 15 15 15 16 17 17 17 17 17 16 16 15 14 14 13 13 12 12 11 11 11 10 10 9 9
13 12 13 13 13 13 13 13 13 12 13 13 12 12 12 12 13 13 13 14 15 16 16 16 16 16 16 16 16 15 15 14 13 13 12 11 11 11 11 10 10 10 9 9
14 14 14 13 13 13 13 13 13 14 13 12 12 13 13 13 13 13 13 14 14 15 15 15 15 15 15 15 15 14 14 13 13 12 11 11 11 11 10 10 10 10 9 9
12 12 13 14 14 14 13 13 13 13 12 11 12 12 13 13 13 13 13 14 14 14 15 15 14 14 14 14 13 13 13 13 12 12 11 11 11 10 10 10 9 9 9 8
13 14 14 14 14 13 13 14 13 13 12 11 11 11 11 12 13 12 12 13 14 14 14 14 13 13 13 13 13 12 12 12 12 11 11 11 10 10 10 9 9 9 9 8
13 14 15 15 14 14 13 12 11 9 9 12 12 11 12 11 12 12 12 13 13 13 13 13 13 12 12 12 12 12 12 11 11 11 10 10 10 10 9 9 9 9 8 8
14 14 14 14 14 14 13 13 12 13 12 12 12 10 11 12 11 11 12 13 14 13 13 13 12 12 12 12 11 11 11 11 10 10 10 9 9 9 9 8 8 8 8 8
14 14 14 14 14 13 13 13 13 13 12 11 11 10 11 11 10 11 13 14 13 13 12 12 12 11 11 11 11 10 10 10 10 9 9 9 8 8 8 8 7 7 7 7
12 13 14 13 14 13 12 11 11 10 11 10 10 10 10 11 10 10 12 12 13 12 12 12 11 11 11 10 10 10 9 9 9 8 8 8 8 7 7 7 7 7 7 6
13 14 14 13 13 12 12 10 9 10 12 11 11 10 11 12 11 10 10 12 12 12 11 11 11 10 10 10 9 9 9 8 8 8 7 7 7 7 7 6 6 6 6 6
13 13 13 13 12 12 11 11 10 9 9 10 10 11 11 11 10 10 10 11 12 11 11 10 10 10 9 9 9 8 8 7 7 7 6 6 6 6 6 6 6 6 6 5
11 11 11 12 12 12 11 11 9 11 10 8 8 10 11 9 10 10 11 11 11 11 10 10 10 9 9 8 8 7 7 7 6 6 6 6 6 5 5 5 5 5 5 5
10 11 12 13 12 11 11 10 9 9 8 6 7 10 10 9 9 10 10 10 10 10 10 9 9 9 8 7 7 7 6 6 6 5 5 5 5 5 5 5 5 4 4 4
11 10 11 12 12 11 11 10 9 8 8 7 7 10 10 9 9 9 9 9 9 9 9 8 8 8 7 6 6 6 5 5 5 5 5 5 4 4 4 4 4 4 3 3
11 11 11 11 11 11 11 11 9 8 8 9 9 8 9 9 8 9 9 9 9 8 8 7 7 6 6 5 5 5 5 5 4 4 4 4 4 4 3 3 3 3 3 2
9 10 10 10 10 9 9 9 9 8 8 8 8 8 8 8 8 8 8 8 8 8 7 6 6 5 5 4 4 4 4 4 4 4 4 3 3 3 3 2 2 2 2 1
8 8 9 8 8 9 8 9 9 8 7 7 8 8 7 6 7 8 8 8 7 7 6 5 5 5 4 4 3 3 3 3 3 3 3 3 2 2 2 1 1 1 0 0
7 8 7 7 9 9 10 10 9 8 8 7 7 7 7 7 8 8 8 7 6 6 5 5 4 4 4 3 3 3 3 3 3 2 2 2 1 1 1 0 0 -0 -1 -1
7 7 6 6 7 7 8 8 8 7 7 7 6 6 7 7 6 6 7 6 5 5 4 4 4 4 3 3 3 3 3 2 2 2 1 1 0 0 -0 -1 -1 -1 -2 -2
5 6 6 5 6 7 9 9 9 8 7 6 6 6 6 5 4 5 6 5 5 4 4 4 3 3 3 3 2 2 2 1 1 1 1 0 -0 -1 -1 -2 -2 -2 -3 -3
6 6 6 5 6 7 8 8 8 8 8 7 7 6 6 5 5 5 5 4 4 4 3 3 3 3 3 2 1 1 1 1 0 0 -0 -0 -1 -2 -2 -3 -3 -4 -4 -4
6 5 5 5 5 7 8 7 7 7 7 7 7 6 6 5 5 4 4 4 3 3 3 3 2 2 2 2 1 1 0 0 -0 -0 -1 -1 -2 -2 -3 -3 -4 -4 -5 -5
6 7 6 6 7 7 7 7 7 8 7 6 6 5 5 4 4 4 3 3 3 3 2 2 2 2 2 1 0 -0 -0 -1 -1 -1 -1 -2 -2 -3 -3 -4 -5 -5 -6 -6
5 5 4 4 5 6 6 7 7 7 6 6 5 5 4 4 3 3 3 3 2 2 2 1 1 1 1 1 0 -1 -1 -1 -2 -2 -2 -3 -3 -3 -4 -5 -6 -6 -6 -7
6 4 4 4 4 5 5 6 6 5 5 5 4 4 3 3 3 3 2 2 2 2 1 1 1 0 0 -0 -0 -1 -2 -2 -3 -3 -3 -4 -4 -5 -5 -6 -6 -7 -7 -7
4 4 4 5 5 4 5 6 5 5 4 4 3 3 3 3 2 2 2 2 1 1 1 1 0 -0 -0 -1 -1 -1 -2 -3 -4 -4 -4 -5 -5 -6 -6 -7 -7 -6 -6 -6

GEFSCGP_850_meantemp_084.txt.gz
Temperature
16 19 19 19 19 19 18 18 19 19 17 17 18 18 18 15 16 16 16 15 14 12 13 14 15 15 15 15 15 15 14 14 13 13 12 11 11 11 10 10 10 10 9 9
18 18 19 17 16 16 17 17 18 18 16 16 17 17 17 16 16 15 15 15 14 13 12 13 14 14 14 14 14 14 14 13 13 12 12 11 11 11 11 10 10 10 9 9
18 18 16 16 16 16 17 17 18 18 17 15 16 18 16 16 15 14 14 13 13 13 13 12 13 13 14 13 13 13 13 12 12 12 12 11 11 11 10 10 10 10 9 9
18 17 15 16 17 17 17 17 16 16 17 19 17 19 17 17 16 15 14 14 13 12 12 12 12 13 13 13 12 12 12 12 12 11 11 11 10 10 10 9 9 9 9 9
17 16 15 16 17 16 17 15 15 16 17 17 17 18 19 17 17 16 15 14 13 12 12 12 12 12 12 12 12 12 11 11 11 11 10 10 10 9 9 9 9 8 8 8
17 16 16 17 15 15 15 15 14 15 16 17 17 18 19 17 18 17 16 14 12 12 11 11 12 12 12 11 11 11 11 11 10 10 10 9 9 9 8 8 8 8 8 7
16 16 16 15 15 15 16 17 18 18 18 19 16 16 19 18 18 18 16 14 13 12 11 11 11 11 11 11 11 11 10 10 10 9 9 8 8 8 7 7 7 7 7 7
17 17 16 15 17 17 16 17 18 18 19 19 15 17 19 16 14 14 15 14 12 11 11 11 11 11 11 11 10 10 10 9 9 8 8 8 7 7 7 6 6 6 6 6
17 17 14 14 15 17 16 17 17 18 16 17 18 18 17 14 14 13 13 13 12 11 10 10 10 10 10 10 10 10 9 9 8 8 7 7 7 6 6 6 6 6 6 5
18 17 15 14 14 13 16 16 16 17 17 17 18 18 19 16 15 14 13 13 12 11 10 10 10 10 10 10 9 9 8 8 7 7 7 6 6 6 6 5 5 5 5 5
17 17 15 14 15 16 14 15 16 17 16 17 18 19 17 17 16 15 14 13 12 11 10 9 9 9 9 9 9 8 8 7 7 6 6 6 5 5 5 5 5 4 4 4
16 17 17 16 14 14 16 16 16 17 16 16 17 18 15 15 15 14 13 12 11 10 9 9 9 9 9 8 8 7 7 6 6 6 5 5 5 5 5 4 4 4 4 3
15 16 16 16 14 13 14 14 15 16 16 16 16 18 14 13 13 12 12 11 10 9 9 8 8 8 8 7 7 7 6 6 5 5 5 5 4 4 4 4 4 3 3 3
15 16 17 18 17 16 15 14 13 15 16 16 16 17 15 14 14 12 11 10 9 8 8 8 8 7 7 7 6 6 5 5 5 5 4 4 4 4 3 3 3 3 2 2
14 16 16 16 14 14 15 15 13 14 16 16 17 17 17 16 15 13 11 9 9 8 7 8 7 7 6 6 5 5 5 4 4 4 4 3 3 3 3 3 2 2 2 1
14 15 14 14 12 12 13 14 14 14 15 15 16 16 16 13 12 11 10 9 8 7 7 7 7 6 6 5 5 5 4 4 4 3 3 3 3 2 2 2 2 1 0 -0
13 14 14 15 12 12 14 15 14 14 14 14 14 15 13 11 10 10 9 8 8 7 7 6 6 5 5 5 4 4 4 3 3 3 3 2 2 1 1 1 0 -0 -1 -1
13 14 14 13 12 12 16 13 13 13 13 13 13 12 11 10 9 8 8 7 7 6 6 6 5 5 4 4 4 3 3 3 2 2 2 1 1 1 0 -0 -1 -1 -2 -2
12 13 13 12 13 14 15 12 11 12 13 12 11 10 9 7 7 7 6 6 6 6 5 5 5 4 4 3 3 3 2 2 2 1 1 0 -0 -1 -1 -1 -2 -2 -3 -3
9 11 13 11 11 12 15 11 10 11 12 11 10 9 8 7 10 9 6 6 5 5 5 4 4 4 3 3 2 2 2 1 1 1 0 -0 -1 -1 -2 -2 -2 -3 -3 -4
9 10 11 11 11 13 13 9 10 12 13 9 8 8 7 8 9 7 6 5 5 5 4 4 3 3 3 2 2 1 1 1 0 -0 -0 -1 -1 -2 -2 -3 -3 -4 -4 -5
11 10 11 11 11 12 10 9 11 12 8 8 8 7 7 7 6 6 5 5 4 4 4 3 3 3 2 2 1 1 0 0 -0 -1 -1 -1 -2 -2 -3 -3 -4 -4 -5 -6
11 12 12 12 12 10 8 9 9 8 8 7 7 7 7 6 5 5 4 4 4 4 3 3 2 2 2 1 1 0 -0 -1 -1 -1 -2 -2 -2 -3 -4 -4 -5 -5 -6 -6
9 8 9 9 9 8 7 7 8 8 7 7 7 7 6 5 5 4 4 4 3 3 3 2 2 1 1 1 0 -0 -1 -1 -2 -2 -2 -3 -3 -4 -4 -5 -6 -6 -6 -7
10 8 8 9 8 7 6 6 7 7 7 7 6 6 5 5 4 4 3 3 3 3 2 2 1 1 0 -0 -0 -1 -1 -2 -2 -3 -3 -3 -4 -5 -5 -6 -6 -7 -7 -7
8 8 9 10 9 8 7 6 6 6 6 6 5 4 4 4 3 3 3 3 2 2 2 1 1 0 -0 -1 -1 -1 -2 -2 -3 -3 -4 -4 -5 -5 -6 -6 -7 -7 -7 -7

GEFSCGP_850_meantemp_090.txt.gz
Temperature
19 18 18 19 20 19 19 19 18 20 20 19 18 18 19 19 19 18 18 17 15 14 13 13 13 14 14 14 14 13 13 13 12 12 11 11 10 10 10 10 9 9 9 9
18 17 19 20 20 19 18 18 18 19 19 19 18 18 19 18 18 19 18 16 15 14 13 13 13 13 13 13 13 13 13 12 12 12 11 11 10 10 10 9 9 9 9 9
18 19 19 19 19 18 18 17 18 18 19 18 17 17 18 18 18 18 18 17 15 14 13 12 12 12 13 13 13 13 13 12 12 12 12 11 10 10 9 9 9 9 9 8
19 20 19 18 18 18 17 19 19 18 17 17 17 16 17 16 16 16 17 16 15 14 13 12 12 12 13 13 13 12 12 12 12 12 11 11 10 9 9 9 8 8 8 8
18 18 17 17 18 18 18 18 18 18 17 16 17 16 17 16 15 15 16 16 15 14 13 12 12 12 12 12 12 12 12 12 12 11 11 10 10 9 9 8 8 8 7 7
18 19 18 18 18 18 18 17 17 16 15 15 17 17 17 16 16 15 15 16 15 14 13 12 12 12 12 12 12 12 11 11 11 11 10 10 9 9 8 8 7 7 7 7
17 18 18 18 16 16 16 16 15 15 14 15 19 18 18 18 17 16 16 16 15 14 13 12 11 11 11 11 11 11 11 11 10 10 9 9 8 8 8 7 7 7 7 6
16 17 17 17 16 16 15 16 16 16 17 17 16 17 18 17 18 18 17 16 15 14 13 12 11 11 11 11 11 10 10 10 10 9 9 8 8 7 7 7 6 6 6 6
17 17 17 17 17 17 16 16 17 16 17 17 17 18 15 17 16 17 17 16 15 14 13 12 11 11 11 10 10 10 10 9 9 9 8 8 7 7 7 6 6 6 6 5
18 17 16 15 16 16 16 17 16 15 15 15 18 18 16 14 15 15 15 16 15 14 13 12 11 11 10 10 10 10 9 9 9 8 8 7 7 6 6 6 6 5 5 5
17 17 15 14 14 15 15 16 16 16 17 16 16 17 17 16 15 14 15 16 15 14 13 12 11 10 10 10 9 9 9 8 8 7 7 7 6 6 6 5 5 5 4 4
17 17 16 15 16 16 16 16 16 15 16 16 15 16 17 16 16 16 16 16 15 14 13 12 11 10 9 9 9 8 8 8 7 7 7 6 6 6 5 5 4 4 4 4
16 16 15 15 14 14 15 16 17 16 16 15 15 16 15 16 16 17 16 15 14 14 12 11 10 10 9 9 8 8 8 7 7 6 6 6 5 5 5 4 4 4 3 3
17 16 16 16 16 15 15 15 16 15 14 15 15 17 15 15 15 15 15 15 14 13 12 11 10 9 9 8 8 7 7 7 6 6 6 5 5 4 4 4 3 3 3 2
15 15 16 17 17 17 17 16 15 15 15 15 16 16 17 16 15 15 15 14 13 12 11 10 9 9 8 7 7 7 6 6 6 5 5 5 4 4 3 3 3 2 2 2
14 15 16 16 16 16 15 15 15 15 15 15 15 15 16 16 16 15 14 13 12 11 10 9 9 8 7 7 6 6 6 5 5 5 4 4 3 3 3 2 2 2 1 1
13 14 15 14 15 14 13 14 15 15 15 15 14 15 15 14 14 14 13 13 12 11 10 9 8 7 7 6 6 6 5 5 5 4 4 3 3 2 2 2 1 1 0 -0
14 14 13 13 14 11 15 16 16 16 16 16 15 14 14 13 13 13 12 12 11 10 9 8 7 6 6 6 5 5 5 5 4 4 3 3 2 2 1 1 1 0 -0 -1
13 14 13 12 12 12 15 14 14 14 14 15 15 14 12 11 10 10 11 10 10 9 8 7 6 6 5 5 5 5 4 4 3 3 2 2 1 1 1 0 -0 -1 -1 -2
11 12 12 11 11 11 14 13 14 14 12 14 13 12 10 10 7 8 9 9 8 8 7 6 6 5 5 5 4 4 4 3 3 2 2 1 1 0 -0 -1 -1 -1 -2 -2
9 10 10 10 10 11 13 12 13 11 12 12 13 12 10 9 8 9 8 8 7 7 6 6 5 5 5 4 4 3 3 3 2 1 1 1 0 -0 -1 -1 -2 -2 -2 -3
10 10 10 10 10 10 10 11 11 11 11 12 12 11 10 9 8 8 7 6 6 6 5 5 5 4 4 4 3 3 2 2 1 1 1 0 -0 -1 -1 -2 -2 -2 -3 -3
12 12 12 12 11 12 12 12 12 12 11 11 11 10 9 8 7 7 6 5 5 5 5 4 4 4 4 3 2 2 2 1 1 0 -0 -0 -1 -1 -2 -2 -3 -3 -4 -4
12 12 12 12 12 11 12 11 11 11 10 10 10 9 9 8 7 6 5 5 5 4 4 4 4 3 3 2 2 1 1 0 -0 -1 -1 -1 -2 -2 -2 -3 -3 -4 -4 -5
12 10 10 11 11 11 11 11 10 10 9 9 9 8 8 7 6 5 5 4 4 4 4 3 3 3 2 2 1 1 0 -0 -1 -1 -1 -2 -2 -3 -3 -3 -4 -5 -5 -6
11 10 10 10 11 10 10 10 10 9 8 8 8 7 6 6 6 5 4 4 4 3 3 3 2 2 2 1 1 0 -0 -1 -2 -2 -2 -2 -3 -3 -4 -4 -4 -5 -6 -6

GEFSCGP_850_meantemp_096.txt.gz
Temperature
16 14 13 14 14 15 15 15 15 15 16 16 14 14 15 16 15 13 13 14 14 14 14 14 14 14 14 13 13 13 13 12 12 12 11 11 10 10 10 10 9 9 9 9
13 13 14 15 15 15 15 15 15 15 16 16 15 14 14 14 14 14 13 13 13 13 13 13 13 13 13 13 13 13 13 12 12 12 11 11 10 10 10 10 9 9 9 9
13 14 15 15 15 15 15 15 15 15 15 15 15 14 14 14 14 14 14 14 14 14 13 13 13 13 13 13 13 13 13 12 12 12 12 11 11 10 10 10 9 9 9 8
13 14 16 15 15 15 14 15 15 15 14 13 14 12 13 14 13 12 12 12 13 13 13 13 13 13 13 13 12 12 12 12 12 12 11 11 11 10 10 9 9 8 8 8
13 14 14 15 15 15 15 16 16 16 14 13 12 13 13 13 13 11 10 11 12 13 13 13 13 13 12 12 12 12 12 12 12 11 11 11 10 10 9 9 8 8 8 7
14 15 15 15 16 15 15 15 14 11 11 12 12 11 12 12 12 12 11 11 12 13 13 13 12 12 12 12 12 12 12 12 11 11 11 10 10 10 9 8 8 8 7 7
14 15 15 15 15 15 14 13 12 12 11 11 12 12 13 14 13 13 12 11 12 12 13 12 12 12 12 12 11 11 11 11 11 11 10 10 9 9 9 8 8 7 7 7
13 13 14 14 14 13 13 13 12 12 11 12 13 12 14 14 14 14 14 12 12 12 12 13 13 12 12 12 11 11 11 11 11 10 10 9 9 8 8 7 7 7 6 6
12 13 14 14 14 14 12 12 12 12 12 12 12 13 14 15 13 12 12 12 11 12 12 13 13 12 12 11 11 11 11 10 10 10 9 9 8 8 7 7 7 6 6 5
13 13 14 14 14 14 13 12 11 11 11 11 12 13 14 15 14 12 10 11 11 12 12 13 13 12 12 11 11 10 10 10 10 9 9 8 8 7 7 7 6 6 5 5
13 13 13 13 13 13 13 13 12 11 11 11 12 13 14 14 13 12 11 12 12 12 13 13 13 12 12 11 10 10 10 9 9 9 8 8 7 7 6 6 6 5 5 4
12 11 11 12 13 13 12 12 12 11 11 11 11 12 14 13 13 12 12 13 13 13 13 13 13 12 11 10 10 10 9 9 9 8 8 7 7 6 6 5 5 4 4 4
13 11 11 12 12 12 12 12 12 12 11 10 10 13 14 13 13 13 13 13 13 13 13 12 12 11 11 10 10 9 9 9 8 8 7 7 6 6 5 5 4 4 3 3
13 11 12 12 12 12 12 12 12 12 11 11 11 13 14 14 13 13 14 14 14 13 13 12 12 11 11 10 9 9 8 8 8 7 6 6 6 5 5 4 4 3 3 2
12 12 12 13 14 12 12 13 12 12 12 12 12 12 14 13 12 14 14 14 13 12 12 12 11 11 10 10 9 8 8 8 7 6 6 5 5 5 4 4 3 3 2 2
11 12 12 13 13 13 13 13 12 12 13 12 12 12 13 14 14 13 13 12 12 12 12 12 11 11 10 9 9 8 8 7 6 6 5 5 4 4 3 3 2 2 2 1
10 11 11 11 13 13 12 13 13 12 12 12 13 14 13 12 11 12 13 13 13 13 12 11 11 10 10 9 8 8 7 6 6 5 5 4 4 3 3 2 2 2 1 1
10 10 10 10 11 11 12 13 13 13 13 12 12 12 12 12 13 13 13 13 13 12 12 11 10 10 9 8 8 7 6 6 5 5 4 4 3 3 2 2 1 1 1 0
10 10 9 8 9 10 11 12 12 12 12 12 12 11 11 10 10 11 12 12 13 12 11 11 10 9 8 7 7 6 6 5 5 4 4 3 3 2 2 1 1 0 0 -0
9 9 8 7 9 9 12 13 13 13 12 12 11 9 9 9 9 9 12 12 11 11 10 9 9 8 7 7 6 6 5 5 4 4 3 3 2 2 1 1 0 -0 -1 -1
9 8 8 7 8 9 11 12 12 12 12 13 12 11 10 9 10 12 11 11 10 10 9 8 8 7 6 6 5 5 4 4 3 3 2 2 2 1 1 0 -0 -1 -1 -1
9 8 7 7 8 9 10 10 11 12 12 13 13 13 12 12 11 11 10 10 9 8 8 7 7 6 6 5 5 4 4 3 3 2 2 2 1 1 0 -1 -1 -1 -2 -2
9 10 9 9 10 11 12 12 13 13 13 13 13 13 12 11 11 10 9 8 8 7 7 6 6 5 5 4 4 3 3 2 2 2 1 1 1 0 -1 -1 -2 -2 -2 -3
7 8 8 8 8 10 11 12 13 13 13 13 13 13 12 11 10 9 8 7 7 6 6 5 5 5 4 4 3 3 2 2 1 1 1 0 -0 -1 -1 -2 -2 -3 -3 -3
8 7 7 8 9 9 10 12 12 12 12 12 12 11 11 10 9 8 7 7 6 5 5 4 4 4 3 3 3 2 2 1 1 0 0 -0 -1 -1 -2 -2 -3 -3 -4 -4
7 7 8 9 9 9 11 13 12 12 12 11 11 10 10 9 9 8 7 6 5 5 4 4 3 3 3 2 2 2 1 0 -0 -0 -1 -1 -2 -2 -3 -3 -3 -3 -4 -5

GEFSCGP_850_meantemp_102.txt.gz
Temperature
14 12 12 12 13 14 14 13 13 13 14 14 13 12 14 14 13 13 14 15 15 16 16 15 15 15 15 15 14 14 13 13 12 11 11 11 10 10 10 10 9 9 9 9
12 12 13 13 13 13 13 13 13 12 13 13 12 12 13 12 12 14 14 15 16 15 15 15 15 14 14 14 14 13 13 12 12 11 11 11 10 10 10 9 9 9 9 9
12 13 13 13 13 13 12 12 13 13 13 13 12 12 12 12 13 13 14 15 15 15 15 15 14 14 14 14 13 13 13 12 12 11 11 11 10 10 10 9 9 9 9 8
12 13 13 13 13 12 12 13 13 13 12 11 12 11 12 12 12 11 12 12 14 14 15 15 14 14 14 13 13 13 12 12 12 11 11 11 11 10 10 10 9 9 9 8
11 12 13 13 13 12 13 13 13 13 12 11 11 11 12 12 12 12 11 12 13 14 14 14 14 14 13 13 12 12 12 12 12 11 11 11 11 10 10 9 9 9 8 8
12 12 13 13 13 13 13 12 11 9 10 10 10 10 11 11 13 13 12 12 12 13 13 13 13 13 13 12 12 12 12 12 11 11 11 11 11 10 10 9 9 8 8 8
12 13 13 13 13 13 13 12 11 11 10 10 10 10 11 12 12 12 12 13 12 12 13 13 13 12 12 12 12 12 12 12 11 11 11 11 10 10 9 9 8 8 8 7
10 11 12 12 13 12 11 12 11 11 10 10 10 9 11 12 12 13 13 13 12 12 12 13 13 13 13 12 12 12 12 11 11 11 11 10 10 10 9 9 8 8 7 7
11 11 12 12 13 12 11 11 11 10 10 10 10 10 11 13 13 12 12 11 11 12 12 13 13 12 12 12 12 12 12 11 11 11 10 10 10 9 9 8 8 7 7 6
11 11 12 12 12 12 11 10 9 10 10 10 10 10 12 14 14 12 11 10 11 12 12 12 12 12 12 12 12 11 11 11 11 10 10 10 9 9 8 8 7 7 6 6
11 11 11 11 11 11 10 10 10 9 9 10 10 11 12 12 13 11 11 12 12 13 13 13 13 13 12 12 11 11 11 10 10 10 9 9 9 8 8 7 7 6 6 5
10 10 10 10 11 11 11 10 10 10 9 8 9 11 13 12 11 11 12 13 14 14 13 13 13 12 12 12 11 11 11 10 10 9 9 8 8 8 7 7 6 6 5 5
11 10 10 11 11 10 11 10 10 10 9 7 8 11 12 12 13 13 14 14 15 14 14 13 13 12 12 12 11 11 10 10 9 9 8 8 8 7 7 6 6 5 5 5
11 9 10 11 11 10 10 10 10 10 9 8 8 11 12 13 13 13 15 15 15 15 14 13 13 13 12 12 11 11 10 10 9 9 8 8 7 7 6 6 5 5 4 4
10 10 10 11 11 10 10 11 10 10 10 10 10 10 13 13 13 14 15 15 15 15 14 14 14 13 12 11 11 10 10 9 9 8 8 7 7 6 6 5 5 4 4 4
9 10 9 11 11 10 11 10 10 10 10 10 10 11 12 13 13 13 14 14 14 15 15 14 14 13 12 12 11 10 10 9 8 8 7 7 6 6 5 5 4 4 4 3
8 9 9 9 11 10 10 10 10 9 9 10 11 12 13 12 11 12 14 14 15 15 15 14 14 13 12 12 11 10 9 9 8 7 7 6 6 5 5 4 4 4 3 3
9 9 8 8 10 9 11 11 11 11 10 10 10 11 12 11 13 14 14 14 15 15 14 14 13 13 12 11 10 9 9 8 7 7 6 6 5 5 4 4 4 3 2 2
9 9 7 7 8 8 10 10 10 10 10 10 10 11 11 11 11 12 14 14 14 14 14 13 13 12 11 10 9 9 8 7 7 6 6 5 5 4 4 3 3 2 2 1
7 8 7 6 8 9 11 12 11 11 11 11 10 10 9 9 10 11 14 14 14 13 13 12 12 11 10 9 8 8 7 7 6 6 5 5 4 4 3 3 2 2 1 1
7 7 7 7 8 8 10 10 11 11 12 13 12 11 10 9 11 13 13 13 13 12 12 11 10 10 9 8 7 7 6 6 6 5 5 4 4 3 3 2 2 1 1 0
8 7 6 6 7 8 10 9 10 11 13 13 13 13 12 12 12 12 12 12 12 11 11 10 9 9 8 7 7 6 6 5 5 4 4 4 3 2 2 1 1 1 0 -0
8 9 8 8 10 10 11 12 13 13 13 14 14 14 14 13 12 12 12 11 11 10 10 9 8 7 7 6 6 5 5 4 4 4 3 3 2 2 1 1 0 -0 -1 -1
6 7 6 7 7 8 11 12 13 13 14 14 14 14 14 13 13 12 11 10 10 9 9 8 7 6 6 5 5 5 4 4 3 3 3 2 2 1 1 0 -0 -1 -1 -2
7 5 6 7 7 8 10 12 14 14 13 13 13 13 13 12 12 11 10 10 9 8 7 7 6 6 5 5 4 4 3 3 3 2 2 1 1 0 0 -0 -1 -2 -2 -3
5 6 7 8 8 9 11 14 14 14 13 13 13 12 12 12 11 11 10 9 8 7 7 6 5 5 4 4 4 3 3 2 2 2 1 1 0 -0 -1 -1 -2 -2 -3 -3

GEFSCGP_850_meantemp_108.txt.gz
Temperature
16 18 18 18 19 19 19 18 18 19 18 17 18 19 20 20 19 19 19 19 18 17 17 16 17 17 16 16 15 15 14 13 12 12 11 11 10 10 10 10 10 10 9 9
16 17 19 19 18 17 18 18 18 19 17 17 18 18 20 20 19 19 19 19 18 17 16 16 17 16 16 16 15 15 14 13 13 12 11 11 11 10 10 10 10 10 9 9
17 18 18 17 16 17 17 17 18 18 18 17 16 18 20 20 19 18 17 17 17 17 16 16 16 16 16 15 15 14 14 13 12 12 11 11 10 10 10 10 10 10 9 9
17 17 16 16 17 17 17 17 17 17 17 18 17 17 19 20 20 19 18 17 17 16 15 14 15 16 16 15 15 14 14 13 12 12 11 11 11 10 10 10 10 10 9 9
17 17 16 16 17 17 17 17 16 16 16 17 17 17 19 20 19 20 20 18 16 15 14 14 15 15 15 15 14 14 13 13 12 12 11 11 11 10 10 10 10 10 9 9
17 16 17 17 17 17 16 15 15 15 16 16 17 17 18 20 20 20 20 18 16 14 13 13 13 14 14 14 13 13 13 12 12 12 11 11 11 11 10 10 10 9 9 9
15 15 15 16 15 15 16 16 16 16 16 17 16 16 18 20 20 19 18 17 16 14 13 12 12 13 13 13 13 13 12 12 12 11 11 11 11 10 10 10 10 10 9 9
15 15 15 15 17 16 16 17 16 16 17 17 15 16 19 20 18 17 16 15 14 13 12 12 12 12 13 13 13 13 12 12 12 11 11 11 10 10 10 10 10 9 9 9
16 16 16 15 16 17 16 16 18 17 16 15 17 17 18 19 19 18 17 15 14 13 12 11 11 12 12 13 13 12 12 12 12 11 11 11 10 10 10 10 9 9 9 8
17 16 14 14 14 15 17 17 15 15 15 15 17 17 18 19 20 19 18 17 15 12 12 11 11 12 12 12 12 12 12 12 11 11 11 11 10 10 10 9 9 9 8 8
17 16 13 13 15 15 15 15 16 16 16 16 16 17 19 19 19 18 18 16 15 13 12 12 12 12 12 12 12 12 11 11 11 11 11 10 10 10 9 9 9 8 8 7
17 16 14 14 15 16 16 16 16 16 15 15 16 18 19 18 17 17 16 16 14 14 13 13 12 12 12 12 12 11 11 11 11 11 10 10 10 9 9 9 8 8 7 7
16 15 14 13 13 13 14 16 16 17 16 16 15 17 18 17 17 16 16 16 15 15 14 14 13 13 12 12 12 11 11 11 11 10 10 10 9 9 9 8 8 7 7 7
16 15 15 15 16 15 14 14 15 15 15 16 16 17 18 18 18 18 17 16 16 15 15 14 14 13 13 12 12 11 11 11 11 10 10 9 9 9 8 8 7 7 7 6
15 14 15 16 16 15 15 15 14 15 16 16 17 17 18 18 19 18 17 16 15 14 14 15 15 14 13 13 12 12 11 11 10 10 10 9 9 8 8 7 7 6 6 6
14 14 14 14 14 14 14 15 15 15 16 16 16 16 18 18 18 17 16 16 15 14 15 15 15 14 14 13 13 12 11 11 10 10 9 9 8 8 7 7 6 6 5 5
13 13 13 14 13 12 13 15 15 15 15 16 16 17 18 17 17 16 16 15 15 14 15 15 15 15 14 14 13 12 11 10 10 9 9 8 8 7 7 6 6 5 5 4
13 13 14 13 12 11 15 16 16 15 16 16 16 17 17 17 16 15 15 14 14 14 15 15 15 14 14 13 12 11 10 10 9 9 8 8 7 7 6 6 5 5 4 4
14 13 12 12 12 13 14 13 14 14 15 16 15 16 16 14 13 14 14 14 14 14 14 14 14 14 13 13 12 11 10 9 9 8 8 7 7 6 6 5 5 4 4 3
11 13 12 12 12 12 15 15 13 14 15 17 15 15 15 13 14 16 15 14 14 14 14 14 14 13 13 12 11 10 10 9 8 8 7 7 6 6 5 5 4 4 3 3
10 11 12 12 12 14 15 12 13 14 16 16 15 14 14 13 15 14 14 14 14 14 13 13 13 12 12 11 11 10 9 8 8 7 6 6 5 5 5 4 4 3 3 2
11 11 12 12 12 13 12 11 14 16 15 14 14 13 13 13 13 13 13 13 13 13 13 12 12 12 11 10 10 9 8 7 7 6 6 5 5 4 4 3 3 2 2 1
13 14 14 14 14 15 12 13 15 15 14 14 14 14 14 13 13 13 13 13 12 12 12 12 11 11 10 9 9 8 7 7 6 6 5 5 4 4 3 3 2 2 1 1
11 11 12 12 13 13 12 12 13 14 14 15 15 15 14 14 14 13 13 12 12 12 11 11 10 10 9 8 8 7 6 6 5 5 4 4 4 3 3 2 2 1 1 -0
11 10 11 13 12 11 11 12 13 14 14 14 14 14 14 14 13 13 13 12 12 11 10 10 9 9 8 7 7 6 5 5 4 4 4 3 3 2 2 1 1 0 -0 -1
10 11 12 14 13 13 14 14 14 13 14 14 14 13 13 13 13 13 12 12 11 10 10 9 8 8 7 6 6 5 5 4 4 3 3 3 2 2 1 1 0 -0 -1 -1

GEFSCGP_850_meantemp_114.txt.gz
Temperature
16 16 16 17 18 18 19 19 19 20 20 19 18 18 19 20 21 21 21 22 22 22 21 21 20 19 18 17 16 15 15 14 13 12 12 12 11 11 11 11 10 10 10 10
16 15 17 18 19 18 18 18 18 19 20 19 18 18 19 19 20 21 21 21 21 21 21 21 20 19 18 17 16 15 15 14 13 13 12 12 12 11 11 11 10 10 10 10
16 17 18 18 18 18 18 17 18 18 19 19 18 17 18 20 20 21 21 21 21 21 21 20 19 18 17 16 16 15 15 14 13 13 12 11 11 11 11 10 10 10 10 10
16 18 18 18 18 18 17 18 18 18 17 16 18 16 18 19 19 19 20 21 21 20 20 20 19 18 17 16 16 15 15 14 13 12 12 12 12 11 11 11 11 10 10 10
16 17 17 17 18 18 18 19 18 18 17 16 16 16 17 19 19 19 19 20 20 20 20 19 18 17 17 16 15 14 14 13 13 12 12 12 12 11 11 11 11 10 10 10
17 18 18 18 19 19 18 18 17 17 16 14 16 16 16 18 19 20 19 20 20 19 19 18 17 17 16 15 14 14 13 13 12 12 12 11 11 11 11 11 11 10 10 10
15 17 18 18 17 17 17 16 14 13 13 14 17 16 17 20 20 20 20 20 19 19 18 17 16 16 15 14 14 13 13 12 12 12 11 11 11 11 11 11 11 10 10 10
14 15 17 17 17 16 16 16 14 14 14 16 17 16 18 20 20 20 20 20 19 18 17 17 16 15 14 14 13 13 12 12 12 11 11 11 11 11 11 11 11 11 10 10
15 15 17 17 18 17 16 15 16 16 16 15 16 18 19 19 19 19 19 19 18 18 17 16 15 14 13 13 13 12 12 12 12 11 11 11 11 10 10 10 10 10 10 10
17 16 16 16 17 17 17 16 15 14 13 13 15 16 17 18 18 18 18 18 18 17 16 15 14 14 13 12 12 12 12 12 12 11 11 11 11 10 10 10 10 10 10 10
16 16 15 15 15 15 15 16 16 15 14 14 14 16 19 18 18 18 18 18 18 17 16 15 14 13 12 12 12 11 11 11 11 11 11 11 10 10 10 10 10 10 10 10
16 16 14 15 16 16 16 16 16 14 14 15 14 16 20 19 18 18 18 18 17 17 16 15 14 13 12 12 11 11 11 11 11 11 11 11 10 10 10 10 10 10 10 9
15 14 13 13 13 14 15 16 16 16 15 15 14 16 18 18 17 18 18 18 17 17 16 15 14 13 12 12 12 12 11 11 11 11 11 10 10 10 10 10 10 10 9 9
15 13 13 13 13 14 14 15 16 15 15 14 15 16 17 17 17 17 18 18 18 17 16 15 14 13 13 12 12 12 11 11 11 11 10 10 10 10 10 10 10 9 9 9
14 13 13 15 16 15 15 15 15 15 15 15 15 16 17 17 17 18 19 19 18 17 16 15 15 14 13 12 12 12 11 11 11 10 10 10 10 10 10 9 9 9 8 8
13 13 13 14 15 16 15 15 15 15 16 15 16 16 18 19 19 18 19 18 18 17 16 16 15 14 14 13 12 12 12 11 11 10 10 10 10 9 9 9 9 8 8 8
11 12 12 12 14 14 13 14 15 15 15 15 15 16 17 17 17 17 18 18 18 17 16 16 15 15 14 14 13 12 12 11 10 10 10 9 9 9 9 9 8 8 8 7
10 11 11 11 12 11 13 15 15 15 16 16 16 16 17 17 18 18 18 18 17 17 16 16 15 15 14 14 13 12 11 10 10 9 9 9 9 8 8 8 8 7 7 7
11 11 11 10 10 11 14 15 15 15 15 16 16 16 16 18 17 17 17 17 17 16 16 15 15 15 14 13 13 12 11 10 9 9 9 8 8 7 7 7 7 7 6 6
12 11 10 9 10 11 14 15 16 15 14 16 16 15 15 15 13 14 16 16 16 16 15 15 14 14 14 13 12 11 11 10 10 9 9 8 7 7 7 7 6 6 6 5
10 10 10 9 10 12 15 15 15 13 13 16 16 16 15 13 14 15 16 16 15 15 15 14 14 14 13 12 12 11 10 10 9 9 8 7 7 6 6 6 5 5 5 4
9 9 9 10 10 11 14 14 14 14 16 17 17 17 16 16 16 15 15 15 14 14 14 14 13 13 12 12 11 11 10 9 9 8 7 7 6 6 5 5 5 4 4 4
11 11 11 11 12 14 14 14 16 17 16 16 16 16 16 15 15 14 14 14 13 13 13 13 12 12 11 11 10 10 9 9 8 7 7 6 5 5 4 4 4 4 3 3
11 12 12 12 13 13 14 15 15 16 16 16 16 16 16 15 14 14 13 13 13 12 12 12 12 11 11 10 10 9 9 8 7 7 6 5 5 4 4 3 3 3 3 2
11 11 11 12 12 12 13 15 15 15 15 15 15 15 15 15 14 14 13 13 12 12 12 11 11 11 10 10 9 9 8 7 7 6 5 5 4 4 3 3 3 2 2 2
10 11 11 11 12 12 12 15 15 14 15 15 15 14 14 14 14 13 13 12 12 12 11 11 10 10 10 9 8 8 7 7 6 5 5 4 4 3 3 2 2 2 1 1

GEFSCGP_850_meantemp_120.txt.gz
Temperature
13 11 12 13 13 14 14 14 14 15 16 15 14 15 16 17 16 16 18 19 20 20 21 21 20 20 20 19 18 18 17 16 15 14 13 12 12 12 11 11 11 11 10 10
11 11 13 14 14 14 14 14 14 14 16 15 14 14 15 15 15 17 18 19 20 20 20 20 20 20 20 19 19 18 17 16 15 15 14 13 13 12 11 11 11 10 10 10
11 12 14 14 13 13 13 13 13 14 15 16 15 14 14 15 16 17 18 19 20 20 20 20 20 20 20 19 19 18 18 17 16 15 14 13 12 11 11 11 11 10 10 10
11 13 14 13 13 14 13 14 14 14 14 13 14 12 13 14 15 15 17 18 19 20 20 20 20 20 20 19 19 18 18 17 16 15 14 13 12 12 11 11 11 11 10 10
11 12 13 13 14 14 14 15 14 14 13 12 12 12 12 13 14 15 16 18 19 20 20 20 20 20 20 19 19 18 18 17 16 15 14 13 13 12 12 11 11 10 10 10
11 12 13 13 14 14 14 14 14 12 12 12 12 12 12 13 14 15 16 18 19 20 20 20 20 19 19 19 18 18 17 16 16 15 14 13 13 12 12 11 11 10 10 10
10 12 12 13 13 13 13 12 12 11 10 11 12 12 12 13 14 15 16 17 19 19 19 19 19 19 19 18 18 17 17 16 15 14 14 13 13 12 12 12 11 11 10 10
9 10 12 12 13 12 13 13 11 11 10 11 11 11 13 14 15 16 17 18 18 19 19 19 19 19 18 18 17 17 16 16 15 14 14 13 12 12 12 11 11 11 11 11
10 10 12 12 13 13 12 13 13 11 10 11 11 11 13 14 14 14 15 16 17 18 19 19 19 18 18 17 17 16 16 15 15 14 13 12 12 12 11 11 11 11 10 10
9 9 11 12 13 13 13 13 12 11 10 11 11 11 13 14 14 14 14 14 17 18 18 18 18 18 17 17 16 16 15 15 14 13 13 12 12 11 11 11 11 10 10 10
9 9 10 11 12 12 12 12 12 11 10 10 10 11 13 14 14 14 14 16 17 18 18 18 18 17 17 16 16 15 14 14 13 13 12 12 11 11 11 10 10 10 10 10
8 9 9 10 12 13 12 12 12 11 10 10 10 12 14 13 14 14 15 16 17 18 18 18 17 17 16 16 15 14 14 13 13 12 12 11 11 11 10 10 10 10 9 9
8 8 8 9 10 11 12 11 12 12 10 9 10 12 14 13 13 14 15 16 17 18 18 17 17 16 16 16 15 14 14 13 12 12 11 11 10 10 10 10 10 9 9 9
9 7 8 9 10 10 10 11 11 11 11 10 10 12 14 14 13 13 14 16 17 17 17 17 17 16 16 16 15 14 13 12 12 11 11 10 10 10 10 10 9 9 9 9
8 7 8 9 10 10 10 11 11 11 12 11 11 12 13 13 13 13 15 16 16 16 16 17 17 16 16 15 15 14 13 12 11 11 11 10 10 10 9 9 9 9 8 8
7 7 7 8 9 10 10 11 12 12 12 11 11 12 13 14 14 14 14 15 15 16 17 17 17 16 16 15 15 14 13 12 12 11 11 10 10 9 9 9 8 8 8 8
6 6 7 8 9 9 9 11 12 12 12 12 12 13 13 13 13 13 15 15 16 17 17 17 17 17 16 16 15 14 14 12 12 11 11 10 10 9 9 9 8 8 8 7
6 6 6 7 8 8 10 11 12 12 12 13 13 13 13 13 15 17 17 17 17 17 17 17 17 17 16 16 15 14 13 12 12 11 10 10 9 9 9 8 8 8 7 7
7 6 6 6 7 8 9 10 11 12 12 12 13 13 12 14 14 14 17 17 18 18 18 17 17 17 16 16 15 14 13 12 11 11 10 10 9 9 8 8 8 7 7 7
7 7 6 6 7 8 10 11 11 12 11 12 12 12 12 11 12 13 16 17 17 17 17 17 17 16 16 15 14 14 13 12 12 11 11 10 9 9 8 8 7 7 7 6
6 6 6 6 7 8 10 11 11 11 12 12 13 13 12 12 14 15 16 16 17 17 17 16 16 16 15 15 14 13 13 12 12 11 10 9 9 8 8 7 7 6 6 5
6 6 6 6 7 8 10 9 11 12 13 14 14 14 13 14 14 15 16 16 16 16 16 16 15 15 15 14 14 13 13 12 11 10 9 9 8 7 7 6 6 5 5 5
6 7 7 7 8 9 10 10 13 14 14 14 15 15 14 14 14 14 15 15 16 16 15 15 15 14 14 13 13 13 12 11 10 9 9 8 8 7 6 6 5 5 4 4
5 6 6 6 7 9 10 11 12 13 14 15 15 15 15 14 14 14 14 15 15 15 15 14 14 14 13 13 12 12 11 10 10 9 8 8 7 6 6 5 5 4 4 3
5 5 6 6 7 8 10 11 12 13 14 14 15 15 15 15 14 14 14 14 14 14 14 14 13 13 13 12 11 11 10 10 9 8 8 7 6 6 5 5 4 4 3 3
5 6 6 7 8 8 9 12 12 12 13 14 14 14 14 14 14 14 14 14 14 14 13 13 13 12 12 11 11 10 9 9 8 8 7 6 6 5 5 4 3 3 2 2

GEFSCGP_850_meantemp_126.txt.gz
Temperature
10 9 9 10 11 12 12 11 12 12 14 13 12 13 14 14 14 14 15 16 17 19 20 20 19 19 19 18 18 18 17 17 16 14 14 13 13 13 12 12 11 11 11 11
9 9 11 11 11 12 12 12 12 13 13 13 12 12 13 13 13 15 15 16 17 19 19 20 19 19 19 19 18 18 18 17 16 16 16 15 14 13 13 12 11 11 11 11
9 10 11 11 11 11 11 11 12 12 13 13 13 12 13 13 13 15 16 17 18 19 19 20 20 19 19 19 19 18 18 18 17 17 15 14 13 12 12 11 11 11 11 11
9 10 11 11 11 11 11 12 12 12 12 11 12 11 12 12 13 13 14 16 17 19 19 20 20 20 20 20 19 19 19 18 18 17 15 14 13 13 13 13 12 12 11 11
9 10 10 11 11 11 11 12 12 12 11 11 11 10 11 11 12 13 13 16 18 19 19 19 20 20 20 20 19 19 19 18 18 17 16 15 15 14 14 13 12 12 11 11
8 10 10 11 11 12 12 11 11 11 10 10 10 10 10 11 12 13 14 16 18 19 19 19 19 19 19 19 19 19 19 18 18 17 16 16 15 15 14 13 12 12 11 11
8 8 10 10 10 10 11 10 10 9 9 10 10 10 11 12 12 13 14 16 18 18 19 19 19 19 19 19 19 19 18 18 18 17 16 16 15 15 14 14 13 12 12 11
7 8 9 10 10 10 10 10 10 10 10 9 9 10 11 12 12 14 15 16 17 18 19 19 19 19 19 19 19 19 18 18 17 17 16 15 15 14 14 13 13 12 12 12
6 7 9 10 10 11 10 10 10 10 9 9 9 9 10 11 11 12 13 14 16 18 18 18 19 19 19 19 19 18 18 17 17 16 16 15 14 14 14 13 13 12 12 12
5 6 7 9 10 11 11 10 10 9 9 10 9 9 10 12 13 13 12 13 16 17 18 18 18 19 18 18 18 18 17 17 17 16 15 14 14 13 13 13 12 12 11 11
5 6 6 8 9 9 9 10 9 9 9 9 9 10 11 12 13 14 14 15 16 17 18 18 18 18 18 18 17 17 17 16 16 15 14 14 13 13 12 12 12 11 11 11
5 5 5 7 8 9 9 9 9 9 8 8 9 11 12 12 13 13 14 15 16 17 18 18 18 18 18 17 17 17 16 16 15 15 14 13 13 12 11 11 11 11 10 10
5 5 5 6 7 8 8 8 8 9 8 7 9 11 12 11 12 12 13 14 16 16 17 17 17 17 17 17 17 16 16 15 15 14 13 12 12 11 11 11 11 10 10 10
5 4 5 6 6 6 7 7 8 8 8 8 8 11 12 12 13 12 13 14 15 16 17 17 17 17 17 17 16 16 15 15 14 13 13 12 12 11 11 10 10 10 10 9
4 4 4 5 6 6 7 7 8 8 8 8 9 10 12 12 12 12 13 14 14 15 16 17 17 17 17 16 16 16 15 15 14 13 12 12 11 11 10 10 10 9 9 9
3 3 4 5 6 7 7 8 8 9 9 9 9 9 11 12 12 12 13 13 13 15 16 17 17 17 17 16 16 16 15 15 14 13 12 12 11 10 10 10 9 9 9 9
2 2 4 4 5 6 6 8 9 9 10 10 10 11 10 11 11 12 13 14 15 16 17 17 17 17 17 17 16 16 15 14 13 13 12 11 11 10 10 9 9 9 8 8
2 2 3 4 4 5 7 9 9 9 10 10 10 10 11 11 12 15 15 16 16 16 16 17 17 17 17 16 16 15 14 14 13 12 11 11 10 10 9 9 9 8 8 8
2 2 3 3 4 5 7 7 8 9 9 10 10 10 10 12 12 13 15 16 16 17 17 17 17 17 17 16 15 15 14 13 13 12 11 11 10 10 9 9 9 8 8 7
3 3 3 3 4 6 7 7 8 9 9 9 10 10 10 9 10 12 15 15 16 16 16 16 16 16 16 16 15 14 14 13 13 12 12 11 10 10 9 9 8 8 7 7
2 2 2 3 4 5 7 7 8 8 8 9 9 10 10 9 12 13 14 15 15 16 16 16 16 16 16 15 15 14 14 13 13 12 11 11 10 9 9 8 8 7 7 7
2 3 3 3 4 5 6 6 8 8 9 10 10 10 10 11 12 13 13 14 15 15 15 15 15 15 15 15 15 14 14 13 12 12 11 10 9 9 8 8 7 7 6 6
3 3 3 4 5 6 6 7 9 9 9 10 10 10 10 10 11 12 13 13 14 15 15 15 15 15 15 15 14 14 14 13 12 11 11 10 9 8 8 7 7 6 6 6
2 3 3 3 4 5 6 7 8 9 9 10 10 10 10 10 11 11 12 12 13 14 14 14 14 14 14 14 14 14 13 12 12 11 10 9 9 8 7 7 6 6 6 5
1 2 2 3 4 5 6 7 8 8 9 9 10 10 10 10 10 11 11 12 13 13 13 14 14 14 14 14 13 13 12 12 11 10 10 9 8 7 7 6 6 5 5 5
1 2 2 3 4 4 5 7 7 8 8 9 9 9 10 10 11 11 11 12 12 13 13 13 13 13 13 13 13 12 12 11 11 10 9 8 8 7 7 6 5 5 5 4

GEFSCGP_850_meantemp_132.txt.gz
Temperature
9 9 10 12 13 14 15 15 15 16 17 16 17 17 19 19 18 19 20 20 19 19 19 18 17 17 16 16 15 15 15 15 14 13 13 12 13 13 12 12 12 11 11 11
8 9 12 13 13 13 13 13 14 15 16 16 16 17 18 19 19 19 19 20 20 19 19 18 17 17 17 16 16 16 15 15 15 15 15 14 13 12 12 12 12 11 11 11
8 10 12 12 12 12 12 13 14 14 14 15 15 16 17 18 18 18 18 19 19 19 19 18 17 17 17 17 17 17 17 16 16 16 14 13 12 11 11 12 12 12 11 11
8 10 10 11 11 12 11 13 13 13 13 14 14 15 17 18 18 18 18 18 19 19 18 18 18 18 18 18 18 17 17 17 16 15 14 13 13 13 14 14 13 13 12 11
8 9 9 10 11 12 12 13 13 13 12 13 14 14 17 18 18 18 19 19 19 18 18 18 18 18 18 18 18 18 17 17 16 15 15 14 14 14 13 13 13 12 12 12
8 9 9 10 11 12 12 11 11 12 11 11 13 14 16 18 18 19 20 19 19 18 18 18 18 18 18 18 18 18 17 16 16 15 15 15 15 14 13 13 13 12 12 12
8 8 9 9 9 10 10 9 9 9 10 11 14 14 15 18 19 19 20 19 18 18 18 18 18 18 18 18 18 18 17 17 16 15 15 15 15 14 13 13 13 13 12 12
7 8 9 9 9 9 10 10 10 11 12 13 14 14 17 18 18 18 18 18 18 18 17 17 18 18 18 18 18 18 18 17 16 16 15 15 15 14 13 13 13 13 13 13
6 7 9 9 9 10 9 10 11 11 12 13 14 15 17 17 17 17 17 17 17 17 17 17 17 18 18 18 18 18 18 17 17 16 15 15 14 13 13 13 12 12 12 12
5 5 7 8 9 9 10 10 10 10 11 12 14 15 16 16 17 17 17 17 17 17 16 17 17 17 17 17 18 17 17 17 17 16 15 14 14 14 13 12 12 12 12 12
4 5 6 7 7 8 9 9 9 10 11 12 13 16 17 18 18 18 18 17 17 16 16 16 17 17 17 17 17 17 17 17 16 16 15 14 13 13 13 12 12 12 11 11
5 4 5 7 8 8 8 8 9 9 9 11 13 16 17 17 18 18 18 17 17 16 16 16 16 16 16 16 17 17 17 16 16 16 15 14 13 13 12 12 12 11 11 11
4 4 5 6 6 7 7 7 8 9 10 11 12 15 16 15 15 15 16 16 15 15 15 15 15 16 16 16 16 16 16 16 16 15 14 13 13 12 12 12 11 11 11 10
4 4 4 5 6 6 6 6 7 8 9 10 12 15 15 15 15 15 15 14 14 14 14 15 15 15 16 16 16 16 16 16 15 15 14 13 13 12 12 11 11 10 10 10
3 3 4 5 6 6 6 6 7 7 9 10 12 13 15 15 15 15 14 14 13 13 13 14 14 15 15 15 16 16 16 15 15 15 14 13 13 12 11 11 10 10 10 10
3 3 4 4 6 6 6 7 8 8 9 10 11 12 15 15 14 14 14 13 13 13 13 14 14 14 15 15 15 15 15 15 15 14 14 13 12 11 11 10 10 10 10 9
2 2 3 4 5 5 6 8 9 9 10 11 11 12 13 13 13 14 13 13 13 13 13 14 14 15 15 15 15 15 15 15 14 14 13 13 12 11 11 10 10 9 9 9
2 2 2 3 4 4 8 9 9 9 10 10 11 12 12 13 13 13 13 13 13 13 13 14 14 14 15 15 15 15 14 14 14 13 13 12 12 11 10 10 9 9 9 9
3 2 2 3 4 5 7 8 8 9 9 10 10 11 11 12 12 13 13 13 13 13 13 14 14 14 15 15 15 15 14 14 13 13 13 12 12 11 10 10 9 9 9 8
3 2 2 3 3 5 8 8 9 9 9 10 10 10 11 11 11 13 12 12 12 13 13 13 14 14 14 14 14 14 14 13 13 13 13 12 11 11 10 10 9 9 8 8
2 1 2 3 4 6 7 8 8 7 8 9 9 9 10 10 10 11 11 11 12 12 12 13 13 14 14 14 14 14 14 14 13 13 12 11 11 11 10 10 9 8 8 7
2 2 2 3 3 5 7 7 7 8 8 8 8 9 9 9 9 9 10 10 11 11 12 12 13 13 14 14 14 14 14 13 13 12 11 11 10 10 9 9 8 8 7 7
3 3 3 3 5 7 6 6 7 6 7 7 7 8 8 8 8 9 9 9 10 11 11 12 12 13 13 13 13 13 13 13 12 12 11 10 10 9 9 9 8 7 7 6
3 3 3 3 4 5 5 5 5 6 6 6 7 7 7 7 8 8 8 9 9 10 11 11 12 13 13 13 13 13 13 13 12 11 11 10 9 9 8 8 8 7 7 6
2 2 3 3 4 5 5 5 5 5 5 6 6 6 7 7 7 7 8 8 8 9 10 11 11 12 12 13 12 12 12 12 12 11 10 10 9 8 8 7 7 7 6 6
2 2 2 3 4 4 5 5 5 5 5 5 5 6 6 7 7 7 7 7 8 9 10 10 11 11 12 12 12 12 12 12 11 11 10 9 9 8 7 7 6 6 6 5

GEFSCGP_850_meantemp_138.txt.gz
Temperature
9 8 8 9 10 11 12 12 13 14 16 16 15 16 17 18 18 19 20 20 21 21 21 20 20 19 19 18 17 16 15 15 14 13 13 13 12 12 12 12 12 12 12 11
8 8 10 11 11 11 11 11 12 13 15 16 15 15 17 18 18 19 19 20 21 21 21 21 20 20 19 18 17 16 15 15 14 14 14 14 13 13 12 12 12 12 12 11
7 9 10 11 11 10 11 11 11 12 14 14 14 14 15 17 18 19 19 20 21 21 21 21 20 20 19 18 17 16 16 15 15 14 13 12 12 12 12 12 12 12 12 12
8 9 10 10 10 10 10 12 12 12 11 11 12 11 14 16 17 18 18 19 20 21 21 21 20 20 19 18 18 17 16 15 15 14 13 13 13 13 13 13 13 12 12 12
7 9 9 8 9 10 10 11 11 11 11 10 11 11 12 15 16 17 18 19 20 20 20 21 20 20 19 19 18 17 16 15 15 14 14 13 14 14 14 13 13 12 12 12
7 9 9 9 10 10 10 10 10 10 9 8 10 10 11 14 16 17 18 19 20 20 20 20 20 20 19 19 18 17 16 15 15 14 14 13 14 14 13 13 13 12 12 12
6 8 9 9 8 9 9 8 7 7 7 8 11 11 12 15 17 17 18 19 20 20 20 20 20 20 19 18 18 17 16 15 15 14 14 14 14 14 13 14 13 13 12 12
5 6 8 9 8 7 8 8 7 7 8 9 12 11 13 15 17 18 18 19 19 19 19 19 19 19 19 18 18 17 17 16 15 14 14 14 13 13 13 13 13 13 14 14
4 6 8 8 9 8 7 8 8 8 8 9 10 12 14 15 16 17 17 18 18 19 19 19 19 19 19 19 18 17 17 16 15 15 14 13 13 13 13 13 13 13 13 13
5 4 6 8 8 8 8 8 7 7 7 8 10 11 13 14 15 16 16 16 17 18 18 18 18 18 19 18 18 17 17 16 16 15 14 14 13 13 13 13 12 12 12 12
4 3 5 6 6 7 7 7 7 7 7 8 9 11 14 14 15 15 15 16 17 17 17 17 17 18 18 18 17 17 17 16 15 15 14 13 13 13 12 12 12 12 12 12
4 3 3 5 7 7 7 7 6 6 6 8 9 11 15 15 15 15 15 16 17 17 17 16 16 16 17 17 17 17 16 16 15 15 14 14 13 13 12 12 12 12 12 12
4 3 2 4 5 5 5 6 6 6 6 7 8 10 13 14 14 14 15 15 16 16 16 16 15 15 16 16 17 16 16 16 15 15 14 14 13 13 12 12 12 12 11 11
4 2 2 3 4 4 4 5 5 5 5 6 8 10 11 12 13 13 14 14 15 15 15 15 14 14 15 15 16 16 16 15 15 14 14 14 13 13 13 12 12 12 11 11
3 2 3 4 5 5 5 5 5 5 5 6 8 9 10 11 12 12 13 13 14 13 13 13 13 14 14 14 14 15 15 15 15 14 14 14 14 13 13 12 12 11 11 11
2 1 2 3 4 5 5 6 6 6 6 7 8 9 11 11 12 12 12 13 12 12 12 12 12 13 13 13 14 14 14 14 14 14 14 14 13 13 12 12 12 11 11 11
1 1 1 2 4 4 4 6 6 7 7 8 8 9 10 10 11 11 11 12 12 11 11 11 12 12 13 13 13 14 14 14 14 14 14 14 13 13 12 12 11 11 11 10
1 1 1 1 2 2 4 7 7 7 8 8 8 9 9 10 11 11 11 11 11 11 11 11 11 12 12 13 13 13 14 14 14 14 13 13 13 12 12 11 11 11 10 10
3 1 1 1 1 3 5 7 7 7 7 7 8 8 9 9 10 11 10 10 10 10 11 11 11 12 12 12 12 13 13 13 13 13 13 13 13 12 12 11 11 10 10 10
3 2 1 1 1 3 5 7 7 7 6 7 7 8 8 8 8 9 10 10 10 10 10 11 11 11 11 12 12 12 13 13 13 13 13 13 12 12 11 11 10 10 10 9
1 1 1 1 1 3 5 6 7 5 5 6 7 7 7 7 8 8 9 9 9 10 10 10 11 11 11 11 12 12 12 13 13 13 12 12 12 11 11 10 10 9 9 9
1 1 0 1 1 2 5 5 5 4 6 6 6 7 7 7 8 8 8 9 9 9 10 10 10 10 11 11 11 11 12 12 12 12 12 11 11 11 10 10 9 9 9 9
2 2 1 2 2 4 5 5 5 6 5 6 6 6 6 6 7 7 7 8 8 9 9 10 10 10 10 10 11 11 11 12 12 12 11 11 10 10 10 9 9 9 8 8
3 3 2 2 3 4 5 5 5 5 5 5 5 5 5 5 6 6 7 7 8 8 9 9 9 9 10 10 10 11 11 12 11 11 11 10 10 10 9 9 9 9 8 8
2 2 2 2 3 4 5 5 5 4 4 4 4 5 5 5 5 5 6 6 7 7 8 9 9 9 9 10 10 10 11 11 11 11 10 10 10 9 9 8 8 8 8 8
2 2 2 2 3 3 3 4 4 4 4 4 4 4 4 4 4 5 5 6 6 7 8 8 9 9 9 9 10 10 11 11 11 10 10 9 9 9 8 8 8 7 8 7

GEFSCGP_850_meantemp_144.txt.gz
Temperature
6 5 5 6 6 7 8 7 7 9 10 10 10 11 11 13 13 13 14 15 15 16 17 17 17 17 16 16 16 15 15 14 14 13 13 13 13 13 12 12 12 12 12 11
4 4 6 7 7 7 7 7 7 8 10 10 9 10 11 12 12 13 14 14 15 16 16 17 17 17 16 16 16 16 15 15 14 14 14 14 14 13 13 12 12 12 12 12
4 5 7 7 6 7 7 7 7 8 8 9 9 9 10 11 12 13 14 15 15 16 16 16 17 17 16 16 16 16 16 15 15 15 14 13 12 12 12 12 12 12 12 12
4 6 6 6 6 7 6 8 8 8 7 7 8 7 8 10 11 12 13 14 15 15 16 17 17 17 17 17 17 17 16 16 16 15 14 13 13 13 13 13 13 12 12 12
4 5 6 6 6 7 6 8 8 7 7 6 7 6 7 9 10 11 12 14 15 15 16 17 17 17 17 17 17 17 17 16 16 15 14 14 14 14 14 13 13 12 12 12
5 6 6 6 7 7 7 7 6 6 6 5 6 6 7 8 10 11 12 13 15 15 16 16 17 17 17 17 17 17 16 16 16 15 15 14 14 14 13 13 13 12 12 12
3 5 6 6 5 6 6 5 4 4 4 5 7 7 7 8 10 11 12 13 14 15 15 16 16 17 17 17 17 16 16 16 16 15 15 15 15 14 14 14 13 13 12 12
2 3 5 5 5 5 5 5 4 4 4 5 6 7 8 9 10 12 12 13 14 14 15 15 16 16 17 17 17 16 16 16 16 15 15 15 15 14 14 14 14 13 13 14
2 2 5 5 6 5 4 4 5 4 4 4 5 6 7 9 9 10 11 12 12 13 14 15 15 16 17 17 17 17 16 16 16 16 16 15 15 14 14 14 14 14 14 14
2 1 3 4 5 5 5 5 4 4 4 4 5 6 7 8 9 9 9 10 11 12 13 14 15 16 16 17 17 17 16 16 16 16 16 15 15 15 14 14 13 13 13 13
2 1 2 3 3 4 4 4 4 3 3 4 4 6 8 8 9 9 9 10 11 12 12 13 14 15 16 16 16 16 16 16 16 16 16 15 15 15 14 14 14 13 13 13
2 1 1 2 3 4 4 3 3 3 2 3 3 6 9 8 9 9 9 10 10 11 12 12 13 14 15 15 16 16 16 15 15 16 15 15 15 14 14 14 13 13 13 13
2 1 0 1 2 2 2 2 2 2 2 3 3 5 8 8 8 8 8 9 9 10 11 11 12 13 14 14 15 15 15 15 15 15 15 15 14 14 14 14 13 13 13 12
3 0 0 1 1 1 1 2 2 2 2 2 3 5 6 7 7 7 8 8 9 9 10 10 11 12 13 14 14 15 15 15 15 15 14 14 14 14 14 14 13 13 12 12
2 0 0 1 2 2 2 3 3 2 2 2 4 5 6 6 6 7 7 7 8 8 9 9 10 11 12 12 13 14 14 14 14 14 14 14 14 14 13 13 13 12 12 12
1 0 0 1 2 2 3 3 3 3 3 3 4 4 6 6 6 6 6 6 7 7 8 8 9 10 11 12 12 13 14 14 14 14 14 14 14 13 13 13 13 12 12 12
-1 -1 -0 0 1 2 1 3 3 3 3 3 4 4 5 5 6 6 6 6 6 6 7 8 8 9 10 11 12 12 13 14 13 13 13 13 13 13 13 13 12 12 12 11
-1 -1 -1 -0 -0 -0 2 3 4 4 4 4 4 4 5 5 6 6 6 6 6 6 7 7 8 9 10 11 11 12 12 13 13 13 13 13 13 13 13 12 12 12 12 11
0 -0 -1 -1 -0 0 2 3 3 3 3 3 3 4 4 5 5 6 6 6 6 6 7 7 8 9 9 10 11 11 11 12 12 12 13 13 13 13 12 12 12 12 11 11
0 -0 -1 -1 -0 0 2 3 4 3 2 3 3 3 3 3 3 4 6 6 6 7 7 7 8 9 9 10 10 11 11 11 12 12 13 13 13 12 12 12 12 11 11 11
-1 -1 -1 -1 -1 0 2 3 3 2 2 3 3 3 3 3 3 4 5 5 6 6 7 7 8 8 9 9 10 10 11 11 12 12 12 12 12 12 12 11 11 11 11 10
-1 -2 -2 -1 -1 0 2 2 2 2 3 3 3 3 3 3 4 4 5 5 5 6 6 7 7 8 9 9 9 10 10 11 11 11 11 12 12 11 11 11 10 10 10 10
-1 -1 -1 -1 0 1 2 2 3 3 3 3 3 3 3 3 3 4 4 4 5 6 6 6 7 8 8 8 9 9 10 10 10 11 11 11 11 11 10 10 10 10 9 9
-1 -1 -1 -1 -0 1 2 2 3 3 3 3 3 3 3 3 3 3 4 4 4 5 5 6 6 7 8 8 8 9 9 10 10 10 10 10 10 10 10 9 9 9 9 9
-1 -1 -1 -1 -0 0 2 2 2 2 2 3 3 3 3 3 3 3 3 4 4 5 5 6 6 7 7 7 8 8 9 9 9 9 9 9 9 9 9 9 9 9 9 9
-2 -1 -1 -1 -0 -0 0 2 2 2 2 2 2 2 2 2 2 3 3 3 4 4 5 5 6 6 7 7 7 8 8 8 9 9 9 8 8 8 8 8 8 8 8 8

GEFSCGP_850_meantemp_150.txt.gz
Temperature
4 3 3 4 4 5 5 5 5 6 7 7 7 7 8 9 9 9 10 11 11 12 13 14 14 14 14 14 14 13 13 13 13 12 12 12 12 12 12 12 12 12 11 11
3 3 4 5 5 5 4 4 4 5 7 7 6 7 8 8 9 10 10 11 11 12 12 13 13 14 14 14 14 14 13 13 13 13 13 13 12 12 12 12 12 12 11 11
3 4 5 5 4 4 4 4 4 5 6 6 6 6 7 8 9 10 10 11 11 11 12 12 13 14 14 14 14 14 14 13 13 13 13 12 12 12 12 12 12 12 12 11
3 4 5 4 4 4 4 5 5 5 5 4 5 5 6 7 8 9 9 10 11 11 12 12 13 13 14 14 14 14 14 14 13 13 13 12 12 12 13 13 13 12 12 11
3 4 4 4 5 5 4 5 5 5 4 3 4 4 5 6 7 8 8 10 10 11 12 12 13 13 14 14 14 14 14 14 13 13 13 13 13 13 13 13 12 12 12 12
3 4 4 4 5 5 5 5 4 4 3 3 3 4 4 5 7 8 8 9 10 11 11 12 12 13 14 14 14 14 14 14 14 13 13 13 13 13 13 13 13 12 12 12
2 3 4 4 4 4 4 3 2 2 2 2 4 4 5 6 6 7 8 9 10 11 11 11 12 12 13 13 14 14 14 14 14 13 13 13 13 13 13 13 13 13 13 12
1 2 3 4 4 3 3 3 2 2 2 3 4 4 5 6 7 7 8 9 9 10 10 11 11 12 12 13 14 14 14 14 14 13 13 14 13 13 13 13 13 13 13 14
1 1 3 4 4 4 3 3 3 2 2 2 3 3 4 6 6 6 7 8 8 9 9 10 11 11 12 13 13 14 14 14 14 14 14 14 13 13 13 13 13 13 13 13
1 1 2 3 3 4 3 3 2 2 2 3 3 3 4 6 6 6 6 6 7 8 9 9 10 11 11 12 13 14 14 14 15 14 14 14 14 14 14 13 13 13 13 13
1 0 1 1 2 2 2 2 2 2 1 2 2 4 5 5 5 6 6 6 7 7 8 9 9 10 11 12 12 13 14 14 14 14 14 14 14 14 14 13 13 13 13 13
1 -0 -0 0 2 3 2 2 2 1 1 1 2 4 6 5 5 5 5 6 6 7 7 8 9 9 10 11 12 12 13 14 14 14 14 14 14 14 13 13 13 13 13 13
1 0 -0 0 1 1 1 1 1 1 1 1 1 3 5 4 5 5 5 5 5 6 6 7 8 8 9 10 10 11 12 13 14 14 14 13 13 13 14 14 13 13 12 12
2 0 0 0 1 0 0 1 1 0 1 1 1 3 4 4 4 4 4 4 5 5 5 6 7 8 8 9 10 10 11 12 13 13 13 13 13 13 14 14 13 13 12 12
1 -0 -1 0 1 1 1 1 1 1 1 1 2 2 3 3 3 3 4 4 4 4 5 5 6 7 7 8 9 10 11 11 12 13 13 13 13 13 13 13 13 12 12 12
-1 -1 -0 0 1 1 1 2 2 2 2 1 2 2 3 3 3 3 3 4 4 4 4 5 5 6 7 7 8 9 10 11 11 12 12 12 12 12 12 12 12 12 12 12
-1 -1 -1 -0 0 0 0 1 2 2 2 2 2 3 3 2 3 3 3 3 3 4 4 4 5 6 6 7 8 9 10 10 11 11 12 12 12 12 12 12 12 11 12 12
-1 -1 -1 -1 -1 -1 1 1 2 2 2 2 2 2 2 2 3 3 3 3 3 4 4 4 5 5 6 7 7 8 9 9 10 10 11 11 11 11 11 11 11 11 11 11
-1 -1 -1 -1 -1 -1 1 1 1 1 1 1 1 2 2 2 2 3 4 3 3 4 4 4 5 5 6 7 7 8 8 9 9 10 10 11 11 11 11 11 11 11 11 11
-1 -1 -1 -2 -1 -1 1 1 2 1 1 1 1 1 1 1 1 2 3 3 3 4 4 4 5 6 6 7 7 7 8 8 9 10 10 10 11 11 11 11 11 11 11 11
-2 -2 -2 -1 -1 -0 0 1 1 0 0 1 1 1 1 0 1 2 3 3 3 4 4 4 5 5 6 6 7 7 7 8 9 9 10 10 10 11 11 11 11 11 11 10
-2 -2 -2 -2 -1 -1 1 0 0 0 1 2 1 1 1 1 2 2 2 2 3 3 4 4 5 5 6 6 6 7 7 8 8 9 9 9 10 10 10 10 10 10 10 10
-2 -2 -2 -2 -0 -0 1 1 2 2 1 2 2 1 1 1 1 2 2 2 2 3 3 4 4 5 5 6 6 7 7 8 8 8 9 9 9 9 10 10 10 10 10 10
-3 -2 -3 -3 -2 -1 0 1 1 1 1 1 1 1 1 1 1 1 1 2 2 2 3 3 4 4 5 6 6 7 7 7 8 8 8 8 9 9 9 9 10 10 10 10
-3 -3 -3 -3 -2 -2 -0 1 1 1 1 1 1 1 0 0 0 0 1 1 1 2 2 3 3 4 5 5 6 6 7 7 7 7 8 8 8 9 9 9 9 10 10 10
-4 -3 -3 -2 -1 -2 -2 0 0 -0 -0 -0 -0 -0 -0 -0 -0 -0 0 0 1 1 2 2 3 3 4 5 6 6 6 7 7 7 7 8 8 8 8 8 9 9 9 9

GEFSCGP_850_meantemp_156.txt.gz
Temperature
6 7 7 8 8 8 7 7 7 9 10 9 9 9 11 11 11 12 12 12 12 12 12 12 12 11 11 11 12 12 12 12 12 13 13 12 12 12 12 12 12 11 11 11
7 7 8 8 7 7 6 6 7 8 9 8 8 9 11 11 11 11 12 12 12 12 12 11 11 11 11 11 11 12 12 12 12 12 12 12 12 12 12 12 11 11 11 11
7 8 7 7 6 6 7 7 7 7 8 8 8 9 10 11 11 11 11 11 11 11 12 11 11 11 11 11 11 12 12 12 12 12 12 12 12 12 12 12 12 11 11 11
7 7 6 6 6 7 7 8 7 7 6 7 7 8 11 11 11 11 11 11 11 11 11 11 10 10 11 11 11 11 11 12 12 12 12 12 11 11 12 12 12 11 11 11
7 7 6 6 7 7 7 7 7 6 6 6 7 7 10 11 10 11 12 11 11 10 10 10 10 10 11 11 11 11 11 11 12 12 12 12 12 11 11 11 11 11 11 11
6 7 6 6 7 7 6 6 6 6 6 5 7 7 9 11 10 11 11 11 10 10 10 10 10 10 10 10 10 11 11 11 11 12 12 12 12 11 11 11 11 11 11 11
6 6 6 6 6 6 6 5 5 6 5 7 8 8 9 10 10 10 10 10 10 10 10 9 9 9 9 10 10 10 11 11 11 11 12 12 12 11 11 11 11 11 11 11
5 6 6 6 6 6 6 5 5 5 6 8 7 8 10 10 10 9 9 9 9 9 9 9 9 9 9 9 10 10 10 11 11 11 12 12 11 11 11 11 11 11 12 12
5 5 6 6 6 6 5 5 6 5 5 5 7 8 9 9 9 9 9 8 8 8 8 8 8 8 8 9 9 10 10 11 11 11 12 12 11 11 11 11 11 11 12 12
4 4 5 5 5 5 6 6 5 4 4 5 7 8 9 8 8 8 9 8 8 8 7 8 8 8 8 8 9 9 10 10 11 11 11 11 12 11 11 11 11 11 12 12
4 3 4 5 5 5 5 4 4 4 4 5 6 8 9 8 8 8 8 8 7 7 7 7 7 7 8 8 8 9 9 10 10 11 11 11 12 11 11 11 11 12 12 12
3 3 3 5 5 5 5 5 4 4 4 4 5 7 9 8 8 8 8 7 7 6 6 6 7 7 7 8 8 8 9 9 10 11 11 11 12 11 11 11 12 12 12 12
3 2 2 4 4 3 3 3 3 3 3 4 4 7 9 8 8 7 7 7 6 6 6 6 6 6 7 7 7 8 8 9 10 10 11 11 11 11 12 12 12 12 12 12
3 2 2 3 4 4 3 3 3 2 3 4 5 6 8 8 7 7 7 6 6 6 5 5 5 6 6 7 7 7 8 8 9 9 10 11 11 11 12 12 11 11 11 11
2 2 2 3 4 3 3 3 3 3 3 3 5 6 7 7 7 6 6 6 5 5 5 5 5 5 6 6 7 7 7 8 8 9 9 10 11 11 11 11 11 11 11 11
1 1 2 2 3 3 3 3 4 4 4 4 4 5 6 6 6 6 5 5 5 5 4 4 4 4 5 6 6 6 7 7 8 8 9 10 10 11 11 11 11 11 11 11
1 0 1 2 3 2 3 4 4 4 4 4 4 5 6 5 6 5 5 4 4 4 4 4 4 4 4 5 5 6 6 7 7 8 8 9 10 10 10 10 11 11 11 11
0 0 0 1 1 1 4 5 4 4 4 4 4 4 5 5 5 4 4 4 4 3 3 3 3 3 4 4 5 5 6 6 7 7 8 8 9 10 10 10 10 10 10 10
1 0 0 1 1 2 4 4 4 3 4 4 4 4 4 4 4 4 4 3 3 3 3 2 3 3 3 4 4 5 5 6 6 7 7 8 9 9 9 10 10 10 10 10
1 0 0 1 1 2 4 4 3 3 3 4 4 4 4 4 4 5 4 3 2 2 2 2 2 3 3 4 4 5 5 6 6 7 7 8 8 8 9 9 10 10 10 10
-0 -0 -0 0 1 2 4 3 3 2 3 3 3 3 3 3 3 3 2 2 2 2 2 2 2 2 3 3 4 4 5 6 6 7 7 7 8 8 8 9 9 9 9 9
1 0 0 0 0 2 3 2 2 3 3 2 2 2 2 2 2 2 1 1 1 2 2 2 2 2 3 3 3 4 5 5 6 6 7 7 7 8 8 8 8 8 9 9
1 1 2 1 3 4 2 2 2 2 2 2 1 1 1 1 1 1 1 1 1 1 1 1 1 2 2 3 3 4 4 5 5 6 6 7 7 7 7 8 8 8 8 8
1 1 1 1 2 3 2 1 1 1 1 1 0 0 0 -0 -0 -0 0 0 0 1 1 1 1 1 2 2 3 3 4 5 5 5 6 6 6 6 7 7 7 8 8 8
1 0 0 1 2 2 2 1 0 0 -0 -0 -1 -1 -1 -1 -1 -1 -1 -0 -0 0 0 0 0 1 1 2 2 3 4 4 4 5 6 6 6 6 7 7 7 8 8 9
1 0 0 1 2 1 1 0 -0 -1 -1 -1 -1 -1 -1 -1 -1 -1 -1 -1 -1 -0 -0 -0 0 0 1 1 2 3 3 4 4 5 5 5 6 6 6 6 7 7 8 8

GEFSCGP_850_meantemp_162.txt.gz
Temperature
9 8 8 9 9 9 9 8 8 9 11 10 9 10 10 11 12 12 12 12 12 12 12 12 12 12 12 12 12 12 12 12 12 12 12 12 12 12 12 12 12 12 12 12
9 8 9 10 10 9 9 8 8 9 11 10 9 9 10 11 11 12 12 12 12 12 12 12 12 12 12 12 12 11 12 12 12 12 12 12 12 12 12 12 12 12 12 11
8 9 10 10 9 9 8 8 8 8 9 9 8 8 10 11 12 12 12 12 12 11 11 11 11 11 11 11 11 11 11 11 11 11 11 11 11 11 11 11 12 12 12 11
9 10 10 9 8 8 7 9 9 8 7 6 8 6 8 10 11 11 11 11 11 11 10 11 11 10 10 11 11 11 10 11 11 11 11 11 11 11 11 11 11 11 11 11
8 9 9 8 9 9 8 9 8 7 6 6 7 6 8 10 10 11 11 11 11 10 10 10 10 10 10 10 10 10 10 10 10 11 11 11 11 11 11 11 11 11 11 11
8 9 9 9 9 9 8 8 7 7 6 5 6 6 7 9 10 10 10 11 11 10 10 9 9 9 9 10 10 9 10 10 10 10 10 10 10 10 10 11 11 11 11 11
8 9 9 9 8 8 7 5 4 4 4 5 8 8 8 10 10 10 10 10 10 9 9 9 9 9 9 9 9 9 9 9 9 10 10 10 10 10 10 11 11 11 11 11
6 7 9 8 7 7 6 5 4 3 4 6 7 7 9 10 10 10 10 10 10 9 9 8 8 8 8 8 9 9 9 9 9 9 10 10 10 10 10 10 11 11 11 11
5 6 9 8 8 7 6 6 6 4 4 4 6 7 9 10 9 9 9 9 9 9 8 8 8 8 8 8 8 8 9 9 9 9 9 9 10 10 10 10 10 11 11 11
6 4 6 8 8 7 7 6 5 4 3 4 5 7 7 8 8 9 8 8 8 8 8 8 8 8 8 8 8 8 8 9 9 9 9 9 10 10 10 10 10 10 11 11
6 4 5 6 6 5 6 5 5 4 4 3 4 5 8 8 8 8 8 8 8 8 7 7 7 8 8 8 8 8 8 8 8 8 9 9 9 10 10 10 10 10 10 10
5 3 3 5 6 7 6 5 4 3 2 3 3 5 8 8 8 8 7 8 8 8 7 7 7 7 7 7 7 7 7 8 8 8 8 8 9 9 9 10 10 10 10 10
4 2 2 3 5 5 4 4 4 3 3 2 3 4 7 7 7 8 8 8 7 7 7 7 6 7 7 7 7 7 7 7 7 7 8 8 8 9 9 9 10 10 10 10
4 2 2 3 4 3 3 3 3 2 2 2 3 4 6 6 6 7 7 7 7 7 6 6 6 6 6 6 6 7 7 7 7 7 7 8 8 8 9 9 9 10 10 10
3 2 2 3 4 4 3 3 3 3 2 2 3 4 5 6 6 6 6 6 6 6 6 6 5 5 5 6 6 6 6 7 7 7 7 7 8 8 9 9 9 10 10 10
2 1 2 2 3 4 3 4 4 4 4 4 4 4 6 6 6 6 6 6 6 5 5 5 5 5 5 5 5 6 6 6 7 7 7 7 8 8 8 9 9 9 10 10
1 1 1 1 3 3 2 4 4 4 4 4 4 4 5 5 5 5 5 5 5 5 5 5 5 4 4 4 5 5 5 6 6 6 7 7 7 8 8 8 9 9 9 9
1 1 1 1 1 1 3 5 5 5 5 5 4 4 4 5 5 5 5 5 4 4 4 4 4 4 4 4 4 4 5 5 5 6 6 7 7 7 8 8 8 9 9 9
2 1 1 1 1 1 4 5 5 4 3 4 4 4 4 5 5 5 5 4 4 4 4 4 4 3 3 3 4 4 4 4 5 5 6 6 7 7 7 8 8 8 9 9
2 1 0 1 1 1 3 4 5 4 2 3 3 3 3 3 2 3 4 3 3 3 3 3 3 3 3 3 3 3 3 4 4 5 5 6 6 7 7 7 8 8 8 9
0 0 0 0 0 1 4 4 4 1 1 3 3 3 3 2 2 3 3 3 3 3 3 3 3 3 3 3 3 3 3 3 4 4 5 5 6 6 7 7 7 8 8 8
0 -0 -0 0 -0 1 3 3 2 2 3 3 3 3 2 2 2 2 2 2 2 2 2 2 2 2 2 2 2 2 3 3 3 4 5 5 5 6 6 6 7 7 8 8
1 1 1 1 2 3 4 3 3 3 3 3 2 2 2 1 1 1 1 1 1 1 1 1 1 2 2 2 2 2 2 2 3 3 4 5 5 5 6 6 7 7 7 7
2 2 1 1 2 3 4 3 3 3 2 2 2 1 1 1 1 0 1 1 1 1 1 1 1 1 1 1 1 2 2 2 2 3 3 4 5 5 6 6 6 6 7 7
2 2 1 1 1 2 3 3 2 2 2 1 1 1 0 0 -0 -0 -0 -0 -0 0 0 0 0 0 1 1 1 1 1 1 2 2 3 3 4 5 5 6 6 6 7 7
1 1 0 1 1 1 1 2 2 1 1 0 0 -0 -0 -1 -1 -1 -1 -1 -1 -1 -1 -0 -0 -0 -0 0 0 1 1 1 1 2 2 3 3 4 5 5 5 6 6 7

GEFSCGP_850_meantemp_168.txt.gz
Temperature
6 5 4 5 5 6 6 6 5 6 7 7 6 7 8 8 8 8 8 8 9 9 10 10 10 10 10 11 11 11 11 11 11 11 11 11 11 11 11 11 12 12 12 12
5 4 6 6 6 6 6 5 5 6 7 7 6 6 7 7 7 8 8 8 8 9 9 10 10 10 10 10 10 10 10 10 10 10 10 10 11 11 11 11 11 11 11 11
5 6 7 7 7 6 6 5 5 5 6 5 5 5 6 7 8 8 8 8 8 9 9 9 9 9 9 9 10 10 10 10 10 10 10 10 10 10 10 11 10 11 11 11
5 6 7 7 6 6 5 6 6 6 4 3 4 4 5 5 6 7 7 8 8 8 9 9 9 9 9 9 9 9 9 9 9 9 9 9 9 9 10 10 10 10 10 11
5 6 6 6 7 7 6 6 6 5 4 3 3 3 4 5 5 6 6 7 8 8 8 8 8 8 8 8 8 9 9 9 9 9 9 9 9 9 9 10 10 10 10 10
5 6 6 6 7 7 6 5 4 3 2 2 3 3 3 4 5 6 6 7 8 8 8 8 8 8 8 8 8 8 8 8 8 8 9 9 9 9 9 9 9 9 9 10
4 5 6 7 6 6 5 3 2 1 1 2 4 3 4 5 5 6 6 7 8 8 8 8 7 7 7 8 8 8 8 8 8 8 8 8 8 8 9 9 9 9 9 9
3 4 5 6 6 5 4 3 2 2 1 2 3 3 4 5 5 6 7 7 7 7 7 7 7 7 7 7 7 7 7 7 8 8 8 8 8 8 8 9 9 9 9 9
3 3 5 6 6 5 4 3 3 2 1 1 2 2 3 5 5 5 6 6 6 7 7 7 7 7 6 6 6 7 7 7 7 7 8 8 8 8 8 8 9 9 9 9
3 3 4 5 5 5 4 3 1 1 1 2 2 2 3 4 5 5 5 5 6 6 6 6 6 6 6 6 6 6 6 6 7 7 7 7 8 8 8 8 8 9 9 9
3 2 2 3 3 3 3 3 2 1 1 1 1 3 4 4 4 4 4 5 5 6 6 6 6 6 6 6 6 6 6 6 6 7 7 7 7 7 8 8 8 8 9 9
3 2 1 2 3 4 3 3 2 1 1 0 1 3 5 4 4 4 4 5 5 5 5 5 5 6 6 6 6 5 5 6 6 6 6 6 7 7 7 8 8 8 8 9
3 1 1 2 2 2 2 2 2 1 1 1 1 3 5 4 4 4 4 5 5 5 5 5 5 5 5 5 5 5 5 5 6 6 6 6 6 7 7 7 8 8 8 8
4 1 1 3 3 1 1 1 1 1 1 1 2 3 4 4 4 4 4 5 5 5 5 5 5 5 5 5 5 5 5 5 5 5 6 6 6 6 7 7 7 8 8 8
3 1 1 2 2 2 2 2 2 1 1 1 2 3 4 4 3 3 4 4 4 4 4 4 4 4 4 4 4 5 5 5 5 5 5 6 6 6 6 7 7 7 8 8
2 1 1 1 2 2 2 2 2 2 2 2 2 3 4 4 3 3 3 3 3 4 4 4 4 4 4 4 4 4 4 4 4 5 5 5 5 6 6 6 7 7 8 8
1 1 1 1 1 1 1 2 2 2 2 2 2 3 3 2 2 3 3 3 3 3 3 3 3 3 3 4 4 4 4 4 4 4 4 5 5 5 6 6 6 7 7 7
1 1 1 0 -0 0 2 2 2 2 3 2 2 2 2 2 3 3 3 3 3 3 3 3 3 3 3 3 3 3 4 4 4 4 4 4 5 5 6 6 6 7 7 7
1 1 1 0 -0 0 1 2 2 1 1 2 2 2 2 2 2 2 3 3 3 2 2 3 3 3 3 3 3 3 3 4 4 4 4 4 4 5 5 5 6 6 7 7
1 0 1 0 -0 0 2 2 2 2 1 2 1 1 1 1 -0 1 3 2 2 2 2 2 2 2 2 3 3 3 3 3 3 3 4 4 4 4 5 5 6 6 6 7
-1 -0 0 0 0 1 1 2 2 1 1 2 2 1 1 0 1 2 2 2 2 2 2 2 2 2 2 2 2 2 2 2 3 3 3 3 4 4 5 5 5 6 6 6
-1 -1 -1 -1 -0 0 1 1 1 1 2 2 2 2 2 2 2 2 2 1 1 1 1 1 1 1 1 1 1 2 2 2 2 2 3 3 3 4 4 5 5 5 6 6
-0 0 -0 -0 1 1 2 2 2 2 2 2 2 2 1 1 1 1 1 1 1 1 1 0 0 1 1 1 1 1 1 2 2 2 2 3 3 3 4 4 5 5 5 5
-1 -1 -1 -1 -1 0 1 2 2 2 2 2 1 1 1 0 0 0 0 0 0 0 -0 -0 -0 -0 0 0 1 1 1 1 1 2 2 2 2 3 3 4 4 4 5 5
-1 -1 -1 -1 -1 -0 1 1 1 1 1 1 1 0 0 -0 -0 -0 -1 -1 -1 -1 -1 -1 -1 -1 -1 -0 -0 0 0 0 1 1 1 2 2 2 3 3 4 4 5 5
-2 -1 -1 -1 -0 -1 -0 1 1 1 0 0 -0 -0 -0 -1 -1 -1 -1 -1 -1 -1 -1 -1 -1 -1 -1 -1 -1 -0 -0 -0 -0 0 1 1 1 2 2 3 3 4 4 5

GEFSCGP_850_meantemp_174.txt.gz
Temperature
5 4 5 5 5 6 6 5 4 4 5 5 5 5 6 7 6 6 7 7 8 8 8 9 9 9 9 9 9 9 9 9 9 9 9 9 10 10 10 10 10 10 11 11
4 5 5 5 5 5 5 4 4 4 5 6 4 4 5 5 5 6 7 7 8 8 8 9 9 9 9 9 9 9 8 8 8 9 9 9 9 9 9 10 10 10 10 10
5 6 6 6 5 5 5 4 4 5 4 4 3 4 5 5 6 6 7 7 7 7 8 8 8 8 8 8 8 8 8 8 8 8 8 8 8 8 8 9 9 10 10 10
5 5 6 6 5 5 5 5 5 5 4 3 3 4 4 4 4 5 6 7 7 8 8 8 8 8 8 8 8 8 8 8 8 8 8 8 8 8 8 8 9 9 9 9
5 5 5 5 6 5 5 5 5 4 3 2 2 2 3 3 4 5 5 6 7 7 7 8 8 8 8 8 8 7 7 7 7 7 7 7 7 7 8 8 8 8 9 9
4 5 5 5 6 6 5 4 3 1 1 2 2 1 3 3 4 5 5 6 7 7 7 7 7 7 7 7 7 7 7 7 7 7 7 7 7 7 7 7 8 8 8 8
4 4 5 5 5 5 4 3 3 2 1 2 2 2 3 4 4 4 4 6 6 7 7 7 7 7 7 7 7 7 7 7 7 7 7 7 7 7 7 7 7 7 8 8
4 4 4 4 5 4 4 3 3 3 2 2 2 2 3 4 4 5 5 5 6 6 6 6 6 7 7 7 7 6 6 6 6 6 6 6 6 6 6 6 7 7 7 7
3 3 4 4 5 4 3 3 3 2 1 0 1 1 2 3 3 4 4 5 5 6 6 6 6 6 6 6 6 6 6 6 6 6 6 6 6 6 6 6 6 7 7 7
3 3 3 4 4 4 3 2 1 1 1 1 2 1 3 3 4 4 3 4 5 6 6 6 6 5 6 6 6 6 6 6 6 6 6 5 6 6 6 6 6 6 7 7
3 2 3 3 3 3 2 2 2 0 0 1 1 4 4 3 4 3 3 4 5 5 5 5 5 5 5 5 5 5 5 5 5 5 5 5 5 5 5 6 6 6 6 7
2 2 1 1 2 3 2 2 1 1 0 -0 0 3 5 3 3 3 3 4 5 5 5 5 5 5 5 5 5 5 5 5 5 5 5 5 5 5 5 5 6 6 6 7
2 1 1 2 2 1 1 1 1 1 0 -0 0 3 4 3 3 3 3 4 4 4 4 4 4 4 4 4 4 4 4 4 5 5 4 4 5 5 5 5 6 6 6 6
3 1 2 3 3 1 0 0 0 0 1 1 1 3 4 4 3 3 4 4 4 4 4 4 4 4 4 4 4 4 4 4 4 4 4 4 4 4 4 5 5 6 6 6
2 2 1 2 2 2 1 2 1 1 1 1 3 3 4 4 3 3 3 3 3 3 3 3 3 3 3 3 3 3 4 4 4 4 4 4 4 4 4 5 5 5 6 6
2 2 1 1 2 1 2 2 2 2 2 2 2 3 4 3 3 3 3 3 2 3 3 3 3 3 3 3 3 3 3 3 3 4 4 3 4 4 4 4 5 5 5 6
1 1 1 2 1 1 2 2 2 2 2 2 2 3 3 2 2 2 2 2 2 2 3 3 3 3 3 2 2 3 3 3 3 3 3 3 3 3 4 4 4 5 5 5
1 1 1 1 0 2 3 2 2 2 2 2 2 2 2 2 2 2 3 2 2 2 2 3 3 2 2 2 2 2 2 3 3 3 3 3 3 3 4 4 4 4 5 5
1 1 1 1 0 1 2 2 1 1 1 1 1 2 1 2 1 2 3 3 3 2 2 2 2 2 2 2 2 2 2 2 2 2 3 3 3 3 3 3 4 4 4 5
0 1 1 1 0 1 2 2 1 1 1 1 1 1 0 0 -1 1 3 2 2 2 2 2 2 2 1 1 1 1 2 2 2 2 2 2 2 2 3 3 3 4 4 5
-1 -0 0 1 1 1 1 1 1 1 1 2 1 1 0 -1 0 2 2 2 2 2 2 1 1 1 1 1 1 1 1 1 1 1 2 2 2 2 2 3 3 4 4 4
-0 -1 -1 -0 0 1 1 -0 1 1 2 2 2 2 1 1 2 1 1 1 1 1 1 1 1 1 1 0 0 0 1 1 1 1 1 2 2 2 2 2 3 3 4 4
-1 0 -0 0 1 1 1 1 2 2 1 2 2 2 1 1 1 1 1 1 1 0 0 0 -0 0 0 0 0 -0 0 0 0 0 1 1 1 1 1 2 2 3 3 3
-2 -2 -2 -2 -1 -1 0 1 1 2 1 1 1 1 1 0 0 -0 -0 -0 -0 -0 -0 -0 -1 -1 -0 -0 -0 -0 -0 -0 -0 -0 0 0 1 1 1 1 2 2 3 3
-2 -3 -2 -2 -2 -1 -0 1 1 1 1 0 0 0 -0 -0 -1 -1 -1 -1 -1 -1 -1 -1 -1 -1 -1 -1 -1 -1 -1 -1 -1 -1 -0 0 0 0 1 1 1 2 2 2
-3 -2 -2 -1 -1 -1 -1 1 1 0 -0 -0 -1 -1 -1 -1 -1 -2 -2 -1 -2 -2 -2 -2 -2 -2 -2 -2 -1 -1 -1 -2 -2 -1 -1 -1 -0 -0 0 1 1 1 2 2

GEFSCGP_850_meantemp_180.txt.gz
Temperature
9 11 12 12 11 11 11 11 11 11 10 9 10 11 12 12 11 11 11 11 10 10 9 9 9 9 9 9 9 9 9 9 8 8 8 9 9 9 9 9 9 9 9 9
10 11 10 10 9 9 10 10 11 11 9 9 10 10 12 12 11 10 10 10 10 9 9 9 8 8 8 8 8 8 8 8 8 8 8 8 8 8 8 8 8 8 8 9
11 10 9 9 9 9 10 10 11 10 10 9 8 12 13 11 10 9 9 9 9 9 9 8 8 8 8 8 8 8 8 8 8 7 7 8 8 8 8 8 8 8 8 8
10 9 8 9 9 9 10 10 9 8 9 10 9 11 14 12 11 11 10 10 9 9 8 8 8 8 8 8 8 8 8 8 7 7 7 7 7 7 7 7 7 7 8 7
10 8 8 9 9 9 9 8 8 8 8 8 9 8 13 11 11 11 11 10 9 8 8 8 8 7 7 7 8 8 7 7 7 7 7 7 7 7 7 7 7 7 7 7
8 7 8 9 8 8 8 8 7 7 8 8 9 9 12 13 12 12 11 10 9 8 8 8 7 7 7 7 7 7 7 7 7 6 6 6 6 6 6 6 6 6 7 7
8 8 7 7 8 7 8 9 9 9 9 10 8 8 11 12 11 11 10 10 9 8 8 7 7 7 7 6 7 7 7 6 6 6 6 6 6 6 6 6 6 6 6 6
9 10 8 7 8 8 8 8 9 10 11 11 8 9 11 11 10 9 8 8 8 7 7 7 7 6 6 6 6 6 6 6 6 6 6 6 6 6 6 5 5 5 6 6
9 9 7 6 7 8 8 8 8 8 7 7 10 10 10 10 10 9 9 8 8 8 7 7 6 6 6 6 5 5 5 6 6 5 5 5 5 5 5 5 5 5 5 5
8 7 7 6 6 6 7 8 7 7 7 9 10 10 11 10 10 10 10 9 8 7 7 6 6 6 5 5 5 5 5 5 5 5 5 5 5 5 5 5 5 5 5 5
7 6 6 6 6 7 6 6 7 7 7 8 9 11 11 10 10 10 10 9 8 7 6 6 6 5 5 5 5 5 5 5 5 5 5 4 4 4 4 4 5 5 5 5
6 6 7 7 6 6 7 7 7 6 6 6 7 10 11 10 10 9 9 8 7 6 6 5 5 5 4 4 4 4 4 4 4 4 4 4 4 4 4 4 4 4 4 4
5 4 6 7 5 4 4 5 5 6 6 6 6 9 10 10 9 8 8 8 7 6 5 5 4 4 4 4 4 4 4 4 4 4 4 4 4 4 4 4 4 4 4 4
5 4 6 8 9 6 4 4 4 4 5 6 7 9 10 10 10 9 8 7 6 6 5 4 4 4 3 3 3 3 3 3 3 3 3 3 3 3 3 3 3 3 4 4
4 4 5 6 7 6 5 5 4 4 5 6 7 8 9 9 9 9 8 7 6 5 4 4 4 3 3 3 3 3 3 3 3 3 3 3 3 3 3 3 3 3 3 3
4 4 4 5 5 5 5 5 5 5 5 5 6 7 9 9 8 7 7 6 5 5 4 4 3 3 3 2 2 2 2 2 2 2 3 2 2 2 2 2 2 3 3 3
3 3 4 5 6 4 5 6 6 6 6 6 6 7 8 8 8 7 6 5 4 4 3 3 3 3 2 2 2 2 2 2 2 2 2 2 2 2 2 2 2 2 3 3
3 3 3 4 4 4 7 8 7 7 7 7 7 7 7 7 6 5 4 4 4 3 3 3 3 2 2 2 2 2 2 1 1 1 1 2 2 2 2 2 2 2 2 3
3 3 3 3 4 5 7 6 6 5 6 7 6 6 6 5 5 5 4 3 3 2 2 2 2 2 1 1 1 1 1 1 1 1 1 1 1 1 1 2 2 2 2 3
2 2 3 3 3 5 7 6 5 5 5 6 5 5 5 4 4 6 4 2 2 2 2 2 2 1 1 1 1 1 1 1 0 1 1 1 1 1 1 1 1 2 2 2
2 2 2 3 3 5 6 4 3 4 6 5 4 3 3 3 4 3 2 2 2 1 1 1 1 1 1 1 1 0 0 0 0 0 0 0 0 0 1 1 1 1 2 2
3 3 2 3 3 4 4 3 4 5 4 3 3 2 2 2 2 1 1 1 1 1 1 1 0 0 0 0 -0 -0 -0 -0 -0 -0 -0 -0 0 0 1 1 1 1 1 2
3 4 4 4 5 5 3 3 3 2 2 2 2 1 1 1 1 1 0 0 0 -0 -0 -0 -0 -0 -0 -0 -1 -1 -1 -1 -1 -1 -1 -1 -0 -0 0 0 0 1 1 1
2 2 2 2 3 3 2 2 1 1 1 1 1 1 0 0 -0 -0 -0 -0 -1 -1 -1 -1 -1 -1 -1 -1 -1 -1 -1 -1 -1 -1 -1 -1 -1 -1 -0 -0 0 0 0 1
2 1 1 2 3 2 2 1 1 1 0 0 -0 -0 -1 -1 -1 -1 -1 -1 -1 -2 -2 -2 -2 -2 -2 -2 -2 -2 -2 -2 -2 -2 -2 -2 -1 -1 -1 -0 -0 -0 -0 0
1 1 1 2 2 2 2 1 0 -0 -1 -1 -1 -1 -1 -2 -2 -2 -2 -2 -2 -2 -2 -2 -2 -2 -2 -2 -2 -2 -3 -3 -3 -3 -2 -2 -2 -2 -2 -1 -1 -0 -0 0

GEFSCGP_850_meantemp_186.txt.gz
Temperature
12 11 11 12 13 13 14 13 13 14 14 12 12 12 13 14 15 14 15 15 14 14 13 12 11 11 10 10 10 9 9 9 9 9 9 9 9 9 9 9 9 9 9 9
11 11 12 13 13 13 13 12 13 14 14 13 11 12 13 14 14 15 14 14 14 13 12 12 11 11 10 10 9 9 9 8 8 8 8 8 8 8 8 8 8 8 8 8
12 12 13 13 12 12 12 12 12 12 12 12 11 11 13 14 14 14 14 13 13 13 12 11 11 10 10 9 9 9 8 8 8 8 8 7 7 7 7 8 8 8 8 8
12 12 12 12 12 12 11 12 12 12 10 10 12 9 12 13 13 12 12 13 13 12 11 11 10 10 10 9 9 8 8 8 8 7 7 7 7 7 7 7 7 7 7 7
12 12 11 11 12 12 11 11 11 11 10 9 10 9 10 13 12 12 12 12 12 12 11 11 10 10 9 9 9 8 8 8 7 7 7 7 7 7 7 7 7 7 7 7
11 11 11 11 11 11 11 10 10 10 9 7 9 9 10 12 13 12 12 12 12 11 11 10 10 10 9 9 8 8 8 7 7 7 7 7 7 7 6 6 6 6 6 6
10 10 10 10 10 10 10 8 8 8 7 8 11 10 10 13 13 13 11 12 12 11 10 10 10 9 9 8 8 8 7 7 7 7 6 6 7 6 6 6 6 6 6 6
9 10 10 9 9 9 8 9 8 8 9 10 11 9 11 13 13 13 12 12 11 11 10 10 9 9 9 8 8 7 7 7 7 6 6 6 6 6 6 6 6 5 6 6
10 10 10 10 10 10 9 8 9 8 8 7 9 11 13 12 12 11 11 11 11 11 10 10 9 9 8 8 7 7 7 6 6 6 6 6 6 6 5 5 5 5 5 5
10 9 9 9 9 9 9 9 7 7 6 7 9 10 10 11 11 11 10 11 11 10 10 9 9 8 8 7 7 7 6 6 6 6 5 5 5 5 5 5 5 5 5 5
9 7 8 7 7 7 7 8 7 7 7 7 8 10 12 11 11 10 10 11 11 10 10 9 8 8 7 7 7 6 6 6 5 5 5 5 5 5 5 5 4 4 4 4
9 7 6 7 8 9 8 8 7 5 5 6 6 8 12 11 11 11 10 11 11 10 9 9 8 8 7 7 6 6 5 5 5 5 5 4 4 4 4 4 4 4 4 4
7 6 5 6 6 6 6 7 7 6 6 5 6 7 11 11 11 11 11 10 10 10 9 8 8 7 7 6 6 5 5 5 4 4 4 4 4 4 4 4 4 3 3 4
7 4 5 6 7 5 5 5 6 5 5 5 6 8 9 10 9 9 10 10 10 9 8 8 7 7 6 5 5 5 4 4 4 4 4 4 4 4 3 3 3 3 3 3
5 4 5 6 7 7 5 5 5 5 5 5 6 8 8 9 9 9 10 9 9 8 8 7 7 6 5 5 5 4 4 4 3 3 3 3 3 3 3 3 3 3 3 3
4 4 4 5 6 6 6 6 6 6 6 6 6 7 8 9 9 9 9 9 8 8 7 7 6 5 5 4 4 4 3 3 3 3 3 3 3 3 3 3 2 2 2 2
3 3 3 4 5 5 5 6 6 6 6 6 6 7 8 8 8 8 8 8 7 7 6 6 5 5 4 4 3 3 3 3 3 2 2 2 2 2 2 2 2 2 2 2
3 3 3 3 4 3 6 8 8 7 7 7 7 7 7 7 7 7 7 7 6 5 5 4 4 4 3 3 3 2 2 2 2 2 2 2 2 2 2 2 1 1 1 1
3 2 3 3 3 4 6 7 7 6 6 6 6 6 6 7 6 6 6 5 5 4 4 3 3 3 3 2 2 2 2 2 2 1 1 1 1 1 1 1 1 1 1 1
3 3 2 3 3 3 6 6 7 6 4 5 5 5 5 5 3 4 5 4 4 3 3 3 2 2 2 2 2 1 1 1 1 1 1 1 0 0 0 0 0 0 0 1
2 2 2 2 2 3 5 5 6 4 4 5 5 5 4 3 3 4 4 3 3 3 2 2 2 1 1 1 1 1 1 1 1 0 0 0 -0 -0 -0 -0 -0 -0 0 0
2 2 2 2 2 3 4 4 3 3 4 4 4 4 3 3 3 3 2 2 2 2 1 1 1 1 0 0 0 0 0 0 -0 -0 -0 -1 -1 -1 -1 -1 -0 -0 -0 -0
3 2 2 2 3 4 4 4 4 4 4 3 3 3 2 2 2 2 1 1 1 1 0 0 -0 -0 -0 -0 -0 -1 -1 -1 -1 -1 -1 -1 -1 -1 -1 -1 -1 -1 -1 -1
3 3 2 2 3 3 4 4 3 3 3 2 2 2 2 1 1 1 0 0 0 -0 -0 -1 -1 -1 -1 -1 -1 -1 -1 -2 -2 -2 -2 -2 -2 -2 -1 -1 -1 -1 -1 -1
2 1 1 1 2 2 3 2 2 2 2 2 1 1 1 0 0 -0 -0 -1 -1 -1 -1 -2 -2 -2 -2 -2 -2 -2 -2 -2 -2 -2 -2 -2 -2 -2 -2 -2 -2 -2 -1 -1
1 1 0 0 1 1 1 1 1 1 1 0 0 -0 -0 -1 -1 -1 -1 -2 -2 -2 -2 -2 -2 -2 -2 -2 -2 -2 -3 -3 -3 -3 -3 -3 -3 -3 -3 -2 -2 -1 -1 -1

GEFSCGP_850_meantemp_192.txt.gz
Temperature
9 7 7 8 8 10 10 10 10 10 10 10 9 9 10 10 11 10 11 12 12 12 12 12 12 12 11 11 11 10 10 10 10 9 9 9 9 9 9 9 8 8 8 8
7 7 8 9 9 9 9 9 9 9 10 10 9 8 9 9 9 11 11 11 12 12 12 12 11 11 11 11 11 10 10 10 9 9 9 9 8 8 8 8 8 8 8 8
7 8 9 9 9 9 9 9 9 9 9 9 9 8 9 9 10 11 11 12 12 12 12 11 11 11 11 10 10 10 10 9 9 9 8 8 8 8 8 8 8 8 8 8
7 8 9 9 9 9 8 9 9 9 8 7 8 7 8 8 9 9 9 10 11 11 11 11 11 11 10 10 10 10 9 9 9 8 8 8 8 7 7 7 7 7 7 7
7 8 9 9 9 9 8 9 9 8 7 6 6 6 7 8 8 9 8 9 11 11 11 11 11 11 10 10 10 9 9 9 9 8 8 7 7 7 7 7 7 7 7 7
7 8 9 9 9 9 8 7 6 4 4 5 6 6 7 6 8 9 8 9 10 11 11 10 10 10 10 10 9 9 9 9 8 8 8 7 7 7 6 6 6 6 6 6
7 8 8 9 8 8 7 6 5 6 4 5 6 6 7 8 8 8 8 9 10 10 10 10 10 10 10 9 9 9 8 8 8 8 7 7 7 6 6 6 6 6 6 6
6 6 7 8 8 7 6 6 6 6 6 5 6 6 7 8 8 9 10 10 10 10 10 10 10 10 9 9 9 9 8 8 8 7 7 7 6 6 6 6 5 5 5 5
5 6 7 7 8 7 6 5 6 5 4 5 5 5 6 8 8 8 8 9 9 10 10 10 10 9 9 9 9 8 8 7 7 7 6 6 6 6 5 5 5 5 5 5
6 5 6 7 7 7 6 5 4 4 5 5 6 6 6 8 8 7 6 7 9 9 9 9 9 9 9 8 8 8 7 7 7 6 6 6 5 5 5 5 5 5 5 5
6 5 5 6 6 5 5 5 5 3 3 4 5 6 7 7 7 7 6 8 9 9 9 9 9 9 9 8 8 7 7 7 6 6 6 5 5 5 5 5 4 4 4 4
5 4 4 4 5 6 5 5 4 4 3 2 3 5 8 6 7 7 7 8 9 9 9 9 9 8 8 8 7 7 6 6 6 6 5 5 5 5 4 4 4 4 4 4
5 3 4 4 4 5 4 4 4 3 3 2 3 5 7 6 6 7 8 8 8 8 8 8 8 8 7 7 6 6 6 6 5 5 5 5 4 4 4 4 4 3 3 3
5 3 4 5 4 3 3 3 3 3 3 3 3 5 7 6 6 6 7 7 8 8 8 7 7 7 7 6 6 6 5 5 5 4 4 4 4 4 3 3 3 3 3 3
4 3 3 4 4 3 4 4 3 3 3 4 4 4 6 6 5 6 7 7 7 7 7 7 6 6 6 6 5 5 5 4 4 4 4 3 3 3 3 3 3 3 3 3
2 2 2 3 4 3 3 3 4 4 4 4 4 4 5 5 6 5 6 6 6 6 6 6 5 5 5 5 4 4 4 4 3 3 3 3 3 3 2 2 2 2 2 2
1 1 2 2 2 3 3 3 4 3 3 4 4 5 4 4 4 4 5 5 5 5 5 5 4 4 4 4 3 3 3 3 3 3 2 2 2 2 2 2 2 2 2 2
1 1 1 1 1 2 4 4 4 4 4 4 4 4 4 4 4 5 5 5 5 4 4 4 4 3 3 3 3 3 2 2 2 2 2 2 1 1 1 1 1 1 1 1
1 1 0 1 1 1 3 3 3 3 3 3 3 3 3 4 3 3 4 4 4 4 3 3 3 3 2 2 2 2 2 2 1 1 1 1 1 1 0 0 0 0 0 1
1 0 0 0 1 2 3 3 3 3 2 2 2 2 2 2 1 2 3 3 3 3 3 2 2 2 2 1 1 1 1 1 1 1 0 0 0 -0 -0 -0 -0 -0 -0 0
0 0 0 0 0 1 2 3 3 3 2 2 2 2 2 1 1 2 2 2 2 2 2 1 1 1 1 0 0 0 0 0 0 -0 -0 -0 -0 -1 -1 -1 -1 -1 -1 -0
-0 -1 -1 -0 -0 1 2 2 2 1 2 2 2 2 2 1 1 1 1 1 1 1 1 1 0 0 -0 -0 -1 -0 -0 -1 -1 -1 -1 -1 -1 -1 -1 -1 -1 -1 -1 -1
-1 -0 -1 -0 1 1 1 2 2 2 2 1 1 1 1 1 0 0 0 0 0 0 -0 -0 -0 -1 -0 -1 -1 -1 -1 -1 -1 -1 -1 -1 -1 -2 -2 -2 -2 -1 -1 -1
-1 -1 -1 -1 -1 0 1 1 1 1 1 1 1 1 0 -0 -0 -0 -0 -1 -1 -1 -1 -1 -1 -1 -1 -1 -2 -2 -2 -2 -2 -2 -2 -2 -2 -2 -2 -2 -2 -2 -2 -2
-2 -2 -2 -1 -1 -1 0 0 1 0 0 0 0 -0 -0 -1 -1 -1 -1 -1 -1 -2 -2 -2 -2 -2 -2 -2 -2 -2 -2 -3 -3 -3 -3 -2 -2 -2 -2 -2 -2 -2 -2 -2
-3 -2 -2 -2 -1 -1 -1 0 0 -0 -0 -1 -1 -1 -1 -2 -2 -2 -2 -2 -2 -2 -2 -2 -2 -3 -3 -3 -3 -3 -3 -3 -3 -3 -3 -3 -3 -3 -3 -3 -3 -2 -2 -2

GEFSCGP_850_meantemp_198.txt.gz
Temperature
7 6 7 7 7 9 8 8 8 9 9 8 7 8 8 9 9 9 9 10 11 12 12 12 12 12 12 11 11 11 11 10 10 10 10 10 9 9 9 9 9 9 9 9
6 6 7 7 7 8 8 8 8 8 8 8 7 7 8 8 8 9 9 10 11 11 12 12 12 11 11 11 11 10 10 10 10 10 9 9 9 9 9 9 9 8 8 8
7 7 7 7 7 7 7 7 8 8 8 7 7 8 8 8 8 9 10 10 11 11 12 12 11 11 11 11 10 10 10 10 9 9 9 9 9 9 8 8 8 8 8 8
6 7 7 7 7 7 7 8 8 8 7 6 7 7 7 7 7 7 8 9 10 11 12 11 11 11 11 10 10 10 10 10 9 9 9 8 8 8 8 8 8 7 7 7
6 7 7 7 7 8 7 7 6 7 6 6 5 6 7 7 8 8 7 8 10 11 11 11 11 11 11 10 10 10 10 9 9 9 8 8 8 8 7 7 7 7 7 7
6 7 7 7 7 7 6 5 5 4 4 5 5 5 6 6 7 8 7 8 9 10 10 10 10 10 10 10 10 9 9 9 9 8 8 8 8 7 7 7 7 6 6 6
6 6 7 7 6 6 6 6 5 5 4 5 5 5 6 7 7 7 7 8 9 9 10 10 10 10 10 9 9 9 9 9 9 8 8 8 7 7 6 6 6 6 6 6
5 5 6 6 6 5 5 6 5 6 5 5 4 4 6 6 6 7 7 8 8 9 9 10 10 10 9 9 9 9 9 9 8 8 7 7 7 6 6 6 6 5 5 5
5 5 6 6 6 6 5 5 5 4 4 4 4 4 5 6 6 6 6 7 8 9 9 9 9 9 9 9 9 8 8 8 8 7 7 7 6 6 6 6 5 5 5 5
4 5 5 5 6 6 5 4 3 4 5 6 6 5 6 7 7 6 5 6 7 8 8 9 9 9 9 9 8 8 8 7 7 7 6 6 6 6 5 5 5 5 5 5
4 4 4 5 5 5 4 4 4 3 3 4 5 6 6 6 6 6 5 6 7 8 8 8 8 8 8 8 8 8 7 7 7 6 6 6 6 5 5 5 5 5 4 4
4 3 3 4 4 5 5 4 3 4 3 2 3 5 6 5 5 5 5 6 7 7 7 7 8 8 8 8 7 7 7 6 6 6 6 5 5 5 5 4 4 4 4 4
3 3 3 4 4 3 3 3 3 2 1 1 2 5 6 4 5 5 5 5 6 7 7 7 7 7 7 7 7 6 6 6 5 5 5 5 5 4 4 4 4 4 4 4
3 2 3 4 4 2 2 2 2 2 2 2 2 4 5 5 5 4 5 5 6 6 6 6 6 6 6 6 6 6 5 5 5 5 4 4 4 4 4 4 4 4 3 3
3 2 2 3 3 2 3 3 2 2 3 3 3 3 5 5 4 4 4 5 5 5 5 5 6 6 6 6 5 5 5 4 4 4 4 4 4 3 3 3 3 3 3 3
1 2 2 2 3 2 3 3 3 3 3 3 3 3 4 4 4 4 4 4 4 5 5 5 5 5 5 5 5 4 4 4 4 4 3 3 3 3 3 3 2 2 2 2
0 1 1 1 1 2 2 2 3 2 2 3 4 4 3 3 3 3 3 4 4 4 4 4 4 4 4 4 3 3 3 3 3 3 3 3 2 2 2 2 2 1 1 1
-0 -0 -0 -0 1 2 3 2 3 3 2 2 3 3 2 3 3 4 4 4 4 4 3 3 3 3 3 3 2 2 2 2 2 2 2 2 2 1 1 1 1 1 1 1
0 -0 -1 -0 0 1 2 2 1 2 2 1 2 1 2 2 2 2 3 3 3 3 3 2 2 2 2 2 2 2 2 2 2 1 1 1 1 1 1 0 0 0 0 0
-0 -1 -1 -1 0 1 2 2 1 2 2 1 1 0 0 1 0 1 3 2 2 2 2 2 2 1 1 1 1 1 1 1 1 1 1 1 0 0 -0 -0 -0 -0 -1 -1
-1 -1 -1 -1 -0 -0 0 1 2 2 1 1 0 0 0 -0 1 1 2 2 2 1 1 1 1 1 1 0 0 0 0 0 -0 -0 -0 -0 -0 -0 -1 -1 -1 -1 -1 -1
-1 -1 -1 -2 -1 0 -0 0 0 0 0 0 0 1 0 1 1 1 1 1 1 1 1 0 0 0 0 -0 -0 -0 -0 -0 -1 -1 -1 -1 -1 -1 -1 -1 -1 -1 -2 -2
-2 -1 -2 -1 -0 -1 -1 -0 0 0 0 0 0 0 0 0 -0 -0 -0 -0 -0 -0 -0 -1 -1 -1 -1 -1 -1 -1 -1 -1 -1 -1 -1 -1 -1 -1 -1 -1 -2 -2 -2 -2
-3 -3 -3 -2 -2 -2 -1 -1 -0 -0 -0 -0 -0 -0 -0 -0 -1 -1 -1 -1 -1 -1 -1 -1 -1 -2 -1 -1 -1 -2 -2 -2 -2 -2 -2 -2 -2 -2 -2 -2 -2 -2 -2 -2
-3 -3 -3 -3 -3 -2 -1 -1 -1 -0 -0 -0 -1 -1 -1 -1 -1 -1 -2 -2 -2 -2 -2 -2 -2 -2 -2 -2 -2 -2 -2 -3 -3 -2 -2 -2 -2 -2 -2 -2 -2 -3 -2 -3
-5 -4 -3 -3 -3 -3 -2 -1 -1 -1 -1 -1 -2 -2 -2 -2 -2 -2 -2 -2 -3 -2 -2 -3 -3 -3 -2 -3 -2 -2 -3 -3 -3 -3 -3 -3 -3 -3 -3 -3 -3 -3 -3 -3

GEFSCGP_850_meantemp_204.txt.gz
Temperature
10 12 12 13 13 14 14 14 14 14 12 12 13 14 15 14 13 14 14 14 13 13 12 11 11 11 11 11 11 11 11 11 10 10 10 10 10 10 9 9 9 9 9 9
10 11 13 13 12 12 12 13 14 13 11 12 13 14 15 15 14 14 14 14 13 13 12 11 11 11 11 11 11 11 10 10 10 10 10 10 9 9 9 9 9 9 9 8
11 11 11 11 11 11 12 13 13 13 11 11 12 14 15 14 13 13 12 13 13 12 12 11 10 10 11 11 11 11 10 10 10 10 9 9 9 9 9 9 9 8 8 8
11 10 10 10 11 11 12 12 12 11 12 13 12 15 16 15 13 13 12 12 12 12 11 11 10 10 10 11 11 10 10 10 9 9 9 9 9 8 8 8 8 8 8 8
10 9 9 10 11 11 11 10 11 11 12 12 12 12 16 14 14 14 13 12 11 11 10 10 10 10 10 10 10 10 10 9 9 9 9 9 8 8 8 8 8 7 7 7
9 9 10 10 10 10 9 10 10 10 11 11 12 13 15 15 14 14 13 12 11 10 10 9 9 10 10 10 10 10 9 9 9 9 8 8 8 8 8 7 7 7 7 7
8 8 8 9 9 9 10 11 10 10 10 12 11 12 14 14 13 13 12 11 10 9 9 9 9 9 9 9 9 9 9 9 8 8 8 8 8 7 7 7 7 6 6 6
8 8 8 9 10 9 10 11 11 12 13 13 9 11 13 12 11 10 10 10 9 9 8 8 8 8 9 9 9 9 9 8 8 8 8 7 7 7 7 6 6 6 6 6
9 9 8 8 9 10 9 10 11 11 10 11 12 12 12 11 10 10 10 9 9 8 8 8 8 8 8 8 9 8 8 8 8 7 7 7 7 6 6 6 6 6 5 5
8 7 7 7 8 8 9 10 9 9 10 12 13 12 13 12 11 10 10 9 9 7 7 7 7 7 7 7 8 8 7 7 7 7 7 7 6 6 6 6 5 5 5 5
7 6 6 7 7 8 7 8 9 10 10 12 13 14 12 11 11 10 10 9 8 7 6 6 6 6 6 7 7 7 7 7 7 7 7 6 6 6 5 5 5 5 5 5
7 7 6 7 6 7 8 9 9 9 8 9 12 13 10 10 9 9 9 8 7 6 6 6 6 6 6 6 6 6 6 6 6 6 6 6 6 5 5 5 5 5 4 4
5 5 6 6 6 5 6 6 7 7 8 9 11 12 9 9 9 8 7 7 6 5 5 5 5 5 5 5 6 6 6 6 6 6 5 5 5 5 4 4 4 4 4 4
5 4 6 8 8 6 5 5 5 6 8 9 10 11 10 9 9 8 7 6 5 5 4 4 4 5 5 5 5 5 5 5 5 5 5 4 4 4 4 4 4 4 3 3
4 4 4 5 6 6 6 6 5 6 7 8 10 10 10 9 9 7 6 5 5 4 4 4 4 4 4 4 4 5 5 5 4 4 4 4 4 4 4 3 3 3 3 3
3 3 4 4 5 5 5 6 6 6 7 7 8 8 9 8 7 6 6 5 4 4 3 3 3 4 4 4 4 4 4 4 4 4 4 3 3 3 3 3 3 3 2 2
2 2 4 5 4 4 5 5 6 6 6 7 7 8 7 7 6 6 5 4 4 3 3 3 3 3 3 3 3 3 3 3 3 3 3 3 3 3 2 2 2 2 2 2
1 2 3 4 3 4 6 5 5 5 5 5 6 6 6 6 5 4 4 3 3 3 3 2 2 2 2 2 3 3 3 2 2 2 2 2 2 2 2 2 1 1 1 1
2 2 2 3 4 5 5 4 3 4 4 4 4 5 4 3 4 3 3 3 2 2 2 2 2 2 2 2 2 2 2 2 1 1 1 1 1 1 1 1 1 0 0 0
1 1 2 3 4 4 5 3 2 4 4 3 3 3 3 3 5 5 2 2 2 2 1 1 1 1 1 1 1 1 1 1 1 1 1 1 0 0 0 0 0 0 -0 -0
1 1 2 2 3 4 3 2 3 4 4 2 1 2 2 3 3 2 1 1 1 1 1 1 1 1 0 0 0 0 0 0 0 0 0 0 0 -0 -0 -0 -0 -0 -1 -0
2 2 1 2 2 3 1 2 3 3 1 0 0 0 0 0 0 -0 -0 -0 -0 -0 -0 -0 -0 -0 -0 -0 -0 -0 -0 -0 -0 -0 -0 -0 -0 -1 -1 -1 -1 -1 -1 -1
1 2 2 2 3 1 0 0 0 0 -0 -1 -1 -1 -1 -1 -1 -1 -1 -1 -1 -1 -1 -1 -1 -1 -1 -1 -1 -1 -1 -1 -1 -1 -1 -1 -1 -1 -1 -1 -1 -1 -2 -2
0 -0 0 1 1 0 -1 -1 -1 -1 -1 -1 -1 -1 -1 -1 -2 -2 -2 -2 -2 -2 -2 -2 -2 -2 -1 -1 -1 -1 -2 -2 -1 -1 -1 -1 -2 -2 -1 -2 -2 -2 -2 -2
0 -1 -0 0 -0 -1 -1 -2 -2 -2 -2 -2 -2 -2 -2 -2 -2 -2 -2 -2 -2 -2 -2 -2 -2 -2 -2 -2 -2 -2 -2 -2 -2 -2 -2 -2 -2 -2 -2 -2 -3 -3 -3 -3
-2 -1 -0 1 -1 -1 -1 -2 -2 -2 -2 -2 -3 -3 -3 -3 -3 -3 -3 -3 -3 -3 -3 -3 -3 -3 -3 -3 -3 -3 -3 -3 -3 -3 -3 -3 -3 -3 -3 -3 -3 -3 -3 -3

GEFSCGP_850_meantemp_210.txt.gz
Temperature
12 11 11 12 13 14 15 15 16 16 15 15 14 14 15 16 16 16 17 17 16 16 15 15 14 13 13 12 12 12 12 11 11 11 11 11 11 10 10 10 10 10 10 10
11 10 12 14 14 14 14 14 15 15 15 14 14 14 15 15 15 16 16 17 16 16 15 14 14 13 13 12 12 12 11 11 11 11 11 10 10 10 10 10 10 10 9 9
11 12 13 14 14 14 14 13 14 14 14 14 13 13 14 15 15 16 16 16 16 15 15 14 13 13 12 12 11 11 11 11 11 10 10 10 10 9 9 9 9 9 9 9
11 13 13 13 13 13 13 14 14 14 12 11 13 11 14 15 14 14 15 15 15 15 14 14 13 12 12 11 11 11 11 10 10 10 10 10 9 9 9 9 9 9 8 8
11 12 12 12 13 13 13 14 14 13 12 11 12 11 12 14 14 14 13 14 14 14 14 13 12 12 11 11 10 10 10 10 10 10 10 9 9 9 9 8 8 8 8 8
11 12 12 12 13 13 12 12 12 12 11 9 11 11 12 13 14 14 13 14 14 14 13 13 12 11 11 10 10 10 9 9 9 9 9 9 9 8 8 8 8 8 8 8
10 10 11 12 11 11 11 10 9 8 8 9 12 12 12 13 14 13 13 13 13 13 13 12 11 11 10 10 9 9 9 9 9 9 9 8 8 8 8 8 7 7 7 7
8 8 10 10 10 9 10 10 9 8 9 10 12 11 12 13 13 13 13 13 12 12 12 11 11 10 9 9 9 9 9 8 8 8 8 8 8 7 7 7 7 7 7 6
8 9 10 10 11 11 9 9 11 10 10 10 11 12 12 12 12 12 12 12 11 11 11 10 10 9 9 8 8 8 8 8 8 8 8 8 7 7 7 7 7 6 6 6
9 8 9 9 10 10 10 10 9 8 9 10 12 12 11 10 10 11 10 10 11 10 10 9 9 9 8 8 8 7 7 7 7 7 7 7 7 7 7 6 6 6 6 6
8 6 7 8 8 8 8 9 9 8 9 9 10 11 12 10 10 10 9 10 10 9 9 9 8 8 8 7 7 7 7 7 7 7 7 7 6 6 6 6 6 5 5 5
8 6 6 7 8 8 9 9 8 7 7 8 9 9 11 10 9 9 9 10 9 8 8 8 7 7 7 6 6 6 6 6 6 6 6 6 6 6 6 5 5 5 5 5
6 5 5 5 6 6 7 8 8 7 7 7 8 9 10 9 9 9 9 9 8 8 7 7 7 7 6 6 6 5 5 5 5 5 5 5 5 5 5 5 5 5 4 4
6 4 5 5 6 5 5 6 7 7 6 7 8 9 9 9 8 8 9 8 7 7 7 6 6 6 6 5 5 5 5 5 5 5 5 5 5 5 4 4 4 4 4 4
4 3 4 5 7 6 6 6 6 6 6 7 8 9 9 8 8 8 8 7 7 6 6 5 5 5 5 5 5 4 4 4 4 4 4 4 4 4 4 4 4 4 3 3
3 3 4 4 6 6 6 6 6 6 7 7 8 8 8 8 8 8 7 7 6 5 5 5 4 4 4 4 4 4 4 4 4 4 4 4 4 3 3 3 3 3 3 3
2 2 3 4 4 4 4 5 6 6 6 7 6 7 7 6 6 7 6 6 6 5 4 4 4 4 4 3 3 3 3 3 3 3 3 3 3 3 3 3 2 2 2 2
2 2 2 3 3 3 4 5 5 5 5 5 5 6 6 5 6 6 5 5 4 4 4 3 3 3 3 3 3 3 3 3 3 3 3 3 2 2 2 2 2 2 1 1
2 2 2 2 3 3 4 4 4 4 3 4 4 4 4 5 5 4 4 4 4 3 3 3 3 3 2 2 2 2 2 2 2 2 2 2 2 2 1 1 1 1 1 1
2 1 2 2 3 3 3 3 4 4 3 3 3 3 3 4 2 2 3 3 3 2 2 2 2 2 2 2 1 1 1 1 1 1 1 1 1 1 1 1 1 1 0 0
1 1 1 2 2 2 2 3 4 2 2 2 3 3 2 2 1 2 2 2 1 1 1 1 1 1 1 1 1 1 1 1 1 1 1 1 0 0 0 0 0 -0 -0 -0
1 1 1 1 1 1 1 2 1 1 2 2 2 2 1 1 1 1 1 0 0 0 0 0 0 0 0 0 0 0 0 -0 -0 0 0 0 0 -0 -0 -0 -0 -0 -1 -1
1 0 0 0 1 1 1 1 1 1 1 1 1 0 0 -0 -0 -0 -1 -1 -1 -1 -1 -1 -0 -0 -0 -1 -1 -0 -1 -1 -1 -0 -0 -0 -0 -1 -1 -1 -1 -1 -1 -1
1 1 1 0 0 1 0 0 0 0 -0 -0 -0 -1 -1 -1 -1 -1 -2 -2 -2 -2 -1 -1 -1 -1 -1 -1 -1 -1 -1 -1 -1 -1 -1 -1 -1 -1 -1 -1 -2 -2 -2 -2
0 0 -0 -1 -1 -1 -0 -1 -1 -1 -1 -1 -1 -1 -2 -2 -2 -2 -3 -3 -2 -2 -2 -2 -2 -2 -2 -2 -2 -2 -2 -2 -2 -2 -2 -2 -2 -2 -2 -2 -2 -2 -2 -3
-2 -2 -1 -1 -2 -2 -2 -2 -2 -2 -2 -2 -2 -2 -2 -2 -3 -3 -3 -3 -3 -3 -3 -2 -2 -2 -3 -3 -3 -3 -3 -3 -3 -3 -3 -3 -3 -3 -3 -3 -3 -3 -3 -3

GEFSCGP_850_meantemp_216.txt.gz
Temperature
9 8 8 8 9 10 10 10 10 11 11 11 11 11 11 12 12 11 12 12 13 13 14 14 14 14 13 13 13 13 12 12 12 12 12 12 12 11 11 11 11 11 11 10
7 7 8 9 9 10 10 10 10 11 11 11 10 10 10 10 10 11 11 12 13 13 13 13 13 13 13 13 13 12 12 12 12 12 12 12 11 11 11 11 10 10 10 10
7 8 9 10 9 10 9 9 9 10 11 11 11 10 10 10 11 11 12 12 13 13 13 13 13 13 13 13 13 12 12 12 12 11 11 11 11 10 10 10 10 10 10 9
7 8 9 9 9 9 9 10 10 10 9 8 9 8 9 9 9 9 10 11 12 12 13 13 13 12 12 12 12 12 12 11 11 11 11 11 11 10 10 10 10 9 9 9
7 8 9 9 9 10 9 10 10 9 8 8 8 8 8 8 9 9 9 10 11 12 12 12 12 12 12 12 12 12 11 11 11 11 11 10 10 10 10 10 9 9 9 9
7 8 9 9 10 10 10 9 8 7 7 7 7 7 8 7 9 9 9 10 11 11 12 12 12 12 12 12 11 11 11 11 11 10 10 10 10 10 9 9 9 9 8 8
7 8 8 9 9 9 9 7 6 6 6 6 7 7 8 8 8 9 8 9 10 11 11 11 11 11 11 11 11 11 11 10 10 10 10 9 9 9 9 9 8 8 8 8
5 6 7 8 8 8 8 7 6 6 6 6 7 7 7 8 8 9 9 10 10 10 10 10 11 11 11 11 10 10 10 10 10 9 9 9 9 8 8 8 8 7 7 7
5 6 7 8 8 8 7 7 7 6 5 6 6 6 7 8 7 7 8 8 9 9 10 10 10 10 10 10 10 10 10 10 9 9 9 8 8 8 8 7 7 7 7 7
5 5 6 7 8 8 8 7 6 5 6 7 7 7 7 7 7 7 7 7 8 9 9 9 9 9 9 10 10 9 9 9 9 8 8 8 7 7 7 7 7 6 6 6
5 4 5 6 6 6 7 7 6 5 5 6 6 7 7 7 6 6 6 7 7 8 8 9 9 9 9 9 9 9 8 8 8 8 7 7 7 7 7 6 6 6 6 6
4 3 3 4 5 6 6 6 5 5 5 4 5 6 7 6 5 5 6 6 7 7 8 8 8 8 8 8 8 8 8 7 7 7 7 6 6 6 6 6 6 6 5 5
4 3 3 4 4 5 5 5 5 5 4 3 5 6 6 5 5 5 5 5 6 7 7 7 7 7 7 7 7 7 7 7 7 6 6 6 6 6 6 5 5 5 5 5
3 2 3 4 4 3 4 4 4 4 4 4 5 5 5 5 4 4 4 5 5 6 6 6 6 6 6 6 6 6 6 6 6 5 5 5 5 5 5 5 5 4 4 4
2 2 2 3 4 3 4 4 4 4 4 4 5 5 5 4 4 4 4 4 4 4 4 5 5 5 5 5 5 5 5 5 5 5 5 5 5 4 4 4 4 4 4 4
1 1 1 2 3 3 3 3 4 4 4 4 4 4 4 4 4 3 3 3 3 3 4 4 4 5 5 5 5 5 5 5 4 4 4 4 4 4 4 4 4 3 3 3
-0 0 1 2 2 3 2 2 3 3 3 4 4 4 3 3 3 3 3 3 3 3 3 3 4 4 4 4 4 4 4 4 4 4 4 4 4 3 3 3 3 3 3 3
-0 -0 -0 1 2 2 2 2 3 2 2 2 3 3 3 2 2 3 3 3 3 3 3 3 3 3 4 4 4 3 3 3 3 3 3 3 3 3 3 3 2 2 2 2
-0 -0 -0 -0 1 1 2 2 1 2 1 1 2 2 1 2 2 1 2 3 3 3 3 3 3 3 3 3 3 3 3 3 2 2 2 2 2 2 2 2 2 2 1 1
-0 -1 -1 -1 0 1 1 1 1 2 1 1 1 1 1 1 1 -0 1 2 2 2 2 2 2 2 2 2 2 2 2 2 2 2 2 2 2 2 1 1 1 1 1 1
-1 -1 -1 -1 -1 -0 -0 0 1 1 1 0 0 0 0 -0 0 0 1 1 1 1 1 1 2 2 2 2 2 2 2 1 1 1 1 1 1 1 1 1 0 0 0 -0
-2 -2 -2 -2 -1 -1 -1 -0 -0 -0 -0 -0 -0 0 -0 -0 -0 -0 -0 0 0 0 0 1 1 1 1 1 1 1 1 1 1 1 1 1 1 0 0 -0 -0 -0 -0 -1
-2 -2 -3 -2 -2 -2 -2 -1 -1 -0 -1 -1 -1 -0 -0 -1 -1 -1 -1 -1 -1 -1 -0 -0 -0 -0 0 0 0 0 0 0 0 0 0 0 -0 -0 -1 -1 -1 -1 -1 -2
-3 -3 -3 -3 -3 -3 -2 -2 -1 -1 -1 -1 -1 -1 -1 -1 -2 -2 -2 -2 -2 -1 -1 -1 -1 -1 -1 -1 -1 -1 -1 -1 -1 -1 -1 -1 -1 -1 -1 -1 -2 -2 -2 -2
-4 -3 -3 -3 -3 -3 -3 -3 -2 -2 -2 -2 -2 -2 -2 -2 -2 -2 -3 -2 -2 -2 -2 -2 -2 -2 -2 -2 -1 -1 -1 -1 -1 -1 -1 -1 -2 -2 -2 -2 -2 -3 -3 -3
-5 -5 -4 -3 -3 -4 -4 -3 -3 -2 -3 -3 -3 -3 -3 -3 -3 -3 -3 -3 -3 -3 -3 -3 -3 -2 -2 -2 -2 -2 -2 -2 -2 -2 -2 -2 -2 -3 -3 -3 -3 -3 -3 -3

GEFSCGP_850_meantemp_222.txt.gz
Temperature
8 7 7 7 8 9 8 8 9 9 10 10 9 9 9 9 9 9 9 10 11 12 13 13 13 13 13 13 13 13 12 12 12 12 12 12 12 11 11 11 11 11 11 11
6 7 8 8 8 8 8 8 8 9 9 9 8 8 8 8 8 9 9 10 11 11 12 12 13 13 13 13 13 12 12 12 12 12 12 12 11 11 11 11 10 10 10 10
7 7 8 8 8 8 8 8 8 9 9 9 9 8 8 8 8 9 9 10 10 11 12 12 12 12 12 12 12 12 12 12 12 12 11 11 11 11 10 10 10 10 10 10
6 7 8 8 7 8 8 8 8 9 8 7 8 7 8 8 7 7 7 8 9 10 11 12 12 12 12 12 12 12 12 12 12 11 11 11 11 11 11 10 10 10 9 9
6 6 7 7 7 8 8 8 8 8 7 6 7 7 7 7 7 7 7 8 9 10 11 11 12 12 12 12 12 12 12 11 11 11 11 11 11 11 10 10 10 9 9 9
6 6 7 7 8 8 7 7 7 6 6 6 6 6 7 6 7 8 7 7 9 10 10 11 11 12 12 12 12 11 11 11 11 11 11 11 10 10 10 10 9 9 9 9
5 6 7 7 7 7 7 6 6 6 5 6 6 6 7 6 6 7 7 7 8 9 10 10 10 11 11 11 11 11 11 11 11 11 10 10 10 10 10 9 9 9 9 8
4 5 6 7 7 6 6 7 6 6 6 5 5 6 6 6 5 6 7 7 8 8 9 9 10 10 11 11 11 11 10 10 10 10 10 10 9 9 9 9 9 9 8 8
4 5 6 6 7 7 6 6 6 5 4 5 5 4 5 5 5 5 5 6 6 7 8 9 9 10 10 10 10 10 10 10 10 10 10 9 9 9 9 8 8 8 8 7
3 4 5 6 6 6 6 5 5 5 5 6 6 5 6 6 5 5 4 4 5 6 7 8 9 9 9 10 10 9 9 9 9 9 9 9 8 8 8 8 8 7 7 7
3 3 4 5 5 5 5 5 5 4 4 5 6 6 5 5 5 4 3 4 4 5 6 7 8 8 8 9 9 9 9 9 9 9 8 8 8 8 7 7 7 7 7 6
2 2 2 3 4 5 5 5 4 5 4 3 4 5 5 4 3 3 3 4 4 5 6 6 7 7 7 7 8 8 8 8 8 8 8 8 7 7 7 7 6 6 6 6
2 2 3 3 3 4 4 4 4 4 3 2 4 6 4 3 3 3 3 3 4 4 5 5 6 6 6 7 7 7 7 7 7 7 7 7 7 7 6 6 6 6 6 5
2 1 2 3 3 3 3 3 3 4 3 3 4 4 4 3 3 2 2 2 3 3 4 5 5 5 5 6 6 6 6 6 7 7 7 6 6 6 6 6 5 5 5 5
1 1 1 2 2 2 3 3 3 3 3 4 4 3 4 3 2 2 1 2 2 2 3 3 4 4 5 5 5 5 6 6 6 6 6 6 6 5 5 5 5 5 4 4
-1 -0 0 1 2 2 2 2 3 3 3 3 3 3 3 2 1 1 1 1 1 1 2 3 3 4 4 4 5 5 5 5 5 5 5 5 5 4 4 4 4 4 4 4
-1 -1 0 1 1 2 2 1 2 2 2 3 3 3 2 1 1 0 1 1 1 1 2 2 3 3 3 4 4 4 4 4 4 5 5 4 4 4 4 4 4 3 3 3
-2 -1 -1 -0 1 2 2 1 1 1 1 1 2 1 1 1 1 1 1 1 1 1 2 2 2 3 3 3 3 3 3 3 4 4 4 3 3 3 3 3 3 3 3 2
-1 -1 -1 -1 0 0 1 0 -0 0 0 0 1 1 0 0 0 0 1 1 1 2 2 2 2 2 3 3 3 3 3 3 3 3 3 3 3 3 3 3 2 2 2 2
-2 -2 -2 -1 0 1 0 -1 -1 0 0 -0 -0 -1 -1 -0 0 -1 0 1 1 1 1 2 2 2 2 2 2 2 2 2 2 2 2 2 2 2 2 2 2 1 1 1
-2 -2 -2 -2 -1 -1 -2 -2 -0 1 0 -1 -1 -1 -1 -1 -1 -1 -0 -0 0 1 1 1 1 1 1 2 2 2 2 1 1 1 1 1 1 1 1 1 1 1 0 0
-3 -3 -3 -3 -2 -1 -3 -2 -1 -1 -1 -1 -1 -1 -1 -2 -1 -1 -1 -0 -0 -0 0 0 0 1 1 1 1 1 1 1 1 1 1 1 1 1 0 0 0 -0 -0 -0
-4 -4 -4 -3 -3 -3 -3 -3 -2 -2 -2 -2 -2 -2 -2 -2 -2 -2 -1 -1 -1 -1 -0 -0 -0 -0 0 0 0 0 0 0 0 0 0 0 0 0 -0 -0 -0 -1 -1 -1
-4 -4 -4 -4 -4 -4 -4 -3 -2 -2 -2 -2 -2 -2 -2 -2 -3 -3 -2 -2 -2 -1 -1 -1 -1 -1 -1 -1 -1 -1 -1 -1 -0 -0 -0 -0 -0 -0 -1 -1 -1 -1 -1 -2
-5 -5 -5 -5 -5 -4 -4 -4 -3 -3 -2 -2 -2 -2 -2 -2 -3 -3 -3 -3 -2 -2 -2 -2 -1 -1 -1 -1 -1 -1 -1 -1 -1 -1 -1 -1 -1 -1 -1 -1 -2 -2 -2 -3
-7 -6 -5 -4 -4 -5 -5 -4 -4 -3 -3 -3 -3 -3 -3 -3 -3 -3 -3 -3 -3 -3 -2 -2 -2 -2 -2 -2 -2 -2 -2 -2 -2 -2 -2 -2 -2 -2 -2 -2 -2 -2 -3 -3

GEFSCGP_850_meantemp_228.txt.gz
Temperature
8 9 10 11 12 13 13 13 13 13 13 13 13 14 14 13 13 13 13 13 12 12 12 12 12 12 12 12 12 12 12 12 12 12 12 11 11 11 11 11 11 11 11 11
8 9 10 11 11 11 12 12 13 12 12 12 13 13 14 13 13 13 13 12 12 11 11 11 12 12 12 12 12 12 12 12 12 12 12 12 11 11 11 11 11 11 11 11
8 9 10 10 10 10 11 12 12 12 11 12 12 13 13 13 12 11 11 11 11 11 11 11 11 12 12 12 12 12 12 12 12 11 11 11 11 11 11 11 11 10 10 10
8 9 9 9 10 10 10 12 12 11 11 12 12 13 14 14 12 12 11 11 11 10 11 11 11 11 11 12 12 12 11 12 11 11 11 11 11 11 11 11 10 10 10 10
8 8 8 9 10 10 11 11 11 11 11 11 11 12 14 13 13 13 12 11 10 10 10 10 10 11 11 11 11 11 11 11 11 11 11 11 11 11 11 10 10 10 10 9
7 7 8 9 10 10 10 10 10 11 11 10 12 12 13 14 13 13 12 11 10 9 9 9 10 10 10 11 11 11 11 11 11 11 11 11 11 10 10 10 10 10 9 9
6 7 7 8 8 8 9 9 9 9 9 11 12 11 13 13 12 12 11 10 9 9 8 9 9 9 10 10 10 11 11 11 10 10 10 10 10 10 10 10 10 9 9 9
6 7 7 7 8 8 9 10 10 10 10 11 10 11 12 11 10 9 9 8 8 8 8 8 9 9 9 10 10 10 10 10 10 10 10 10 10 10 10 9 9 9 9 9
6 7 7 7 8 8 8 9 10 10 10 10 11 11 10 9 9 8 8 8 8 7 7 8 8 8 8 9 9 9 10 10 10 10 10 9 9 9 9 9 9 9 8 8
6 6 6 7 7 7 9 9 9 9 9 10 11 11 12 10 9 8 8 8 7 6 6 7 7 7 7 8 8 8 9 9 9 9 9 9 9 9 9 9 8 8 8 8
5 5 5 6 7 7 7 8 8 9 10 11 11 12 10 10 9 8 8 6 5 5 5 6 6 6 7 7 7 7 8 8 8 8 8 8 8 8 8 8 8 8 8 7
4 5 5 5 6 6 8 8 8 8 8 9 11 11 8 8 7 7 6 5 4 4 4 4 5 5 6 6 6 7 7 7 8 8 8 8 8 8 7 7 7 7 7 7
4 4 5 5 5 5 6 7 7 7 8 9 10 10 7 7 6 5 5 4 3 3 3 4 4 5 5 5 6 6 6 7 7 7 7 7 7 7 7 7 7 7 6 6
4 3 4 6 6 5 5 5 6 6 7 8 10 9 7 7 6 5 4 3 3 2 3 3 3 4 4 5 5 5 5 6 6 6 6 6 7 6 6 6 6 6 6 6
2 3 3 4 5 5 5 5 5 6 7 8 9 8 7 7 6 5 3 2 2 2 2 2 3 3 4 4 4 5 5 5 5 6 6 6 6 6 6 5 5 5 5 5
1 2 3 3 4 5 4 5 5 6 6 7 7 7 6 5 4 3 3 2 2 1 1 1 2 3 3 4 4 4 4 4 5 5 5 5 5 5 5 5 5 4 4 4
1 1 3 4 3 4 4 4 4 5 5 6 7 6 5 4 4 3 2 2 1 1 1 1 2 3 3 3 4 4 4 4 4 4 4 4 5 5 4 4 4 4 4 4
-0 1 2 3 3 4 4 3 3 3 3 4 4 4 4 4 2 2 2 1 1 1 1 1 2 2 3 3 3 3 3 3 3 3 3 4 4 4 4 4 4 3 3 3
0 1 2 3 3 3 3 2 1 2 2 2 3 3 2 1 1 1 1 1 1 1 1 1 2 2 2 2 2 3 3 3 3 3 3 3 3 3 3 3 3 3 3 2
-0 0 2 2 3 4 3 1 -0 2 3 2 1 1 1 1 4 2 -0 -0 0 0 1 1 1 1 1 2 2 2 2 2 2 2 2 2 2 2 2 2 2 2 2 2
-0 0 1 2 3 3 0 -1 0 3 3 0 0 0 0 1 2 -0 -1 -1 -0 -0 0 0 0 1 1 1 1 1 1 1 1 1 1 1 2 2 2 2 2 2 1 1
-0 1 0 1 2 2 -1 -1 1 0 -1 -1 -1 -1 -1 -2 -2 -2 -2 -1 -1 -1 -1 -0 -0 -0 -0 0 0 1 1 1 1 1 1 1 1 1 1 1 1 1 1 0
-2 -1 -1 -1 -0 -2 -3 -3 -3 -2 -2 -2 -2 -2 -2 -3 -3 -3 -3 -2 -2 -1 -1 -1 -1 -1 -1 -1 -0 -0 -0 -0 -0 0 0 0 0 0 0 0 0 0 -0 -0
-2 -3 -2 -2 -2 -3 -3 -3 -3 -3 -3 -3 -3 -3 -3 -3 -3 -3 -3 -3 -3 -2 -2 -2 -2 -1 -1 -1 -1 -1 -1 -1 -1 -1 -1 -1 -0 -0 -0 -0 -1 -1 -1 -1
-3 -3 -3 -3 -3 -3 -4 -4 -4 -4 -4 -3 -3 -3 -3 -3 -3 -3 -3 -3 -3 -3 -3 -3 -2 -2 -2 -2 -2 -2 -1 -1 -1 -1 -1 -1 -1 -1 -1 -1 -1 -2 -2 -2
-5 -5 -3 -2 -4 -4 -4 -5 -5 -5 -4 -4 -4 -4 -4 -3 -4 -4 -4 -4 -4 -3 -3 -3 -3 -2 -2 -2 -2 -2 -2 -2 -2 -2 -2 -2 -2 -2 -2 -2 -2 -2 -2 -2

GEFSCGP_850_meantemp_234.txt.gz
Temperature
9 8 8 10 11 12 13 13 13 14 15 14 13 13 14 14 15 15 15 15 14 14 14 14 13 13 13 13 13 13 12 12 12 12 12 12 12 12 12 12 12 12 12 12
8 8 10 11 11 11 12 12 13 14 14 14 13 13 13 14 14 15 15 15 14 14 13 13 13 13 12 12 12 12 12 12 12 12 12 12 12 12 12 12 12 12 12 12
7 9 10 10 10 10 11 12 12 13 13 13 12 12 13 13 14 14 15 15 14 13 13 13 12 12 12 12 12 12 12 12 12 12 12 11 11 11 11 11 11 11 11 11
8 10 10 9 10 10 10 12 12 12 11 10 12 10 12 13 13 13 14 14 14 13 12 12 12 12 12 12 12 12 12 12 12 11 11 12 12 11 11 11 11 11 11 11
8 9 9 9 9 10 10 12 12 12 11 10 11 10 11 13 12 13 13 13 13 13 12 12 11 11 11 11 11 11 11 11 11 11 11 11 11 11 11 11 11 11 11 10
8 9 9 9 10 10 10 10 11 11 10 9 10 10 11 12 13 13 13 13 12 12 12 12 11 11 11 11 11 11 11 11 11 11 11 11 11 11 11 11 11 10 10 10
7 8 8 9 8 9 9 8 8 8 8 8 11 11 11 13 13 13 12 12 12 11 11 11 11 10 10 10 10 10 10 10 10 10 10 10 10 10 10 11 10 10 10 10
6 6 8 8 8 7 8 8 8 8 8 9 11 10 11 11 12 12 12 11 11 11 10 10 10 10 10 10 10 10 10 10 10 10 10 9 9 10 10 10 10 10 10 10
5 6 8 8 9 8 7 8 9 9 9 9 10 10 10 10 10 11 11 10 10 10 9 9 9 9 9 9 9 9 10 10 9 9 9 9 9 9 9 9 9 9 9 9
5 5 7 8 8 8 8 8 7 7 8 9 10 10 10 9 9 9 9 9 9 9 8 8 8 8 8 8 9 9 9 9 9 9 9 9 8 9 9 9 9 9 9 9
5 4 5 6 6 6 7 7 7 7 8 8 9 9 9 9 9 9 8 8 8 8 7 7 7 7 8 8 8 8 8 8 8 8 8 8 8 8 8 8 8 8 8 8
5 4 4 5 6 7 7 7 7 6 7 8 8 8 8 8 8 8 8 7 7 7 7 6 6 6 6 7 7 7 7 8 8 8 8 8 8 8 8 8 7 7 8 7
4 3 3 4 5 5 6 6 6 6 6 7 7 7 8 8 7 7 7 6 6 6 6 5 5 5 5 6 6 6 7 7 7 7 7 7 7 7 7 7 7 7 7 7
4 2 3 4 4 4 4 5 6 5 5 6 7 6 7 6 6 6 6 5 5 5 5 4 4 4 5 5 5 6 6 6 6 6 7 7 7 7 7 7 6 6 6 6
2 2 3 4 5 5 5 5 5 5 5 6 7 7 6 6 5 5 5 5 4 4 4 4 3 3 4 4 5 5 5 5 5 6 6 6 6 6 6 6 6 6 6 6
1 1 2 3 5 5 4 5 5 5 6 6 6 6 6 6 5 5 4 4 3 3 3 2 3 3 3 3 4 4 5 5 5 5 5 5 5 5 5 5 5 5 5 5
0 0 2 3 4 4 3 3 4 5 5 5 5 5 5 4 4 4 3 3 3 2 2 2 2 2 2 3 3 4 4 4 4 4 4 5 4 4 4 4 5 5 4 4
-0 0 1 2 2 2 2 3 3 3 3 4 4 4 4 3 3 3 3 3 2 2 1 1 1 2 2 2 3 3 3 3 3 4 4 4 4 4 4 4 4 4 4 3
1 0 1 2 2 2 2 2 2 2 2 2 2 2 3 3 2 2 2 2 1 1 1 1 1 2 2 2 2 3 3 3 3 3 3 3 3 3 3 3 3 3 3 3
0 -0 0 2 2 2 1 1 1 2 1 1 1 1 1 1 1 1 1 1 1 1 0 0 1 1 2 2 2 2 2 2 2 2 2 2 2 2 2 2 2 2 2 2
-1 -0 0 1 1 1 -1 -0 1 1 -0 -0 0 -0 -0 -0 -0 -0 0 -0 -0 -0 -0 -0 0 1 1 1 1 1 1 1 1 1 1 1 1 1 1 1 1 1 1 1
-1 -1 -0 0 1 -0 -2 -1 -1 -2 -1 -1 -1 -1 -1 -1 -1 -1 -1 -1 -1 -1 -1 -1 -0 -0 -0 0 1 1 1 1 1 1 1 1 1 1 1 1 0 0 0 0
-2 -2 -2 -2 -2 -2 -2 -2 -2 -2 -2 -2 -2 -2 -2 -2 -2 -2 -2 -2 -2 -2 -2 -1 -1 -1 -1 -1 -0 0 0 0 0 0 0 0 0 0 -0 -0 -0 -0 -0 -0
-2 -2 -2 -2 -2 -2 -2 -3 -3 -3 -3 -3 -3 -3 -3 -3 -3 -3 -3 -3 -3 -3 -2 -2 -2 -2 -2 -1 -1 -1 -1 -1 -0 -0 -0 -1 -1 -1 -1 -1 -1 -1 -1 -1
-3 -3 -3 -3 -3 -3 -3 -3 -4 -4 -4 -4 -3 -3 -3 -3 -3 -3 -3 -3 -3 -3 -3 -3 -2 -2 -2 -2 -2 -2 -2 -1 -1 -1 -1 -1 -1 -1 -1 -1 -2 -2 -2 -2
-5 -5 -4 -4 -4 -4 -4 -4 -4 -4 -4 -4 -4 -4 -4 -4 -4 -3 -4 -4 -3 -3 -3 -3 -3 -3 -3 -2 -2 -2 -2 -2 -2 -2 -2 -2 -2 -2 -2 -2 -2 -3 -3 -3